<?xml version="1.0" encoding="UTF-8" standalone="no"?>
<gpx xmlns="http://www.topografix.com/GPX/1/1" creator="GlobalMotion" version="1.1" xmlns:xsi="http://www.w3.org/2001/XMLSchema-instance" xsi:schemaLocation="http://www.topografix.com/GPX/1/1 http://www.topografix.com/GPX/1/1/gpx.xsd"><trk>
  <name>Zofar1</name>
<trkseg>
<trkpt lat="30.563527000" lon="35.181275000">
  <ele>-49.850000</ele>
  <time>2009-12-02T05:57:00Z</time>
</trkpt>
<trkpt lat="30.563338000" lon="35.181560000">
  <ele>-49.370000</ele>
  <time>2009-12-02T05:58:09Z</time>
</trkpt>
<trkpt lat="30.563377000" lon="35.181683000">
  <ele>-49.850000</ele>
  <time>2009-12-02T05:58:13Z</time>
</trkpt>
<trkpt lat="30.563350000" lon="35.181710000">
  <ele>-49.850000</ele>
  <time>2009-12-02T05:58:30Z</time>
</trkpt>
<trkpt lat="30.563316000" lon="35.181911000">
  <ele>-49.850000</ele>
  <time>2009-12-02T05:58:44Z</time>
</trkpt>
<trkpt lat="30.563316000" lon="35.181914000">
  <ele>-49.850000</ele>
  <time>2009-12-02T05:58:58Z</time>
</trkpt>
<trkpt lat="30.563317000" lon="35.181754000">
  <ele>-49.370000</ele>
  <time>2009-12-02T05:59:15Z</time>
</trkpt>
<trkpt lat="30.563318000" lon="35.181740000">
  <ele>-47.930000</ele>
  <time>2009-12-02T05:59:43Z</time>
</trkpt>
<trkpt lat="30.563317000" lon="35.181738000">
  <ele>-46.970000</ele>
  <time>2009-12-02T06:00:15Z</time>
</trkpt>
<trkpt lat="30.563318000" lon="35.181740000">
  <ele>-44.080000</ele>
  <time>2009-12-02T06:01:50Z</time>
</trkpt>
<trkpt lat="30.563368000" lon="35.181740000">
  <ele>-42.160000</ele>
  <time>2009-12-02T06:03:04Z</time>
</trkpt>
<trkpt lat="30.563406000" lon="35.181733000">
  <ele>-39.280000</ele>
  <time>2009-12-02T06:04:56Z</time>
</trkpt>
<trkpt lat="30.563405000" lon="35.181732000">
  <ele>-36.390000</ele>
  <time>2009-12-02T06:06:46Z</time>
</trkpt>
<trkpt lat="30.563405000" lon="35.181732000">
  <ele>-35.910000</ele>
  <time>2009-12-02T06:06:59Z</time>
</trkpt>
<trkpt lat="30.563405000" lon="35.181732000">
  <ele>-35.430000</ele>
  <time>2009-12-02T06:07:15Z</time>
</trkpt>
<trkpt lat="30.563389000" lon="35.181749000">
  <ele>-35.910000</ele>
  <time>2009-12-02T06:07:23Z</time>
</trkpt>
<trkpt lat="30.563339000" lon="35.181783000">
  <ele>-35.430000</ele>
  <time>2009-12-02T06:07:29Z</time>
</trkpt>
<trkpt lat="30.563275000" lon="35.181846000">
  <ele>-34.950000</ele>
  <time>2009-12-02T06:07:39Z</time>
</trkpt>
<trkpt lat="30.563324000" lon="35.181854000">
  <ele>-35.430000</ele>
  <time>2009-12-02T06:07:44Z</time>
</trkpt>
<trkpt lat="30.563358000" lon="35.181759000">
  <ele>-34.950000</ele>
  <time>2009-12-02T06:08:00Z</time>
</trkpt>
<trkpt lat="30.563358000" lon="35.181749000">
  <ele>-34.470000</ele>
  <time>2009-12-02T06:08:19Z</time>
</trkpt>
<trkpt lat="30.563355000" lon="35.181748000">
  <ele>-31.110000</ele>
  <time>2009-12-02T06:11:47Z</time>
</trkpt>
<trkpt lat="30.563352000" lon="35.181747000">
  <ele>-29.660000</ele>
  <time>2009-12-02T06:13:19Z</time>
</trkpt>
<trkpt lat="30.563348000" lon="35.181742000">
  <ele>-29.180000</ele>
  <time>2009-12-02T06:13:51Z</time>
</trkpt>
<trkpt lat="30.563339000" lon="35.181745000">
  <ele>-26.300000</ele>
  <time>2009-12-02T06:17:17Z</time>
</trkpt>
<trkpt lat="30.563336000" lon="35.181746000">
  <ele>-23.410000</ele>
  <time>2009-12-02T06:21:07Z</time>
</trkpt>
<trkpt lat="30.563334000" lon="35.181743000">
  <ele>-20.050000</ele>
  <time>2009-12-02T06:24:38Z</time>
</trkpt>
<trkpt lat="30.563325000" lon="35.181737000">
  <ele>-20.050000</ele>
  <time>2009-12-02T06:25:14Z</time>
</trkpt>
<trkpt lat="30.563236000" lon="35.181439000">
  <ele>-19.570000</ele>
  <time>2009-12-02T06:25:31Z</time>
</trkpt>
<trkpt lat="30.563136000" lon="35.180851000">
  <ele>-17.650000</ele>
  <time>2009-12-02T06:25:55Z</time>
</trkpt>
<trkpt lat="30.563061000" lon="35.180789000">
  <ele>-17.650000</ele>
  <time>2009-12-02T06:25:59Z</time>
</trkpt>
<trkpt lat="30.562166000" lon="35.180819000">
  <ele>-16.210000</ele>
  <time>2009-12-02T06:26:26Z</time>
</trkpt>
<trkpt lat="30.561117000" lon="35.180821000">
  <ele>-15.240000</ele>
  <time>2009-12-02T06:26:52Z</time>
</trkpt>
<trkpt lat="30.561008000" lon="35.180772000">
  <ele>-15.240000</ele>
  <time>2009-12-02T06:26:55Z</time>
</trkpt>
<trkpt lat="30.560972000" lon="35.180274000">
  <ele>-13.320000</ele>
  <time>2009-12-02T06:27:06Z</time>
</trkpt>
<trkpt lat="30.560958000" lon="35.179041000">
  <ele>-11.880000</ele>
  <time>2009-12-02T06:27:32Z</time>
</trkpt>
<trkpt lat="30.560960000" lon="35.177800000">
  <ele>-9.480000</ele>
  <time>2009-12-02T06:27:56Z</time>
</trkpt>
<trkpt lat="30.560964000" lon="35.177706000">
  <ele>-9.480000</ele>
  <time>2009-12-02T06:27:58Z</time>
</trkpt>
<trkpt lat="30.560945000" lon="35.176609000">
  <ele>-6.590000</ele>
  <time>2009-12-02T06:28:21Z</time>
</trkpt>
<trkpt lat="30.560969000" lon="35.175676000">
  <ele>-6.110000</ele>
  <time>2009-12-02T06:28:41Z</time>
</trkpt>
<trkpt lat="30.560938000" lon="35.174509000">
  <ele>-4.190000</ele>
  <time>2009-12-02T06:29:05Z</time>
</trkpt>
<trkpt lat="30.560886000" lon="35.174395000">
  <ele>-4.190000</ele>
  <time>2009-12-02T06:29:18Z</time>
</trkpt>
<trkpt lat="30.560879000" lon="35.174390000">
  <ele>-3.710000</ele>
  <time>2009-12-02T06:29:19Z</time>
</trkpt>
<trkpt lat="30.560936000" lon="35.174150000">
  <ele>-2.750000</ele>
  <time>2009-12-02T06:29:35Z</time>
</trkpt>
<trkpt lat="30.560939000" lon="35.173661000">
  <ele>-0.340000</ele>
  <time>2009-12-02T06:29:54Z</time>
</trkpt>
<trkpt lat="30.560870000" lon="35.173099000">
  <ele>0.620000</ele>
  <time>2009-12-02T06:30:13Z</time>
</trkpt>
<trkpt lat="30.560739000" lon="35.172320000">
  <ele>2.540000</ele>
  <time>2009-12-02T06:30:37Z</time>
</trkpt>
<trkpt lat="30.560592000" lon="35.171442000">
  <ele>4.460000</ele>
  <time>2009-12-02T06:31:03Z</time>
</trkpt>
<trkpt lat="30.560526000" lon="35.170444000">
  <ele>6.870000</ele>
  <time>2009-12-02T06:31:30Z</time>
</trkpt>
<trkpt lat="30.560661000" lon="35.169590000">
  <ele>9.270000</ele>
  <time>2009-12-02T06:31:52Z</time>
</trkpt>
<trkpt lat="30.560834000" lon="35.169169000">
  <ele>10.230000</ele>
  <time>2009-12-02T06:32:03Z</time>
</trkpt>
<trkpt lat="30.560692000" lon="35.169036000">
  <ele>9.750000</ele>
  <time>2009-12-02T06:32:09Z</time>
</trkpt>
<trkpt lat="30.560302000" lon="35.168781000">
  <ele>12.630000</ele>
  <time>2009-12-02T06:32:22Z</time>
</trkpt>
<trkpt lat="30.559906000" lon="35.168358000">
  <ele>14.560000</ele>
  <time>2009-12-02T06:32:37Z</time>
</trkpt>
<trkpt lat="30.559462000" lon="35.167665000">
  <ele>16.480000</ele>
  <time>2009-12-02T06:32:57Z</time>
</trkpt>
<trkpt lat="30.559228000" lon="35.167181000">
  <ele>17.440000</ele>
  <time>2009-12-02T06:33:09Z</time>
</trkpt>
<trkpt lat="30.558835000" lon="35.166583000">
  <ele>19.840000</ele>
  <time>2009-12-02T06:33:26Z</time>
</trkpt>
<trkpt lat="30.558721000" lon="35.165991000">
  <ele>22.730000</ele>
  <time>2009-12-02T06:33:41Z</time>
</trkpt>
<trkpt lat="30.558655000" lon="35.165419000">
  <ele>24.650000</ele>
  <time>2009-12-02T06:33:57Z</time>
</trkpt>
<trkpt lat="30.558474000" lon="35.164830000">
  <ele>25.610000</ele>
  <time>2009-12-02T06:34:13Z</time>
</trkpt>
<trkpt lat="30.558174000" lon="35.164420000">
  <ele>26.090000</ele>
  <time>2009-12-02T06:34:28Z</time>
</trkpt>
<trkpt lat="30.557858000" lon="35.163946000">
  <ele>27.530000</ele>
  <time>2009-12-02T06:34:43Z</time>
</trkpt>
<trkpt lat="30.558029000" lon="35.163226000">
  <ele>28.500000</ele>
  <time>2009-12-02T06:35:01Z</time>
</trkpt>
<trkpt lat="30.558192000" lon="35.162532000">
  <ele>30.420000</ele>
  <time>2009-12-02T06:35:18Z</time>
</trkpt>
<trkpt lat="30.558337000" lon="35.161746000">
  <ele>31.380000</ele>
  <time>2009-12-02T06:35:37Z</time>
</trkpt>
<trkpt lat="30.558454000" lon="35.160818000">
  <ele>32.820000</ele>
  <time>2009-12-02T06:35:59Z</time>
</trkpt>
<trkpt lat="30.558399000" lon="35.160567000">
  <ele>32.820000</ele>
  <time>2009-12-02T06:36:05Z</time>
</trkpt>
<trkpt lat="30.558379000" lon="35.160522000">
  <ele>32.820000</ele>
  <time>2009-12-02T06:36:06Z</time>
</trkpt>
<trkpt lat="30.558131000" lon="35.159863000">
  <ele>34.740000</ele>
  <time>2009-12-02T06:36:22Z</time>
</trkpt>
<trkpt lat="30.557884000" lon="35.159654000">
  <ele>35.230000</ele>
  <time>2009-12-02T06:36:32Z</time>
</trkpt>
<trkpt lat="30.557331000" lon="35.159579000">
  <ele>34.740000</ele>
  <time>2009-12-02T06:36:46Z</time>
</trkpt>
<trkpt lat="30.556952000" lon="35.159691000">
  <ele>34.740000</ele>
  <time>2009-12-02T06:36:56Z</time>
</trkpt>
<trkpt lat="30.556911000" lon="35.159699000">
  <ele>34.740000</ele>
  <time>2009-12-02T06:36:57Z</time>
</trkpt>
<trkpt lat="30.556874000" lon="35.159700000">
  <ele>34.260000</ele>
  <time>2009-12-02T06:36:58Z</time>
</trkpt>
<trkpt lat="30.556838000" lon="35.159700000">
  <ele>34.740000</ele>
  <time>2009-12-02T06:36:59Z</time>
</trkpt>
<trkpt lat="30.556809000" lon="35.159696000">
  <ele>34.740000</ele>
  <time>2009-12-02T06:37:00Z</time>
</trkpt>
<trkpt lat="30.556733000" lon="35.159658000">
  <ele>34.740000</ele>
  <time>2009-12-02T06:37:03Z</time>
</trkpt>
<trkpt lat="30.556752000" lon="35.159083000">
  <ele>36.190000</ele>
  <time>2009-12-02T06:37:17Z</time>
</trkpt>
<trkpt lat="30.556781000" lon="35.158086000">
  <ele>39.070000</ele>
  <time>2009-12-02T06:37:40Z</time>
</trkpt>
<trkpt lat="30.556879000" lon="35.157127000">
  <ele>41.950000</ele>
  <time>2009-12-02T06:38:02Z</time>
</trkpt>
<trkpt lat="30.556917000" lon="35.156024000">
  <ele>44.360000</ele>
  <time>2009-12-02T06:38:27Z</time>
</trkpt>
<trkpt lat="30.556819000" lon="35.155332000">
  <ele>46.280000</ele>
  <time>2009-12-02T06:38:46Z</time>
</trkpt>
<trkpt lat="30.556739000" lon="35.155145000">
  <ele>48.680000</ele>
  <time>2009-12-02T06:38:53Z</time>
</trkpt>
<trkpt lat="30.556825000" lon="35.154970000">
  <ele>50.130000</ele>
  <time>2009-12-02T06:39:03Z</time>
</trkpt>
<trkpt lat="30.556848000" lon="35.154920000">
  <ele>50.130000</ele>
  <time>2009-12-02T06:39:07Z</time>
</trkpt>
<trkpt lat="30.556803000" lon="35.154824000">
  <ele>48.680000</ele>
  <time>2009-12-02T06:39:12Z</time>
</trkpt>
<trkpt lat="30.556734000" lon="35.154601000">
  <ele>45.800000</ele>
  <time>2009-12-02T06:39:19Z</time>
</trkpt>
<trkpt lat="30.556788000" lon="35.154507000">
  <ele>46.280000</ele>
  <time>2009-12-02T06:39:24Z</time>
</trkpt>
<trkpt lat="30.556829000" lon="35.154446000">
  <ele>46.280000</ele>
  <time>2009-12-02T06:39:27Z</time>
</trkpt>
<trkpt lat="30.556806000" lon="35.154275000">
  <ele>48.200000</ele>
  <time>2009-12-02T06:39:33Z</time>
</trkpt>
<trkpt lat="30.556785000" lon="35.154113000">
  <ele>49.160000</ele>
  <time>2009-12-02T06:39:40Z</time>
</trkpt>
<trkpt lat="30.556795000" lon="35.153979000">
  <ele>49.650000</ele>
  <time>2009-12-02T06:39:46Z</time>
</trkpt>
<trkpt lat="30.556786000" lon="35.153908000">
  <ele>50.130000</ele>
  <time>2009-12-02T06:39:49Z</time>
</trkpt>
<trkpt lat="30.556761000" lon="35.153789000">
  <ele>50.610000</ele>
  <time>2009-12-02T06:39:53Z</time>
</trkpt>
<trkpt lat="30.556767000" lon="35.153177000">
  <ele>52.050000</ele>
  <time>2009-12-02T06:40:10Z</time>
</trkpt>
<trkpt lat="30.556744000" lon="35.152662000">
  <ele>52.530000</ele>
  <time>2009-12-02T06:40:23Z</time>
</trkpt>
<trkpt lat="30.556705000" lon="35.152343000">
  <ele>54.450000</ele>
  <time>2009-12-02T06:40:33Z</time>
</trkpt>
<trkpt lat="30.556677000" lon="35.152261000">
  <ele>54.930000</ele>
  <time>2009-12-02T06:40:36Z</time>
</trkpt>
<trkpt lat="30.556669000" lon="35.151761000">
  <ele>55.410000</ele>
  <time>2009-12-02T06:40:50Z</time>
</trkpt>
<trkpt lat="30.556705000" lon="35.151671000">
  <ele>56.370000</ele>
  <time>2009-12-02T06:40:53Z</time>
</trkpt>
<trkpt lat="30.556683000" lon="35.151483000">
  <ele>56.860000</ele>
  <time>2009-12-02T06:41:02Z</time>
</trkpt>
<trkpt lat="30.556588000" lon="35.151196000">
  <ele>57.340000</ele>
  <time>2009-12-02T06:41:14Z</time>
</trkpt>
<trkpt lat="30.556637000" lon="35.150795000">
  <ele>58.300000</ele>
  <time>2009-12-02T06:41:29Z</time>
</trkpt>
<trkpt lat="30.556637000" lon="35.150771000">
  <ele>58.300000</ele>
  <time>2009-12-02T06:41:30Z</time>
</trkpt>
<trkpt lat="30.556564000" lon="35.150634000">
  <ele>58.780000</ele>
  <time>2009-12-02T06:41:37Z</time>
</trkpt>
<trkpt lat="30.556542000" lon="35.150497000">
  <ele>58.780000</ele>
  <time>2009-12-02T06:41:42Z</time>
</trkpt>
<trkpt lat="30.556555000" lon="35.150137000">
  <ele>60.220000</ele>
  <time>2009-12-02T06:41:55Z</time>
</trkpt>
<trkpt lat="30.556522000" lon="35.150007000">
  <ele>60.700000</ele>
  <time>2009-12-02T06:42:01Z</time>
</trkpt>
<trkpt lat="30.556523000" lon="35.149935000">
  <ele>60.700000</ele>
  <time>2009-12-02T06:42:04Z</time>
</trkpt>
<trkpt lat="30.556503000" lon="35.149853000">
  <ele>60.700000</ele>
  <time>2009-12-02T06:42:08Z</time>
</trkpt>
<trkpt lat="30.556453000" lon="35.149777000">
  <ele>61.660000</ele>
  <time>2009-12-02T06:42:12Z</time>
</trkpt>
<trkpt lat="30.556444000" lon="35.149704000">
  <ele>61.180000</ele>
  <time>2009-12-02T06:42:15Z</time>
</trkpt>
<trkpt lat="30.556527000" lon="35.149397000">
  <ele>62.620000</ele>
  <time>2009-12-02T06:42:25Z</time>
</trkpt>
<trkpt lat="30.556483000" lon="35.149042000">
  <ele>63.100000</ele>
  <time>2009-12-02T06:42:37Z</time>
</trkpt>
<trkpt lat="30.556582000" lon="35.148619000">
  <ele>64.550000</ele>
  <time>2009-12-02T06:42:50Z</time>
</trkpt>
<trkpt lat="30.556589000" lon="35.148584000">
  <ele>64.070000</ele>
  <time>2009-12-02T06:42:51Z</time>
</trkpt>
<trkpt lat="30.556627000" lon="35.148352000">
  <ele>65.030000</ele>
  <time>2009-12-02T06:43:02Z</time>
</trkpt>
<trkpt lat="30.556636000" lon="35.148285000">
  <ele>65.510000</ele>
  <time>2009-12-02T06:43:06Z</time>
</trkpt>
<trkpt lat="30.556662000" lon="35.148239000">
  <ele>65.030000</ele>
  <time>2009-12-02T06:43:08Z</time>
</trkpt>
<trkpt lat="30.556596000" lon="35.147970000">
  <ele>65.510000</ele>
  <time>2009-12-02T06:43:19Z</time>
</trkpt>
<trkpt lat="30.556472000" lon="35.147542000">
  <ele>67.430000</ele>
  <time>2009-12-02T06:43:34Z</time>
</trkpt>
<trkpt lat="30.556312000" lon="35.146923000">
  <ele>68.870000</ele>
  <time>2009-12-02T06:43:52Z</time>
</trkpt>
<trkpt lat="30.556194000" lon="35.146589000">
  <ele>69.350000</ele>
  <time>2009-12-02T06:44:03Z</time>
</trkpt>
<trkpt lat="30.556052000" lon="35.146065000">
  <ele>70.790000</ele>
  <time>2009-12-02T06:44:19Z</time>
</trkpt>
<trkpt lat="30.555975000" lon="35.145726000">
  <ele>72.240000</ele>
  <time>2009-12-02T06:44:31Z</time>
</trkpt>
<trkpt lat="30.555997000" lon="35.145284000">
  <ele>73.200000</ele>
  <time>2009-12-02T06:44:45Z</time>
</trkpt>
<trkpt lat="30.555964000" lon="35.144731000">
  <ele>74.160000</ele>
  <time>2009-12-02T06:45:01Z</time>
</trkpt>
<trkpt lat="30.555826000" lon="35.144355000">
  <ele>75.120000</ele>
  <time>2009-12-02T06:45:13Z</time>
</trkpt>
<trkpt lat="30.555534000" lon="35.143992000">
  <ele>76.080000</ele>
  <time>2009-12-02T06:45:26Z</time>
</trkpt>
<trkpt lat="30.555281000" lon="35.143546000">
  <ele>78.000000</ele>
  <time>2009-12-02T06:45:40Z</time>
</trkpt>
<trkpt lat="30.555174000" lon="35.143194000">
  <ele>78.480000</ele>
  <time>2009-12-02T06:45:50Z</time>
</trkpt>
<trkpt lat="30.555004000" lon="35.142791000">
  <ele>79.450000</ele>
  <time>2009-12-02T06:46:01Z</time>
</trkpt>
<trkpt lat="30.554775000" lon="35.142288000">
  <ele>80.890000</ele>
  <time>2009-12-02T06:46:15Z</time>
</trkpt>
<trkpt lat="30.554591000" lon="35.141984000">
  <ele>82.330000</ele>
  <time>2009-12-02T06:46:25Z</time>
</trkpt>
<trkpt lat="30.554323000" lon="35.141566000">
  <ele>83.290000</ele>
  <time>2009-12-02T06:46:38Z</time>
</trkpt>
<trkpt lat="30.554261000" lon="35.141371000">
  <ele>83.770000</ele>
  <time>2009-12-02T06:46:43Z</time>
</trkpt>
<trkpt lat="30.554103000" lon="35.141241000">
  <ele>83.770000</ele>
  <time>2009-12-02T06:46:49Z</time>
</trkpt>
<trkpt lat="30.554054000" lon="35.141221000">
  <ele>83.770000</ele>
  <time>2009-12-02T06:46:51Z</time>
</trkpt>
<trkpt lat="30.553890000" lon="35.140795000">
  <ele>85.690000</ele>
  <time>2009-12-02T06:47:03Z</time>
</trkpt>
<trkpt lat="30.553692000" lon="35.140214000">
  <ele>87.140000</ele>
  <time>2009-12-02T06:47:18Z</time>
</trkpt>
<trkpt lat="30.553543000" lon="35.139781000">
  <ele>89.060000</ele>
  <time>2009-12-02T06:47:30Z</time>
</trkpt>
<trkpt lat="30.553439000" lon="35.139460000">
  <ele>89.060000</ele>
  <time>2009-12-02T06:47:39Z</time>
</trkpt>
<trkpt lat="30.553318000" lon="35.139048000">
  <ele>90.020000</ele>
  <time>2009-12-02T06:47:52Z</time>
</trkpt>
<trkpt lat="30.553219000" lon="35.138702000">
  <ele>91.940000</ele>
  <time>2009-12-02T06:48:03Z</time>
</trkpt>
<trkpt lat="30.553221000" lon="35.138604000">
  <ele>91.940000</ele>
  <time>2009-12-02T06:48:06Z</time>
</trkpt>
<trkpt lat="30.552902000" lon="35.138138000">
  <ele>92.900000</ele>
  <time>2009-12-02T06:48:22Z</time>
</trkpt>
<trkpt lat="30.552860000" lon="35.138031000">
  <ele>93.390000</ele>
  <time>2009-12-02T06:48:25Z</time>
</trkpt>
<trkpt lat="30.552534000" lon="35.137566000">
  <ele>95.310000</ele>
  <time>2009-12-02T06:48:40Z</time>
</trkpt>
<trkpt lat="30.552360000" lon="35.137108000">
  <ele>96.750000</ele>
  <time>2009-12-02T06:48:52Z</time>
</trkpt>
<trkpt lat="30.552239000" lon="35.136655000">
  <ele>98.190000</ele>
  <time>2009-12-02T06:49:04Z</time>
</trkpt>
<trkpt lat="30.552087000" lon="35.136311000">
  <ele>99.630000</ele>
  <time>2009-12-02T06:49:15Z</time>
</trkpt>
<trkpt lat="30.551885000" lon="35.135788000">
  <ele>101.560000</ele>
  <time>2009-12-02T06:49:30Z</time>
</trkpt>
<trkpt lat="30.551575000" lon="35.135331000">
  <ele>103.480000</ele>
  <time>2009-12-02T06:49:46Z</time>
</trkpt>
<trkpt lat="30.551384000" lon="35.135142000">
  <ele>104.440000</ele>
  <time>2009-12-02T06:49:56Z</time>
</trkpt>
<trkpt lat="30.551019000" lon="35.134740000">
  <ele>106.840000</ele>
  <time>2009-12-02T06:50:14Z</time>
</trkpt>
<trkpt lat="30.550864000" lon="35.134623000">
  <ele>107.320000</ele>
  <time>2009-12-02T06:50:21Z</time>
</trkpt>
<trkpt lat="30.550812000" lon="35.134508000">
  <ele>107.810000</ele>
  <time>2009-12-02T06:50:26Z</time>
</trkpt>
<trkpt lat="30.550430000" lon="35.134228000">
  <ele>109.730000</ele>
  <time>2009-12-02T06:50:42Z</time>
</trkpt>
<trkpt lat="30.550220000" lon="35.134033000">
  <ele>111.170000</ele>
  <time>2009-12-02T06:50:52Z</time>
</trkpt>
<trkpt lat="30.550029000" lon="35.133996000">
  <ele>111.170000</ele>
  <time>2009-12-02T06:51:02Z</time>
</trkpt>
<trkpt lat="30.549932000" lon="35.133942000">
  <ele>112.130000</ele>
  <time>2009-12-02T06:51:06Z</time>
</trkpt>
<trkpt lat="30.549618000" lon="35.133798000">
  <ele>114.050000</ele>
  <time>2009-12-02T06:51:20Z</time>
</trkpt>
<trkpt lat="30.549304000" lon="35.133602000">
  <ele>117.420000</ele>
  <time>2009-12-02T06:51:36Z</time>
</trkpt>
<trkpt lat="30.548964000" lon="35.133403000">
  <ele>118.380000</ele>
  <time>2009-12-02T06:51:54Z</time>
</trkpt>
<trkpt lat="30.548739000" lon="35.133369000">
  <ele>119.820000</ele>
  <time>2009-12-02T06:52:04Z</time>
</trkpt>
<trkpt lat="30.548722000" lon="35.133362000">
  <ele>120.300000</ele>
  <time>2009-12-02T06:52:26Z</time>
</trkpt>
<trkpt lat="30.548697000" lon="35.133325000">
  <ele>119.820000</ele>
  <time>2009-12-02T06:52:30Z</time>
</trkpt>
<trkpt lat="30.548340000" lon="35.133174000">
  <ele>120.780000</ele>
  <time>2009-12-02T06:52:42Z</time>
</trkpt>
<trkpt lat="30.548236000" lon="35.133123000">
  <ele>121.260000</ele>
  <time>2009-12-02T06:52:46Z</time>
</trkpt>
<trkpt lat="30.548093000" lon="35.133112000">
  <ele>121.740000</ele>
  <time>2009-12-02T06:52:51Z</time>
</trkpt>
<trkpt lat="30.547711000" lon="35.132852000">
  <ele>123.670000</ele>
  <time>2009-12-02T06:53:07Z</time>
</trkpt>
<trkpt lat="30.547381000" lon="35.132527000">
  <ele>126.070000</ele>
  <time>2009-12-02T06:53:23Z</time>
</trkpt>
<trkpt lat="30.547250000" lon="35.132481000">
  <ele>127.030000</ele>
  <time>2009-12-02T06:53:29Z</time>
</trkpt>
<trkpt lat="30.547107000" lon="35.132381000">
  <ele>128.950000</ele>
  <time>2009-12-02T06:53:35Z</time>
</trkpt>
<trkpt lat="30.546586000" lon="35.131960000">
  <ele>127.510000</ele>
  <time>2009-12-02T06:53:54Z</time>
</trkpt>
<trkpt lat="30.545926000" lon="35.131652000">
  <ele>125.590000</ele>
  <time>2009-12-02T06:54:10Z</time>
</trkpt>
<trkpt lat="30.545654000" lon="35.131637000">
  <ele>125.110000</ele>
  <time>2009-12-02T06:54:16Z</time>
</trkpt>
<trkpt lat="30.545365000" lon="35.131687000">
  <ele>124.150000</ele>
  <time>2009-12-02T06:54:24Z</time>
</trkpt>
<trkpt lat="30.545311000" lon="35.131779000">
  <ele>123.190000</ele>
  <time>2009-12-02T06:54:27Z</time>
</trkpt>
<trkpt lat="30.545277000" lon="35.131805000">
  <ele>122.710000</ele>
  <time>2009-12-02T06:54:28Z</time>
</trkpt>
<trkpt lat="30.545109000" lon="35.131890000">
  <ele>121.740000</ele>
  <time>2009-12-02T06:54:32Z</time>
</trkpt>
<trkpt lat="30.544739000" lon="35.132008000">
  <ele>121.260000</ele>
  <time>2009-12-02T06:54:42Z</time>
</trkpt>
<trkpt lat="30.544608000" lon="35.131984000">
  <ele>120.780000</ele>
  <time>2009-12-02T06:54:45Z</time>
</trkpt>
<trkpt lat="30.544441000" lon="35.131914000">
  <ele>119.820000</ele>
  <time>2009-12-02T06:54:49Z</time>
</trkpt>
<trkpt lat="30.544282000" lon="35.131810000">
  <ele>119.340000</ele>
  <time>2009-12-02T06:54:53Z</time>
</trkpt>
<trkpt lat="30.544000000" lon="35.131452000">
  <ele>120.300000</ele>
  <time>2009-12-02T06:55:06Z</time>
</trkpt>
<trkpt lat="30.543870000" lon="35.131024000">
  <ele>120.300000</ele>
  <time>2009-12-02T06:55:20Z</time>
</trkpt>
<trkpt lat="30.543843000" lon="35.130777000">
  <ele>120.780000</ele>
  <time>2009-12-02T06:55:31Z</time>
</trkpt>
<trkpt lat="30.543833000" lon="35.130691000">
  <ele>121.260000</ele>
  <time>2009-12-02T06:55:45Z</time>
</trkpt>
<trkpt lat="30.543839000" lon="35.130689000">
  <ele>122.220000</ele>
  <time>2009-12-02T06:56:40Z</time>
</trkpt>
<trkpt lat="30.543852000" lon="35.130741000">
  <ele>122.220000</ele>
  <time>2009-12-02T06:59:59Z</time>
</trkpt>
<trkpt lat="30.543852000" lon="35.130741000">
  <ele>122.220000</ele>
  <time>2009-12-02T07:00:02Z</time>
</trkpt>
<trkpt lat="30.543895000" lon="35.131073000">
  <ele>122.710000</ele>
  <time>2009-12-02T07:00:15Z</time>
</trkpt>
<trkpt lat="30.543963000" lon="35.131256000">
  <ele>122.220000</ele>
  <time>2009-12-02T07:00:23Z</time>
</trkpt>
<trkpt lat="30.543954000" lon="35.131284000">
  <ele>121.740000</ele>
  <time>2009-12-02T07:00:42Z</time>
</trkpt>
<trkpt lat="30.543949000" lon="35.131273000">
  <ele>123.190000</ele>
  <time>2009-12-02T07:02:22Z</time>
</trkpt>
<trkpt lat="30.543941000" lon="35.131253000">
  <ele>124.150000</ele>
  <time>2009-12-02T07:02:27Z</time>
</trkpt>
<trkpt lat="30.543927000" lon="35.131217000">
  <ele>122.710000</ele>
  <time>2009-12-02T07:02:30Z</time>
</trkpt>
<trkpt lat="30.543882000" lon="35.130863000">
  <ele>122.710000</ele>
  <time>2009-12-02T07:02:45Z</time>
</trkpt>
<trkpt lat="30.543848000" lon="35.130764000">
  <ele>123.190000</ele>
  <time>2009-12-02T07:02:49Z</time>
</trkpt>
<trkpt lat="30.543708000" lon="35.130355000">
  <ele>124.150000</ele>
  <time>2009-12-02T07:03:02Z</time>
</trkpt>
<trkpt lat="30.543700000" lon="35.130230000">
  <ele>124.150000</ele>
  <time>2009-12-02T07:03:05Z</time>
</trkpt>
<trkpt lat="30.543550000" lon="35.130047000">
  <ele>123.670000</ele>
  <time>2009-12-02T07:03:12Z</time>
</trkpt>
<trkpt lat="30.543244000" lon="35.129675000">
  <ele>124.150000</ele>
  <time>2009-12-02T07:03:27Z</time>
</trkpt>
<trkpt lat="30.542852000" lon="35.129381000">
  <ele>125.110000</ele>
  <time>2009-12-02T07:03:42Z</time>
</trkpt>
<trkpt lat="30.542788000" lon="35.129352000">
  <ele>124.150000</ele>
  <time>2009-12-02T07:03:44Z</time>
</trkpt>
<trkpt lat="30.542278000" lon="35.129428000">
  <ele>124.630000</ele>
  <time>2009-12-02T07:03:59Z</time>
</trkpt>
<trkpt lat="30.541889000" lon="35.129559000">
  <ele>125.590000</ele>
  <time>2009-12-02T07:04:11Z</time>
</trkpt>
<trkpt lat="30.541604000" lon="35.129805000">
  <ele>126.070000</ele>
  <time>2009-12-02T07:04:22Z</time>
</trkpt>
<trkpt lat="30.541325000" lon="35.129914000">
  <ele>127.510000</ele>
  <time>2009-12-02T07:04:35Z</time>
</trkpt>
<trkpt lat="30.541272000" lon="35.129939000">
  <ele>127.030000</ele>
  <time>2009-12-02T07:04:40Z</time>
</trkpt>
<trkpt lat="30.541266000" lon="35.130000000">
  <ele>127.030000</ele>
  <time>2009-12-02T07:04:46Z</time>
</trkpt>
<trkpt lat="30.541222000" lon="35.130073000">
  <ele>127.030000</ele>
  <time>2009-12-02T07:04:51Z</time>
</trkpt>
<trkpt lat="30.541045000" lon="35.130253000">
  <ele>126.550000</ele>
  <time>2009-12-02T07:04:59Z</time>
</trkpt>
<trkpt lat="30.540740000" lon="35.130376000">
  <ele>127.030000</ele>
  <time>2009-12-02T07:05:11Z</time>
</trkpt>
<trkpt lat="30.540447000" lon="35.130463000">
  <ele>127.030000</ele>
  <time>2009-12-02T07:05:22Z</time>
</trkpt>
<trkpt lat="30.540242000" lon="35.130463000">
  <ele>127.510000</ele>
  <time>2009-12-02T07:05:29Z</time>
</trkpt>
<trkpt lat="30.539920000" lon="35.130500000">
  <ele>128.470000</ele>
  <time>2009-12-02T07:05:40Z</time>
</trkpt>
<trkpt lat="30.539605000" lon="35.130459000">
  <ele>128.470000</ele>
  <time>2009-12-02T07:05:51Z</time>
</trkpt>
<trkpt lat="30.539352000" lon="35.130290000">
  <ele>130.400000</ele>
  <time>2009-12-02T07:06:02Z</time>
</trkpt>
<trkpt lat="30.539314000" lon="35.130179000">
  <ele>129.430000</ele>
  <time>2009-12-02T07:06:06Z</time>
</trkpt>
<trkpt lat="30.539258000" lon="35.129957000">
  <ele>130.880000</ele>
  <time>2009-12-02T07:06:14Z</time>
</trkpt>
<trkpt lat="30.539229000" lon="35.129547000">
  <ele>131.840000</ele>
  <time>2009-12-02T07:06:27Z</time>
</trkpt>
<trkpt lat="30.539076000" lon="35.129087000">
  <ele>133.760000</ele>
  <time>2009-12-02T07:06:40Z</time>
</trkpt>
<trkpt lat="30.538825000" lon="35.128765000">
  <ele>133.760000</ele>
  <time>2009-12-02T07:06:54Z</time>
</trkpt>
<trkpt lat="30.538477000" lon="35.128655000">
  <ele>133.760000</ele>
  <time>2009-12-02T07:07:08Z</time>
</trkpt>
<trkpt lat="30.538412000" lon="35.128624000">
  <ele>133.760000</ele>
  <time>2009-12-02T07:07:11Z</time>
</trkpt>
<trkpt lat="30.538313000" lon="35.128644000">
  <ele>133.280000</ele>
  <time>2009-12-02T07:07:15Z</time>
</trkpt>
<trkpt lat="30.538201000" lon="35.128591000">
  <ele>133.760000</ele>
  <time>2009-12-02T07:07:20Z</time>
</trkpt>
<trkpt lat="30.538036000" lon="35.128618000">
  <ele>134.240000</ele>
  <time>2009-12-02T07:07:27Z</time>
</trkpt>
<trkpt lat="30.537929000" lon="35.128620000">
  <ele>134.720000</ele>
  <time>2009-12-02T07:07:38Z</time>
</trkpt>
<trkpt lat="30.537806000" lon="35.128565000">
  <ele>135.680000</ele>
  <time>2009-12-02T07:07:43Z</time>
</trkpt>
<trkpt lat="30.537318000" lon="35.128662000">
  <ele>136.640000</ele>
  <time>2009-12-02T07:08:00Z</time>
</trkpt>
<trkpt lat="30.537049000" lon="35.128450000">
  <ele>137.610000</ele>
  <time>2009-12-02T07:08:11Z</time>
</trkpt>
<trkpt lat="30.536819000" lon="35.128088000">
  <ele>138.090000</ele>
  <time>2009-12-02T07:08:25Z</time>
</trkpt>
<trkpt lat="30.536810000" lon="35.128064000">
  <ele>138.570000</ele>
  <time>2009-12-02T07:08:57Z</time>
</trkpt>
<trkpt lat="30.536816000" lon="35.128062000">
  <ele>155.390000</ele>
  <time>2009-12-02T07:14:08Z</time>
</trkpt>
<trkpt lat="30.536816000" lon="35.128062000">
  <ele>101.080000</ele>
  <time>2009-12-02T07:14:09Z</time>
</trkpt>
<trkpt lat="30.534078000" lon="35.128140000">
  <ele>100.600000</ele>
  <time>2009-12-02T07:14:13Z</time>
</trkpt>
<trkpt lat="30.534091000" lon="35.128169000">
  <ele>100.600000</ele>
  <time>2009-12-02T07:14:26Z</time>
</trkpt>
<trkpt lat="30.533746000" lon="35.128039000">
  <ele>101.560000</ele>
  <time>2009-12-02T07:14:37Z</time>
</trkpt>
<trkpt lat="30.533359000" lon="35.127905000">
  <ele>102.040000</ele>
  <time>2009-12-02T07:14:50Z</time>
</trkpt>
<trkpt lat="30.533142000" lon="35.127850000">
  <ele>102.040000</ele>
  <time>2009-12-02T07:15:05Z</time>
</trkpt>
<trkpt lat="30.533083000" lon="35.127841000">
  <ele>105.400000</ele>
  <time>2009-12-02T07:15:07Z</time>
</trkpt>
<trkpt lat="30.533031000" lon="35.127831000">
  <ele>108.770000</ele>
  <time>2009-12-02T07:15:09Z</time>
</trkpt>
<trkpt lat="30.532976000" lon="35.127814000">
  <ele>113.090000</ele>
  <time>2009-12-02T07:15:12Z</time>
</trkpt>
<trkpt lat="30.532931000" lon="35.127798000">
  <ele>116.460000</ele>
  <time>2009-12-02T07:15:15Z</time>
</trkpt>
<trkpt lat="30.532853000" lon="35.127781000">
  <ele>120.300000</ele>
  <time>2009-12-02T07:15:18Z</time>
</trkpt>
<trkpt lat="30.532760000" lon="35.127764000">
  <ele>123.670000</ele>
  <time>2009-12-02T07:15:21Z</time>
</trkpt>
<trkpt lat="30.532616000" lon="35.127728000">
  <ele>127.030000</ele>
  <time>2009-12-02T07:15:25Z</time>
</trkpt>
<trkpt lat="30.532461000" lon="35.127706000">
  <ele>130.400000</ele>
  <time>2009-12-02T07:15:29Z</time>
</trkpt>
<trkpt lat="30.532420000" lon="35.127701000">
  <ele>130.880000</ele>
  <time>2009-12-02T07:15:30Z</time>
</trkpt>
<trkpt lat="30.532296000" lon="35.127666000">
  <ele>132.800000</ele>
  <time>2009-12-02T07:15:33Z</time>
</trkpt>
<trkpt lat="30.532074000" lon="35.127591000">
  <ele>136.160000</ele>
  <time>2009-12-02T07:15:38Z</time>
</trkpt>
<trkpt lat="30.531930000" lon="35.127552000">
  <ele>138.090000</ele>
  <time>2009-12-02T07:15:41Z</time>
</trkpt>
<trkpt lat="30.531797000" lon="35.127500000">
  <ele>139.530000</ele>
  <time>2009-12-02T07:15:44Z</time>
</trkpt>
<trkpt lat="30.531513000" lon="35.127434000">
  <ele>142.410000</ele>
  <time>2009-12-02T07:15:50Z</time>
</trkpt>
<trkpt lat="30.531291000" lon="35.127311000">
  <ele>144.340000</ele>
  <time>2009-12-02T07:15:55Z</time>
</trkpt>
<trkpt lat="30.530912000" lon="35.127034000">
  <ele>146.740000</ele>
  <time>2009-12-02T07:16:04Z</time>
</trkpt>
<trkpt lat="30.530748000" lon="35.126894000">
  <ele>147.700000</ele>
  <time>2009-12-02T07:16:08Z</time>
</trkpt>
<trkpt lat="30.530619000" lon="35.126797000">
  <ele>148.180000</ele>
  <time>2009-12-02T07:16:11Z</time>
</trkpt>
<trkpt lat="30.530175000" lon="35.126490000">
  <ele>151.060000</ele>
  <time>2009-12-02T07:16:21Z</time>
</trkpt>
<trkpt lat="30.529409000" lon="35.126310000">
  <ele>152.990000</ele>
  <time>2009-12-02T07:16:36Z</time>
</trkpt>
<trkpt lat="30.529358000" lon="35.126292000">
  <ele>152.990000</ele>
  <time>2009-12-02T07:16:37Z</time>
</trkpt>
<trkpt lat="30.529204000" lon="35.126270000">
  <ele>153.950000</ele>
  <time>2009-12-02T07:16:40Z</time>
</trkpt>
<trkpt lat="30.528955000" lon="35.126231000">
  <ele>153.950000</ele>
  <time>2009-12-02T07:16:45Z</time>
</trkpt>
<trkpt lat="30.528701000" lon="35.126202000">
  <ele>154.910000</ele>
  <time>2009-12-02T07:16:50Z</time>
</trkpt>
<trkpt lat="30.528406000" lon="35.126114000">
  <ele>154.910000</ele>
  <time>2009-12-02T07:16:56Z</time>
</trkpt>
<trkpt lat="30.528204000" lon="35.125959000">
  <ele>155.870000</ele>
  <time>2009-12-02T07:17:01Z</time>
</trkpt>
<trkpt lat="30.528083000" lon="35.125864000">
  <ele>155.870000</ele>
  <time>2009-12-02T07:17:04Z</time>
</trkpt>
<trkpt lat="30.527648000" lon="35.125458000">
  <ele>156.830000</ele>
  <time>2009-12-02T07:17:15Z</time>
</trkpt>
<trkpt lat="30.527263000" lon="35.125376000">
  <ele>157.790000</ele>
  <time>2009-12-02T07:17:23Z</time>
</trkpt>
<trkpt lat="30.527164000" lon="35.125402000">
  <ele>157.790000</ele>
  <time>2009-12-02T07:17:25Z</time>
</trkpt>
<trkpt lat="30.526918000" lon="35.125433000">
  <ele>158.270000</ele>
  <time>2009-12-02T07:17:30Z</time>
</trkpt>
<trkpt lat="30.526769000" lon="35.125467000">
  <ele>158.750000</ele>
  <time>2009-12-02T07:17:33Z</time>
</trkpt>
<trkpt lat="30.526541000" lon="35.125560000">
  <ele>159.240000</ele>
  <time>2009-12-02T07:17:38Z</time>
</trkpt>
<trkpt lat="30.526169000" lon="35.125629000">
  <ele>160.200000</ele>
  <time>2009-12-02T07:17:46Z</time>
</trkpt>
<trkpt lat="30.525985000" lon="35.125612000">
  <ele>160.680000</ele>
  <time>2009-12-02T07:17:50Z</time>
</trkpt>
<trkpt lat="30.525745000" lon="35.125611000">
  <ele>161.640000</ele>
  <time>2009-12-02T07:17:55Z</time>
</trkpt>
<trkpt lat="30.525151000" lon="35.125806000">
  <ele>163.080000</ele>
  <time>2009-12-02T07:18:08Z</time>
</trkpt>
<trkpt lat="30.524976000" lon="35.125883000">
  <ele>163.080000</ele>
  <time>2009-12-02T07:18:12Z</time>
</trkpt>
<trkpt lat="30.524650000" lon="35.125881000">
  <ele>164.040000</ele>
  <time>2009-12-02T07:18:19Z</time>
</trkpt>
<trkpt lat="30.524529000" lon="35.125907000">
  <ele>164.040000</ele>
  <time>2009-12-02T07:18:22Z</time>
</trkpt>
<trkpt lat="30.523995000" lon="35.125752000">
  <ele>166.450000</ele>
  <time>2009-12-02T07:18:38Z</time>
</trkpt>
<trkpt lat="30.523583000" lon="35.125614000">
  <ele>167.410000</ele>
  <time>2009-12-02T07:18:50Z</time>
</trkpt>
<trkpt lat="30.523080000" lon="35.125406000">
  <ele>169.330000</ele>
  <time>2009-12-02T07:19:08Z</time>
</trkpt>
<trkpt lat="30.522758000" lon="35.125291000">
  <ele>169.810000</ele>
  <time>2009-12-02T07:19:19Z</time>
</trkpt>
<trkpt lat="30.522639000" lon="35.125215000">
  <ele>170.290000</ele>
  <time>2009-12-02T07:19:23Z</time>
</trkpt>
<trkpt lat="30.522186000" lon="35.124996000">
  <ele>171.730000</ele>
  <time>2009-12-02T07:19:38Z</time>
</trkpt>
<trkpt lat="30.521806000" lon="35.124724000">
  <ele>174.620000</ele>
  <time>2009-12-02T07:19:52Z</time>
</trkpt>
<trkpt lat="30.521478000" lon="35.124353000">
  <ele>176.060000</ele>
  <time>2009-12-02T07:20:09Z</time>
</trkpt>
<trkpt lat="30.521171000" lon="35.124229000">
  <ele>174.620000</ele>
  <time>2009-12-02T07:20:23Z</time>
</trkpt>
<trkpt lat="30.521026000" lon="35.124146000">
  <ele>174.140000</ele>
  <time>2009-12-02T07:20:37Z</time>
</trkpt>
<trkpt lat="30.520845000" lon="35.124025000">
  <ele>174.140000</ele>
  <time>2009-12-02T07:21:13Z</time>
</trkpt>
<trkpt lat="30.520606000" lon="35.123962000">
  <ele>171.730000</ele>
  <time>2009-12-02T07:21:26Z</time>
</trkpt>
<trkpt lat="30.520577000" lon="35.123969000">
  <ele>171.250000</ele>
  <time>2009-12-02T07:21:27Z</time>
</trkpt>
<trkpt lat="30.520507000" lon="35.123992000">
  <ele>170.770000</ele>
  <time>2009-12-02T07:21:30Z</time>
</trkpt>
<trkpt lat="30.520464000" lon="35.124139000">
  <ele>168.850000</ele>
  <time>2009-12-02T07:21:35Z</time>
</trkpt>
<trkpt lat="30.520450000" lon="35.124214000">
  <ele>167.890000</ele>
  <time>2009-12-02T07:21:37Z</time>
</trkpt>
<trkpt lat="30.520256000" lon="35.124341000">
  <ele>164.040000</ele>
  <time>2009-12-02T07:21:42Z</time>
</trkpt>
<trkpt lat="30.519949000" lon="35.124349000">
  <ele>162.120000</ele>
  <time>2009-12-02T07:21:47Z</time>
</trkpt>
<trkpt lat="30.519590000" lon="35.124271000">
  <ele>161.160000</ele>
  <time>2009-12-02T07:21:55Z</time>
</trkpt>
<trkpt lat="30.519488000" lon="35.124345000">
  <ele>161.160000</ele>
  <time>2009-12-02T07:21:59Z</time>
</trkpt>
<trkpt lat="30.519451000" lon="35.124404000">
  <ele>160.680000</ele>
  <time>2009-12-02T07:22:18Z</time>
</trkpt>
<trkpt lat="30.519449000" lon="35.124403000">
  <ele>160.680000</ele>
  <time>2009-12-02T07:22:34Z</time>
</trkpt>
<trkpt lat="30.519096000" lon="35.124370000">
  <ele>160.680000</ele>
  <time>2009-12-02T07:22:49Z</time>
</trkpt>
<trkpt lat="30.518331000" lon="35.124293000">
  <ele>159.720000</ele>
  <time>2009-12-02T07:23:08Z</time>
</trkpt>
<trkpt lat="30.517765000" lon="35.124318000">
  <ele>159.720000</ele>
  <time>2009-12-02T07:23:23Z</time>
</trkpt>
<trkpt lat="30.517477000" lon="35.124438000">
  <ele>159.240000</ele>
  <time>2009-12-02T07:23:31Z</time>
</trkpt>
<trkpt lat="30.517282000" lon="35.124861000">
  <ele>158.750000</ele>
  <time>2009-12-02T07:23:41Z</time>
</trkpt>
<trkpt lat="30.517328000" lon="35.125262000">
  <ele>159.240000</ele>
  <time>2009-12-02T07:23:49Z</time>
</trkpt>
<trkpt lat="30.517352000" lon="35.125475000">
  <ele>158.270000</ele>
  <time>2009-12-02T07:23:53Z</time>
</trkpt>
<trkpt lat="30.517432000" lon="35.125868000">
  <ele>158.750000</ele>
  <time>2009-12-02T07:24:00Z</time>
</trkpt>
<trkpt lat="30.517490000" lon="35.126290000">
  <ele>157.790000</ele>
  <time>2009-12-02T07:24:07Z</time>
</trkpt>
<trkpt lat="30.517572000" lon="35.126501000">
  <ele>157.310000</ele>
  <time>2009-12-02T07:24:11Z</time>
</trkpt>
<trkpt lat="30.517680000" lon="35.126682000">
  <ele>156.350000</ele>
  <time>2009-12-02T07:24:15Z</time>
</trkpt>
<trkpt lat="30.517854000" lon="35.126959000">
  <ele>156.830000</ele>
  <time>2009-12-02T07:24:21Z</time>
</trkpt>
<trkpt lat="30.518400000" lon="35.127608000">
  <ele>155.390000</ele>
  <time>2009-12-02T07:24:37Z</time>
</trkpt>
<trkpt lat="30.518466000" lon="35.127701000">
  <ele>155.390000</ele>
  <time>2009-12-02T07:24:39Z</time>
</trkpt>
<trkpt lat="30.518523000" lon="35.127865000">
  <ele>154.910000</ele>
  <time>2009-12-02T07:24:42Z</time>
</trkpt>
<trkpt lat="30.518581000" lon="35.128152000">
  <ele>154.430000</ele>
  <time>2009-12-02T07:24:47Z</time>
</trkpt>
<trkpt lat="30.518523000" lon="35.128672000">
  <ele>153.470000</ele>
  <time>2009-12-02T07:25:00Z</time>
</trkpt>
<trkpt lat="30.518468000" lon="35.128714000">
  <ele>153.470000</ele>
  <time>2009-12-02T07:25:02Z</time>
</trkpt>
<trkpt lat="30.518289000" lon="35.129209000">
  <ele>153.470000</ele>
  <time>2009-12-02T07:25:13Z</time>
</trkpt>
<trkpt lat="30.518275000" lon="35.129258000">
  <ele>153.470000</ele>
  <time>2009-12-02T07:25:14Z</time>
</trkpt>
<trkpt lat="30.517928000" lon="35.129767000">
  <ele>153.950000</ele>
  <time>2009-12-02T07:25:25Z</time>
</trkpt>
<trkpt lat="30.517763000" lon="35.129999000">
  <ele>152.990000</ele>
  <time>2009-12-02T07:25:30Z</time>
</trkpt>
<trkpt lat="30.517548000" lon="35.130193000">
  <ele>152.510000</ele>
  <time>2009-12-02T07:25:35Z</time>
</trkpt>
<trkpt lat="30.517406000" lon="35.130265000">
  <ele>152.030000</ele>
  <time>2009-12-02T07:25:38Z</time>
</trkpt>
<trkpt lat="30.517018000" lon="35.130307000">
  <ele>150.580000</ele>
  <time>2009-12-02T07:25:50Z</time>
</trkpt>
<trkpt lat="30.516921000" lon="35.130265000">
  <ele>151.060000</ele>
  <time>2009-12-02T07:26:03Z</time>
</trkpt>
<trkpt lat="30.516912000" lon="35.130270000">
  <ele>150.580000</ele>
  <time>2009-12-02T07:26:16Z</time>
</trkpt>
<trkpt lat="30.516707000" lon="35.130433000">
  <ele>150.580000</ele>
  <time>2009-12-02T07:26:28Z</time>
</trkpt>
<trkpt lat="30.516306000" lon="35.130670000">
  <ele>149.620000</ele>
  <time>2009-12-02T07:26:43Z</time>
</trkpt>
<trkpt lat="30.515914000" lon="35.130817000">
  <ele>149.140000</ele>
  <time>2009-12-02T07:26:55Z</time>
</trkpt>
<trkpt lat="30.515527000" lon="35.130956000">
  <ele>148.180000</ele>
  <time>2009-12-02T07:27:08Z</time>
</trkpt>
<trkpt lat="30.515147000" lon="35.131210000">
  <ele>148.180000</ele>
  <time>2009-12-02T07:27:23Z</time>
</trkpt>
<trkpt lat="30.514889000" lon="35.131552000">
  <ele>147.220000</ele>
  <time>2009-12-02T07:27:35Z</time>
</trkpt>
<trkpt lat="30.514898000" lon="35.131624000">
  <ele>147.220000</ele>
  <time>2009-12-02T07:27:38Z</time>
</trkpt>
<trkpt lat="30.514865000" lon="35.131776000">
  <ele>146.740000</ele>
  <time>2009-12-02T07:27:44Z</time>
</trkpt>
<trkpt lat="30.514681000" lon="35.132025000">
  <ele>146.740000</ele>
  <time>2009-12-02T07:27:54Z</time>
</trkpt>
<trkpt lat="30.514655000" lon="35.132033000">
  <ele>146.740000</ele>
  <time>2009-12-02T07:27:55Z</time>
</trkpt>
<trkpt lat="30.514597000" lon="35.132039000">
  <ele>145.780000</ele>
  <time>2009-12-02T07:27:57Z</time>
</trkpt>
<trkpt lat="30.514266000" lon="35.132109000">
  <ele>146.260000</ele>
  <time>2009-12-02T07:28:10Z</time>
</trkpt>
<trkpt lat="30.513883000" lon="35.131961000">
  <ele>145.780000</ele>
  <time>2009-12-02T07:28:23Z</time>
</trkpt>
<trkpt lat="30.513723000" lon="35.131627000">
  <ele>145.300000</ele>
  <time>2009-12-02T07:28:35Z</time>
</trkpt>
<trkpt lat="30.513550000" lon="35.131406000">
  <ele>144.340000</ele>
  <time>2009-12-02T07:28:45Z</time>
</trkpt>
<trkpt lat="30.513407000" lon="35.131151000">
  <ele>143.850000</ele>
  <time>2009-12-02T07:28:54Z</time>
</trkpt>
<trkpt lat="30.513254000" lon="35.130746000">
  <ele>143.370000</ele>
  <time>2009-12-02T07:29:07Z</time>
</trkpt>
<trkpt lat="30.513278000" lon="35.130579000">
  <ele>143.850000</ele>
  <time>2009-12-02T07:29:12Z</time>
</trkpt>
<trkpt lat="30.513242000" lon="35.129903000">
  <ele>142.890000</ele>
  <time>2009-12-02T07:29:29Z</time>
</trkpt>
<trkpt lat="30.513447000" lon="35.129545000">
  <ele>141.930000</ele>
  <time>2009-12-02T07:29:42Z</time>
</trkpt>
<trkpt lat="30.513600000" lon="35.129372000">
  <ele>140.970000</ele>
  <time>2009-12-02T07:29:55Z</time>
</trkpt>
<trkpt lat="30.513613000" lon="35.129348000">
  <ele>140.970000</ele>
  <time>2009-12-02T07:30:09Z</time>
</trkpt>
<trkpt lat="30.513613000" lon="35.129351000">
  <ele>140.490000</ele>
  <time>2009-12-02T07:31:29Z</time>
</trkpt>
<trkpt lat="30.513606000" lon="35.129355000">
  <ele>140.970000</ele>
  <time>2009-12-02T07:31:53Z</time>
</trkpt>
<trkpt lat="30.513593000" lon="35.129330000">
  <ele>140.970000</ele>
  <time>2009-12-02T07:33:19Z</time>
</trkpt>
<trkpt lat="30.513573000" lon="35.129292000">
  <ele>140.970000</ele>
  <time>2009-12-02T07:33:37Z</time>
</trkpt>
<trkpt lat="30.513546000" lon="35.129243000">
  <ele>141.450000</ele>
  <time>2009-12-02T07:33:53Z</time>
</trkpt>
<trkpt lat="30.513501000" lon="35.129154000">
  <ele>141.930000</ele>
  <time>2009-12-02T07:34:08Z</time>
</trkpt>
<trkpt lat="30.513492000" lon="35.129137000">
  <ele>142.410000</ele>
  <time>2009-12-02T07:34:17Z</time>
</trkpt>
<trkpt lat="30.513297000" lon="35.129134000">
  <ele>143.370000</ele>
  <time>2009-12-02T07:34:36Z</time>
</trkpt>
<trkpt lat="30.513169000" lon="35.129131000">
  <ele>140.010000</ele>
  <time>2009-12-02T07:34:51Z</time>
</trkpt>
<trkpt lat="30.513048000" lon="35.129131000">
  <ele>137.130000</ele>
  <time>2009-12-02T07:35:09Z</time>
</trkpt>
<trkpt lat="30.513014000" lon="35.129118000">
  <ele>135.200000</ele>
  <time>2009-12-02T07:35:22Z</time>
</trkpt>
<trkpt lat="30.512993000" lon="35.129072000">
  <ele>132.800000</ele>
  <time>2009-12-02T07:35:34Z</time>
</trkpt>
<trkpt lat="30.512901000" lon="35.129051000">
  <ele>130.400000</ele>
  <time>2009-12-02T07:35:50Z</time>
</trkpt>
<trkpt lat="30.512802000" lon="35.129028000">
  <ele>127.030000</ele>
  <time>2009-12-02T07:36:07Z</time>
</trkpt>
<trkpt lat="30.512684000" lon="35.129009000">
  <ele>124.150000</ele>
  <time>2009-12-02T07:36:23Z</time>
</trkpt>
<trkpt lat="30.512638000" lon="35.128984000">
  <ele>122.220000</ele>
  <time>2009-12-02T07:36:28Z</time>
</trkpt>
<trkpt lat="30.512516000" lon="35.128979000">
  <ele>122.220000</ele>
  <time>2009-12-02T07:36:42Z</time>
</trkpt>
<trkpt lat="30.512499000" lon="35.128971000">
  <ele>121.740000</ele>
  <time>2009-12-02T07:36:56Z</time>
</trkpt>
<trkpt lat="30.512516000" lon="35.128945000">
  <ele>121.740000</ele>
  <time>2009-12-02T07:37:37Z</time>
</trkpt>
<trkpt lat="30.512536000" lon="35.128936000">
  <ele>121.740000</ele>
  <time>2009-12-02T07:37:41Z</time>
</trkpt>
<trkpt lat="30.512898000" lon="35.128760000">
  <ele>122.220000</ele>
  <time>2009-12-02T07:37:58Z</time>
</trkpt>
<trkpt lat="30.513146000" lon="35.128692000">
  <ele>122.220000</ele>
  <time>2009-12-02T07:38:08Z</time>
</trkpt>
<trkpt lat="30.513533000" lon="35.128597000">
  <ele>122.710000</ele>
  <time>2009-12-02T07:38:25Z</time>
</trkpt>
<trkpt lat="30.513598000" lon="35.128609000">
  <ele>123.190000</ele>
  <time>2009-12-02T07:38:30Z</time>
</trkpt>
<trkpt lat="30.513675000" lon="35.128674000">
  <ele>123.670000</ele>
  <time>2009-12-02T07:38:35Z</time>
</trkpt>
<trkpt lat="30.513661000" lon="35.128775000">
  <ele>124.150000</ele>
  <time>2009-12-02T07:38:46Z</time>
</trkpt>
<trkpt lat="30.513634000" lon="35.128764000">
  <ele>123.670000</ele>
  <time>2009-12-02T07:39:00Z</time>
</trkpt>
<trkpt lat="30.513630000" lon="35.128758000">
  <ele>123.190000</ele>
  <time>2009-12-02T07:40:13Z</time>
</trkpt>
<trkpt lat="30.513608000" lon="35.128716000">
  <ele>121.740000</ele>
  <time>2009-12-02T08:05:36Z</time>
</trkpt>
<trkpt lat="30.513633000" lon="35.128676000">
  <ele>121.260000</ele>
  <time>2009-12-02T08:05:47Z</time>
</trkpt>
<trkpt lat="30.513545000" lon="35.128709000">
  <ele>121.260000</ele>
  <time>2009-12-02T08:05:59Z</time>
</trkpt>
<trkpt lat="30.513454000" lon="35.128737000">
  <ele>121.740000</ele>
  <time>2009-12-02T08:06:15Z</time>
</trkpt>
<trkpt lat="30.513441000" lon="35.128736000">
  <ele>121.260000</ele>
  <time>2009-12-02T08:06:36Z</time>
</trkpt>
<trkpt lat="30.513435000" lon="35.128734000">
  <ele>121.260000</ele>
  <time>2009-12-02T08:06:37Z</time>
</trkpt>
<trkpt lat="30.513222000" lon="35.128788000">
  <ele>120.780000</ele>
  <time>2009-12-02T08:06:53Z</time>
</trkpt>
<trkpt lat="30.513166000" lon="35.128798000">
  <ele>120.780000</ele>
  <time>2009-12-02T08:06:56Z</time>
</trkpt>
<trkpt lat="30.512992000" lon="35.128878000">
  <ele>120.780000</ele>
  <time>2009-12-02T08:07:07Z</time>
</trkpt>
<trkpt lat="30.512936000" lon="35.128883000">
  <ele>120.300000</ele>
  <time>2009-12-02T08:07:10Z</time>
</trkpt>
<trkpt lat="30.512870000" lon="35.128910000">
  <ele>120.300000</ele>
  <time>2009-12-02T08:07:14Z</time>
</trkpt>
<trkpt lat="30.512828000" lon="35.128920000">
  <ele>119.820000</ele>
  <time>2009-12-02T08:07:16Z</time>
</trkpt>
<trkpt lat="30.512784000" lon="35.128943000">
  <ele>119.820000</ele>
  <time>2009-12-02T08:07:19Z</time>
</trkpt>
<trkpt lat="30.512653000" lon="35.128956000">
  <ele>119.340000</ele>
  <time>2009-12-02T08:07:28Z</time>
</trkpt>
<trkpt lat="30.512613000" lon="35.128939000">
  <ele>119.820000</ele>
  <time>2009-12-02T08:07:31Z</time>
</trkpt>
<trkpt lat="30.512538000" lon="35.128949000">
  <ele>119.340000</ele>
  <time>2009-12-02T08:07:38Z</time>
</trkpt>
<trkpt lat="30.512424000" lon="35.128985000">
  <ele>118.860000</ele>
  <time>2009-12-02T08:07:47Z</time>
</trkpt>
<trkpt lat="30.512083000" lon="35.129035000">
  <ele>118.380000</ele>
  <time>2009-12-02T08:08:04Z</time>
</trkpt>
<trkpt lat="30.511764000" lon="35.128989000">
  <ele>117.420000</ele>
  <time>2009-12-02T08:08:18Z</time>
</trkpt>
<trkpt lat="30.511289000" lon="35.128949000">
  <ele>116.460000</ele>
  <time>2009-12-02T08:08:34Z</time>
</trkpt>
<trkpt lat="30.510879000" lon="35.128980000">
  <ele>115.980000</ele>
  <time>2009-12-02T08:08:48Z</time>
</trkpt>
<trkpt lat="30.510758000" lon="35.128991000">
  <ele>115.980000</ele>
  <time>2009-12-02T08:08:53Z</time>
</trkpt>
<trkpt lat="30.510587000" lon="35.129029000">
  <ele>115.500000</ele>
  <time>2009-12-02T08:09:00Z</time>
</trkpt>
<trkpt lat="30.510479000" lon="35.128954000">
  <ele>116.460000</ele>
  <time>2009-12-02T08:09:07Z</time>
</trkpt>
<trkpt lat="30.510471000" lon="35.128889000">
  <ele>116.460000</ele>
  <time>2009-12-02T08:09:11Z</time>
</trkpt>
<trkpt lat="30.510467000" lon="35.128829000">
  <ele>117.900000</ele>
  <time>2009-12-02T08:09:14Z</time>
</trkpt>
<trkpt lat="30.510473000" lon="35.128731000">
  <ele>118.860000</ele>
  <time>2009-12-02T08:09:18Z</time>
</trkpt>
<trkpt lat="30.510406000" lon="35.128541000">
  <ele>120.300000</ele>
  <time>2009-12-02T08:09:28Z</time>
</trkpt>
<trkpt lat="30.510361000" lon="35.128367000">
  <ele>123.670000</ele>
  <time>2009-12-02T08:09:38Z</time>
</trkpt>
<trkpt lat="30.510311000" lon="35.128325000">
  <ele>124.150000</ele>
  <time>2009-12-02T08:09:41Z</time>
</trkpt>
<trkpt lat="30.510196000" lon="35.128015000">
  <ele>127.990000</ele>
  <time>2009-12-02T08:09:54Z</time>
</trkpt>
<trkpt lat="30.510147000" lon="35.127963000">
  <ele>127.990000</ele>
  <time>2009-12-02T08:09:57Z</time>
</trkpt>
<trkpt lat="30.509964000" lon="35.127691000">
  <ele>129.430000</ele>
  <time>2009-12-02T08:10:12Z</time>
</trkpt>
<trkpt lat="30.509891000" lon="35.127415000">
  <ele>133.280000</ele>
  <time>2009-12-02T08:10:25Z</time>
</trkpt>
<trkpt lat="30.509734000" lon="35.127228000">
  <ele>134.240000</ele>
  <time>2009-12-02T08:10:39Z</time>
</trkpt>
<trkpt lat="30.509609000" lon="35.127217000">
  <ele>133.760000</ele>
  <time>2009-12-02T08:10:45Z</time>
</trkpt>
<trkpt lat="30.509331000" lon="35.127200000">
  <ele>133.760000</ele>
  <time>2009-12-02T08:11:03Z</time>
</trkpt>
<trkpt lat="30.509265000" lon="35.127218000">
  <ele>133.760000</ele>
  <time>2009-12-02T08:11:08Z</time>
</trkpt>
<trkpt lat="30.509186000" lon="35.127220000">
  <ele>134.240000</ele>
  <time>2009-12-02T08:11:14Z</time>
</trkpt>
<trkpt lat="30.509035000" lon="35.127059000">
  <ele>133.760000</ele>
  <time>2009-12-02T08:11:28Z</time>
</trkpt>
<trkpt lat="30.509019000" lon="35.127010000">
  <ele>134.240000</ele>
  <time>2009-12-02T08:11:31Z</time>
</trkpt>
<trkpt lat="30.508979000" lon="35.126943000">
  <ele>134.240000</ele>
  <time>2009-12-02T08:11:36Z</time>
</trkpt>
<trkpt lat="30.508979000" lon="35.126910000">
  <ele>134.720000</ele>
  <time>2009-12-02T08:11:55Z</time>
</trkpt>
<trkpt lat="30.508939000" lon="35.126830000">
  <ele>135.680000</ele>
  <time>2009-12-02T08:12:19Z</time>
</trkpt>
<trkpt lat="30.508926000" lon="35.126805000">
  <ele>135.200000</ele>
  <time>2009-12-02T08:12:26Z</time>
</trkpt>
<trkpt lat="30.508944000" lon="35.126706000">
  <ele>137.130000</ele>
  <time>2009-12-02T08:12:31Z</time>
</trkpt>
<trkpt lat="30.508922000" lon="35.126505000">
  <ele>138.570000</ele>
  <time>2009-12-02T08:12:43Z</time>
</trkpt>
<trkpt lat="30.508963000" lon="35.126400000">
  <ele>140.490000</ele>
  <time>2009-12-02T08:12:49Z</time>
</trkpt>
<trkpt lat="30.508973000" lon="35.126315000">
  <ele>141.450000</ele>
  <time>2009-12-02T08:13:05Z</time>
</trkpt>
<trkpt lat="30.508970000" lon="35.126229000">
  <ele>143.370000</ele>
  <time>2009-12-02T08:13:20Z</time>
</trkpt>
<trkpt lat="30.509018000" lon="35.126158000">
  <ele>144.340000</ele>
  <time>2009-12-02T08:13:39Z</time>
</trkpt>
<trkpt lat="30.509022000" lon="35.126152000">
  <ele>144.820000</ele>
  <time>2009-12-02T08:14:47Z</time>
</trkpt>
<trkpt lat="30.509040000" lon="35.126128000">
  <ele>144.820000</ele>
  <time>2009-12-02T08:14:49Z</time>
</trkpt>
<trkpt lat="30.509006000" lon="35.126020000">
  <ele>146.740000</ele>
  <time>2009-12-02T08:14:55Z</time>
</trkpt>
<trkpt lat="30.508901000" lon="35.125629000">
  <ele>146.740000</ele>
  <time>2009-12-02T08:15:08Z</time>
</trkpt>
<trkpt lat="30.508774000" lon="35.125251000">
  <ele>150.100000</ele>
  <time>2009-12-02T08:15:19Z</time>
</trkpt>
<trkpt lat="30.508377000" lon="35.124938000">
  <ele>148.660000</ele>
  <time>2009-12-02T08:15:31Z</time>
</trkpt>
<trkpt lat="30.508217000" lon="35.124782000">
  <ele>149.140000</ele>
  <time>2009-12-02T08:15:36Z</time>
</trkpt>
<trkpt lat="30.507721000" lon="35.124305000">
  <ele>150.100000</ele>
  <time>2009-12-02T08:15:54Z</time>
</trkpt>
<trkpt lat="30.507388000" lon="35.123881000">
  <ele>150.580000</ele>
  <time>2009-12-02T08:16:11Z</time>
</trkpt>
<trkpt lat="30.506993000" lon="35.123534000">
  <ele>151.060000</ele>
  <time>2009-12-02T08:16:28Z</time>
</trkpt>
<trkpt lat="30.506577000" lon="35.123243000">
  <ele>153.950000</ele>
  <time>2009-12-02T08:16:46Z</time>
</trkpt>
<trkpt lat="30.506450000" lon="35.123131000">
  <ele>156.830000</ele>
  <time>2009-12-02T08:16:55Z</time>
</trkpt>
<trkpt lat="30.506270000" lon="35.123091000">
  <ele>158.750000</ele>
  <time>2009-12-02T08:17:10Z</time>
</trkpt>
<trkpt lat="30.506249000" lon="35.123106000">
  <ele>159.240000</ele>
  <time>2009-12-02T08:17:28Z</time>
</trkpt>
<trkpt lat="30.506249000" lon="35.123105000">
  <ele>158.270000</ele>
  <time>2009-12-02T08:17:30Z</time>
</trkpt>
<trkpt lat="30.506222000" lon="35.123096000">
  <ele>157.790000</ele>
  <time>2009-12-02T08:18:34Z</time>
</trkpt>
<trkpt lat="30.505890000" lon="35.123183000">
  <ele>155.870000</ele>
  <time>2009-12-02T08:18:48Z</time>
</trkpt>
<trkpt lat="30.505767000" lon="35.123283000">
  <ele>154.910000</ele>
  <time>2009-12-02T08:18:59Z</time>
</trkpt>
<trkpt lat="30.505693000" lon="35.123326000">
  <ele>155.390000</ele>
  <time>2009-12-02T08:19:13Z</time>
</trkpt>
<trkpt lat="30.505417000" lon="35.123345000">
  <ele>152.510000</ele>
  <time>2009-12-02T08:19:25Z</time>
</trkpt>
<trkpt lat="30.505162000" lon="35.123345000">
  <ele>148.660000</ele>
  <time>2009-12-02T08:19:37Z</time>
</trkpt>
<trkpt lat="30.505134000" lon="35.123345000">
  <ele>148.660000</ele>
  <time>2009-12-02T08:19:38Z</time>
</trkpt>
<trkpt lat="30.504999000" lon="35.123295000">
  <ele>145.780000</ele>
  <time>2009-12-02T08:19:44Z</time>
</trkpt>
<trkpt lat="30.504902000" lon="35.123315000">
  <ele>142.890000</ele>
  <time>2009-12-02T08:19:51Z</time>
</trkpt>
<trkpt lat="30.504855000" lon="35.123284000">
  <ele>141.930000</ele>
  <time>2009-12-02T08:19:53Z</time>
</trkpt>
<trkpt lat="30.504728000" lon="35.123236000">
  <ele>140.010000</ele>
  <time>2009-12-02T08:19:58Z</time>
</trkpt>
<trkpt lat="30.504578000" lon="35.123248000">
  <ele>137.610000</ele>
  <time>2009-12-02T08:20:03Z</time>
</trkpt>
<trkpt lat="30.504437000" lon="35.123258000">
  <ele>135.680000</ele>
  <time>2009-12-02T08:20:07Z</time>
</trkpt>
<trkpt lat="30.504244000" lon="35.123240000">
  <ele>131.360000</ele>
  <time>2009-12-02T08:20:13Z</time>
</trkpt>
<trkpt lat="30.504148000" lon="35.123232000">
  <ele>128.950000</ele>
  <time>2009-12-02T08:20:16Z</time>
</trkpt>
<trkpt lat="30.503974000" lon="35.123200000">
  <ele>126.070000</ele>
  <time>2009-12-02T08:20:20Z</time>
</trkpt>
<trkpt lat="30.503830000" lon="35.123067000">
  <ele>124.630000</ele>
  <time>2009-12-02T08:20:28Z</time>
</trkpt>
<trkpt lat="30.503820000" lon="35.123055000">
  <ele>124.630000</ele>
  <time>2009-12-02T08:20:29Z</time>
</trkpt>
<trkpt lat="30.503790000" lon="35.123035000">
  <ele>124.630000</ele>
  <time>2009-12-02T08:20:31Z</time>
</trkpt>
<trkpt lat="30.503759000" lon="35.123006000">
  <ele>125.110000</ele>
  <time>2009-12-02T08:20:33Z</time>
</trkpt>
<trkpt lat="30.503726000" lon="35.122982000">
  <ele>126.550000</ele>
  <time>2009-12-02T08:20:35Z</time>
</trkpt>
<trkpt lat="30.503708000" lon="35.122973000">
  <ele>126.070000</ele>
  <time>2009-12-02T08:20:36Z</time>
</trkpt>
<trkpt lat="30.503495000" lon="35.122717000">
  <ele>127.030000</ele>
  <time>2009-12-02T08:20:46Z</time>
</trkpt>
<trkpt lat="30.503394000" lon="35.122631000">
  <ele>127.030000</ele>
  <time>2009-12-02T08:20:50Z</time>
</trkpt>
<trkpt lat="30.503286000" lon="35.122400000">
  <ele>129.430000</ele>
  <time>2009-12-02T08:20:58Z</time>
</trkpt>
<trkpt lat="30.502990000" lon="35.121930000">
  <ele>132.320000</ele>
  <time>2009-12-02T08:21:17Z</time>
</trkpt>
<trkpt lat="30.502698000" lon="35.121586000">
  <ele>133.280000</ele>
  <time>2009-12-02T08:21:35Z</time>
</trkpt>
<trkpt lat="30.502358000" lon="35.121320000">
  <ele>130.880000</ele>
  <time>2009-12-02T08:21:50Z</time>
</trkpt>
<trkpt lat="30.502294000" lon="35.121287000">
  <ele>129.920000</ele>
  <time>2009-12-02T08:21:53Z</time>
</trkpt>
<trkpt lat="30.502207000" lon="35.121124000">
  <ele>126.550000</ele>
  <time>2009-12-02T08:22:02Z</time>
</trkpt>
<trkpt lat="30.502197000" lon="35.121074000">
  <ele>125.590000</ele>
  <time>2009-12-02T08:22:04Z</time>
</trkpt>
<trkpt lat="30.502168000" lon="35.121058000">
  <ele>124.630000</ele>
  <time>2009-12-02T08:22:07Z</time>
</trkpt>
<trkpt lat="30.502151000" lon="35.121075000">
  <ele>124.630000</ele>
  <time>2009-12-02T08:22:12Z</time>
</trkpt>
<trkpt lat="30.502105000" lon="35.121157000">
  <ele>123.190000</ele>
  <time>2009-12-02T08:22:16Z</time>
</trkpt>
<trkpt lat="30.501999000" lon="35.121383000">
  <ele>119.340000</ele>
  <time>2009-12-02T08:22:23Z</time>
</trkpt>
<trkpt lat="30.501964000" lon="35.121429000">
  <ele>118.380000</ele>
  <time>2009-12-02T08:22:25Z</time>
</trkpt>
<trkpt lat="30.501846000" lon="35.121358000">
  <ele>117.420000</ele>
  <time>2009-12-02T08:22:33Z</time>
</trkpt>
<trkpt lat="30.501699000" lon="35.121021000">
  <ele>119.820000</ele>
  <time>2009-12-02T08:22:46Z</time>
</trkpt>
<trkpt lat="30.501517000" lon="35.120689000">
  <ele>118.860000</ele>
  <time>2009-12-02T08:23:00Z</time>
</trkpt>
<trkpt lat="30.501418000" lon="35.120452000">
  <ele>121.260000</ele>
  <time>2009-12-02T08:23:12Z</time>
</trkpt>
<trkpt lat="30.501226000" lon="35.120291000">
  <ele>121.260000</ele>
  <time>2009-12-02T08:23:24Z</time>
</trkpt>
<trkpt lat="30.500952000" lon="35.120128000">
  <ele>122.710000</ele>
  <time>2009-12-02T08:23:39Z</time>
</trkpt>
<trkpt lat="30.500755000" lon="35.119886000">
  <ele>125.110000</ele>
  <time>2009-12-02T08:23:54Z</time>
</trkpt>
<trkpt lat="30.500438000" lon="35.119793000">
  <ele>125.590000</ele>
  <time>2009-12-02T08:24:10Z</time>
</trkpt>
<trkpt lat="30.500217000" lon="35.119596000">
  <ele>127.030000</ele>
  <time>2009-12-02T08:24:25Z</time>
</trkpt>
<trkpt lat="30.500209000" lon="35.119580000">
  <ele>127.030000</ele>
  <time>2009-12-02T08:24:26Z</time>
</trkpt>
<trkpt lat="30.500098000" lon="35.119455000">
  <ele>128.470000</ele>
  <time>2009-12-02T08:24:33Z</time>
</trkpt>
<trkpt lat="30.499865000" lon="35.119246000">
  <ele>128.470000</ele>
  <time>2009-12-02T08:24:47Z</time>
</trkpt>
<trkpt lat="30.499803000" lon="35.119237000">
  <ele>128.950000</ele>
  <time>2009-12-02T08:24:50Z</time>
</trkpt>
<trkpt lat="30.499514000" lon="35.118991000">
  <ele>130.880000</ele>
  <time>2009-12-02T08:25:06Z</time>
</trkpt>
<trkpt lat="30.499274000" lon="35.118724000">
  <ele>133.280000</ele>
  <time>2009-12-02T08:25:22Z</time>
</trkpt>
<trkpt lat="30.499165000" lon="35.118652000">
  <ele>134.240000</ele>
  <time>2009-12-02T08:25:28Z</time>
</trkpt>
<trkpt lat="30.498995000" lon="35.118465000">
  <ele>135.680000</ele>
  <time>2009-12-02T08:25:40Z</time>
</trkpt>
<trkpt lat="30.498774000" lon="35.118254000">
  <ele>134.240000</ele>
  <time>2009-12-02T08:25:57Z</time>
</trkpt>
<trkpt lat="30.498732000" lon="35.118224000">
  <ele>134.240000</ele>
  <time>2009-12-02T08:26:00Z</time>
</trkpt>
<trkpt lat="30.498703000" lon="35.118178000">
  <ele>134.240000</ele>
  <time>2009-12-02T08:26:13Z</time>
</trkpt>
<trkpt lat="30.498664000" lon="35.118131000">
  <ele>133.280000</ele>
  <time>2009-12-02T08:26:25Z</time>
</trkpt>
<trkpt lat="30.498664000" lon="35.118132000">
  <ele>133.280000</ele>
  <time>2009-12-02T08:27:38Z</time>
</trkpt>
<trkpt lat="30.498734000" lon="35.118209000">
  <ele>134.240000</ele>
  <time>2009-12-02T08:27:57Z</time>
</trkpt>
<trkpt lat="30.498735000" lon="35.118210000">
  <ele>134.240000</ele>
  <time>2009-12-02T08:28:05Z</time>
</trkpt>
<trkpt lat="30.498776000" lon="35.118249000">
  <ele>134.240000</ele>
  <time>2009-12-02T08:28:10Z</time>
</trkpt>
<trkpt lat="30.498885000" lon="35.118326000">
  <ele>134.240000</ele>
  <time>2009-12-02T08:28:18Z</time>
</trkpt>
<trkpt lat="30.498938000" lon="35.118239000">
  <ele>133.280000</ele>
  <time>2009-12-02T08:28:25Z</time>
</trkpt>
<trkpt lat="30.498928000" lon="35.118210000">
  <ele>132.800000</ele>
  <time>2009-12-02T08:28:47Z</time>
</trkpt>
<trkpt lat="30.498895000" lon="35.118141000">
  <ele>132.320000</ele>
  <time>2009-12-02T08:29:07Z</time>
</trkpt>
<trkpt lat="30.498888000" lon="35.118105000">
  <ele>131.360000</ele>
  <time>2009-12-02T08:29:09Z</time>
</trkpt>
<trkpt lat="30.498886000" lon="35.118059000">
  <ele>130.880000</ele>
  <time>2009-12-02T08:29:13Z</time>
</trkpt>
<trkpt lat="30.498857000" lon="35.117961000">
  <ele>128.470000</ele>
  <time>2009-12-02T08:29:18Z</time>
</trkpt>
<trkpt lat="30.498851000" lon="35.117802000">
  <ele>126.070000</ele>
  <time>2009-12-02T08:29:31Z</time>
</trkpt>
<trkpt lat="30.498850000" lon="35.117721000">
  <ele>124.630000</ele>
  <time>2009-12-02T08:29:43Z</time>
</trkpt>
<trkpt lat="30.498863000" lon="35.117643000">
  <ele>122.710000</ele>
  <time>2009-12-02T08:29:54Z</time>
</trkpt>
<trkpt lat="30.498878000" lon="35.117604000">
  <ele>122.220000</ele>
  <time>2009-12-02T08:29:59Z</time>
</trkpt>
<trkpt lat="30.498846000" lon="35.117558000">
  <ele>121.260000</ele>
  <time>2009-12-02T08:30:03Z</time>
</trkpt>
<trkpt lat="30.498808000" lon="35.117526000">
  <ele>121.740000</ele>
  <time>2009-12-02T08:30:05Z</time>
</trkpt>
<trkpt lat="30.498583000" lon="35.117267000">
  <ele>120.780000</ele>
  <time>2009-12-02T08:30:17Z</time>
</trkpt>
<trkpt lat="30.498516000" lon="35.117222000">
  <ele>120.780000</ele>
  <time>2009-12-02T08:30:19Z</time>
</trkpt>
<trkpt lat="30.498440000" lon="35.117167000">
  <ele>120.780000</ele>
  <time>2009-12-02T08:30:21Z</time>
</trkpt>
<trkpt lat="30.498265000" lon="35.116816000">
  <ele>119.340000</ele>
  <time>2009-12-02T08:30:32Z</time>
</trkpt>
<trkpt lat="30.498198000" lon="35.116701000">
  <ele>116.940000</ele>
  <time>2009-12-02T08:30:35Z</time>
</trkpt>
<trkpt lat="30.498164000" lon="35.116555000">
  <ele>116.940000</ele>
  <time>2009-12-02T08:30:44Z</time>
</trkpt>
<trkpt lat="30.498172000" lon="35.116437000">
  <ele>119.340000</ele>
  <time>2009-12-02T08:30:57Z</time>
</trkpt>
<trkpt lat="30.498143000" lon="35.116294000">
  <ele>122.220000</ele>
  <time>2009-12-02T08:31:13Z</time>
</trkpt>
<trkpt lat="30.498105000" lon="35.116200000">
  <ele>124.150000</ele>
  <time>2009-12-02T08:31:28Z</time>
</trkpt>
<trkpt lat="30.498112000" lon="35.116184000">
  <ele>123.670000</ele>
  <time>2009-12-02T08:32:10Z</time>
</trkpt>
<trkpt lat="30.498066000" lon="35.115967000">
  <ele>121.260000</ele>
  <time>2009-12-02T08:32:18Z</time>
</trkpt>
<trkpt lat="30.498052000" lon="35.115925000">
  <ele>120.780000</ele>
  <time>2009-12-02T08:32:19Z</time>
</trkpt>
<trkpt lat="30.497992000" lon="35.115785000">
  <ele>118.860000</ele>
  <time>2009-12-02T08:32:22Z</time>
</trkpt>
<trkpt lat="30.497902000" lon="35.115626000">
  <ele>116.940000</ele>
  <time>2009-12-02T08:32:25Z</time>
</trkpt>
<trkpt lat="30.497830000" lon="35.115535000">
  <ele>115.500000</ele>
  <time>2009-12-02T08:32:27Z</time>
</trkpt>
<trkpt lat="30.497790000" lon="35.115496000">
  <ele>115.010000</ele>
  <time>2009-12-02T08:32:28Z</time>
</trkpt>
<trkpt lat="30.497491000" lon="35.115135000">
  <ele>114.050000</ele>
  <time>2009-12-02T08:32:41Z</time>
</trkpt>
<trkpt lat="30.497214000" lon="35.114711000">
  <ele>113.090000</ele>
  <time>2009-12-02T08:32:55Z</time>
</trkpt>
<trkpt lat="30.497105000" lon="35.114537000">
  <ele>112.610000</ele>
  <time>2009-12-02T08:33:00Z</time>
</trkpt>
<trkpt lat="30.497208000" lon="35.114090000">
  <ele>114.050000</ele>
  <time>2009-12-02T08:33:12Z</time>
</trkpt>
<trkpt lat="30.497491000" lon="35.113725000">
  <ele>115.980000</ele>
  <time>2009-12-02T08:33:27Z</time>
</trkpt>
<trkpt lat="30.497739000" lon="35.113529000">
  <ele>115.500000</ele>
  <time>2009-12-02T08:33:41Z</time>
</trkpt>
<trkpt lat="30.498348000" lon="35.113364000">
  <ele>115.980000</ele>
  <time>2009-12-02T08:34:01Z</time>
</trkpt>
<trkpt lat="30.498829000" lon="35.113441000">
  <ele>116.460000</ele>
  <time>2009-12-02T08:34:17Z</time>
</trkpt>
<trkpt lat="30.499379000" lon="35.113426000">
  <ele>118.380000</ele>
  <time>2009-12-02T08:34:35Z</time>
</trkpt>
<trkpt lat="30.499740000" lon="35.112988000">
  <ele>119.820000</ele>
  <time>2009-12-02T08:34:53Z</time>
</trkpt>
<trkpt lat="30.499982000" lon="35.112778000">
  <ele>119.820000</ele>
  <time>2009-12-02T08:35:04Z</time>
</trkpt>
<trkpt lat="30.500028000" lon="35.112753000">
  <ele>119.820000</ele>
  <time>2009-12-02T08:35:06Z</time>
</trkpt>
<trkpt lat="30.500170000" lon="35.112587000">
  <ele>119.820000</ele>
  <time>2009-12-02T08:35:14Z</time>
</trkpt>
<trkpt lat="30.500532000" lon="35.112484000">
  <ele>120.300000</ele>
  <time>2009-12-02T08:35:29Z</time>
</trkpt>
<trkpt lat="30.500768000" lon="35.112313000">
  <ele>121.260000</ele>
  <time>2009-12-02T08:35:41Z</time>
</trkpt>
<trkpt lat="30.500780000" lon="35.112218000">
  <ele>121.740000</ele>
  <time>2009-12-02T08:35:45Z</time>
</trkpt>
<trkpt lat="30.500863000" lon="35.112132000">
  <ele>121.740000</ele>
  <time>2009-12-02T08:35:49Z</time>
</trkpt>
<trkpt lat="30.501324000" lon="35.111809000">
  <ele>123.190000</ele>
  <time>2009-12-02T08:36:08Z</time>
</trkpt>
<trkpt lat="30.501467000" lon="35.111698000">
  <ele>123.190000</ele>
  <time>2009-12-02T08:36:14Z</time>
</trkpt>
<trkpt lat="30.501698000" lon="35.111294000">
  <ele>124.630000</ele>
  <time>2009-12-02T08:36:29Z</time>
</trkpt>
<trkpt lat="30.501861000" lon="35.110977000">
  <ele>125.590000</ele>
  <time>2009-12-02T08:36:41Z</time>
</trkpt>
<trkpt lat="30.501988000" lon="35.110817000">
  <ele>125.590000</ele>
  <time>2009-12-02T08:36:48Z</time>
</trkpt>
<trkpt lat="30.502017000" lon="35.110722000">
  <ele>126.070000</ele>
  <time>2009-12-02T08:36:52Z</time>
</trkpt>
<trkpt lat="30.502159000" lon="35.110514000">
  <ele>125.590000</ele>
  <time>2009-12-02T08:37:04Z</time>
</trkpt>
<trkpt lat="30.502122000" lon="35.110425000">
  <ele>125.110000</ele>
  <time>2009-12-02T08:37:09Z</time>
</trkpt>
<trkpt lat="30.502114000" lon="35.110277000">
  <ele>125.590000</ele>
  <time>2009-12-02T08:37:23Z</time>
</trkpt>
<trkpt lat="30.502099000" lon="35.110295000">
  <ele>124.630000</ele>
  <time>2009-12-02T08:43:00Z</time>
</trkpt>
<trkpt lat="30.502068000" lon="35.110290000">
  <ele>124.630000</ele>
  <time>2009-12-02T08:43:03Z</time>
</trkpt>
<trkpt lat="30.502030000" lon="35.110340000">
  <ele>124.150000</ele>
  <time>2009-12-02T08:43:17Z</time>
</trkpt>
<trkpt lat="30.502033000" lon="35.110347000">
  <ele>124.150000</ele>
  <time>2009-12-02T08:44:09Z</time>
</trkpt>
<trkpt lat="30.502039000" lon="35.110283000">
  <ele>124.630000</ele>
  <time>2009-12-02T08:44:30Z</time>
</trkpt>
<trkpt lat="30.502050000" lon="35.110271000">
  <ele>124.630000</ele>
  <time>2009-12-02T08:44:36Z</time>
</trkpt>
<trkpt lat="30.502063000" lon="35.110207000">
  <ele>124.630000</ele>
  <time>2009-12-02T08:44:40Z</time>
</trkpt>
<trkpt lat="30.502181000" lon="35.109788000">
  <ele>125.590000</ele>
  <time>2009-12-02T08:44:57Z</time>
</trkpt>
<trkpt lat="30.502351000" lon="35.109375000">
  <ele>127.030000</ele>
  <time>2009-12-02T08:45:13Z</time>
</trkpt>
<trkpt lat="30.502591000" lon="35.109152000">
  <ele>127.510000</ele>
  <time>2009-12-02T08:45:27Z</time>
</trkpt>
<trkpt lat="30.502799000" lon="35.108902000">
  <ele>127.990000</ele>
  <time>2009-12-02T08:45:40Z</time>
</trkpt>
<trkpt lat="30.502901000" lon="35.108682000">
  <ele>128.470000</ele>
  <time>2009-12-02T08:45:49Z</time>
</trkpt>
<trkpt lat="30.502930000" lon="35.108591000">
  <ele>128.950000</ele>
  <time>2009-12-02T08:45:53Z</time>
</trkpt>
<trkpt lat="30.503011000" lon="35.108436000">
  <ele>129.430000</ele>
  <time>2009-12-02T08:46:00Z</time>
</trkpt>
<trkpt lat="30.503097000" lon="35.108338000">
  <ele>128.950000</ele>
  <time>2009-12-02T08:46:05Z</time>
</trkpt>
<trkpt lat="30.503410000" lon="35.107846000">
  <ele>130.400000</ele>
  <time>2009-12-02T08:46:25Z</time>
</trkpt>
<trkpt lat="30.503633000" lon="35.107388000">
  <ele>131.360000</ele>
  <time>2009-12-02T08:46:44Z</time>
</trkpt>
<trkpt lat="30.503769000" lon="35.106896000">
  <ele>132.320000</ele>
  <time>2009-12-02T08:47:02Z</time>
</trkpt>
<trkpt lat="30.503778000" lon="35.106678000">
  <ele>132.800000</ele>
  <time>2009-12-02T08:47:10Z</time>
</trkpt>
<trkpt lat="30.503799000" lon="35.106647000">
  <ele>132.320000</ele>
  <time>2009-12-02T08:47:12Z</time>
</trkpt>
<trkpt lat="30.503931000" lon="35.106271000">
  <ele>133.280000</ele>
  <time>2009-12-02T08:47:27Z</time>
</trkpt>
<trkpt lat="30.504040000" lon="35.105973000">
  <ele>133.760000</ele>
  <time>2009-12-02T08:47:40Z</time>
</trkpt>
<trkpt lat="30.504045000" lon="35.105946000">
  <ele>133.280000</ele>
  <time>2009-12-02T08:47:41Z</time>
</trkpt>
<trkpt lat="30.504214000" lon="35.105431000">
  <ele>134.240000</ele>
  <time>2009-12-02T08:48:00Z</time>
</trkpt>
<trkpt lat="30.504486000" lon="35.104840000">
  <ele>135.200000</ele>
  <time>2009-12-02T08:48:22Z</time>
</trkpt>
<trkpt lat="30.504613000" lon="35.104504000">
  <ele>134.720000</ele>
  <time>2009-12-02T08:48:36Z</time>
</trkpt>
<trkpt lat="30.504666000" lon="35.104401000">
  <ele>135.200000</ele>
  <time>2009-12-02T08:48:40Z</time>
</trkpt>
<trkpt lat="30.504781000" lon="35.104208000">
  <ele>135.680000</ele>
  <time>2009-12-02T08:48:48Z</time>
</trkpt>
<trkpt lat="30.504818000" lon="35.103757000">
  <ele>136.640000</ele>
  <time>2009-12-02T08:49:05Z</time>
</trkpt>
<trkpt lat="30.504851000" lon="35.103577000">
  <ele>137.130000</ele>
  <time>2009-12-02T08:49:11Z</time>
</trkpt>
<trkpt lat="30.505034000" lon="35.103128000">
  <ele>138.090000</ele>
  <time>2009-12-02T08:49:28Z</time>
</trkpt>
<trkpt lat="30.505095000" lon="35.102592000">
  <ele>140.010000</ele>
  <time>2009-12-02T08:49:45Z</time>
</trkpt>
<trkpt lat="30.505071000" lon="35.102090000">
  <ele>140.970000</ele>
  <time>2009-12-02T08:50:01Z</time>
</trkpt>
<trkpt lat="30.505098000" lon="35.102034000">
  <ele>141.450000</ele>
  <time>2009-12-02T08:50:04Z</time>
</trkpt>
<trkpt lat="30.505063000" lon="35.101972000">
  <ele>140.970000</ele>
  <time>2009-12-02T08:50:12Z</time>
</trkpt>
<trkpt lat="30.505067000" lon="35.101929000">
  <ele>141.450000</ele>
  <time>2009-12-02T08:50:15Z</time>
</trkpt>
<trkpt lat="30.504937000" lon="35.101530000">
  <ele>141.930000</ele>
  <time>2009-12-02T08:50:31Z</time>
</trkpt>
<trkpt lat="30.504710000" lon="35.101092000">
  <ele>143.370000</ele>
  <time>2009-12-02T08:50:46Z</time>
</trkpt>
<trkpt lat="30.504482000" lon="35.100682000">
  <ele>143.370000</ele>
  <time>2009-12-02T08:51:00Z</time>
</trkpt>
<trkpt lat="30.504195000" lon="35.100191000">
  <ele>144.820000</ele>
  <time>2009-12-02T08:51:17Z</time>
</trkpt>
<trkpt lat="30.503985000" lon="35.099740000">
  <ele>146.260000</ele>
  <time>2009-12-02T08:51:32Z</time>
</trkpt>
<trkpt lat="30.503979000" lon="35.099687000">
  <ele>146.260000</ele>
  <time>2009-12-02T08:51:34Z</time>
</trkpt>
<trkpt lat="30.503913000" lon="35.099540000">
  <ele>147.220000</ele>
  <time>2009-12-02T08:51:40Z</time>
</trkpt>
<trkpt lat="30.503806000" lon="35.098967000">
  <ele>147.700000</ele>
  <time>2009-12-02T08:51:57Z</time>
</trkpt>
<trkpt lat="30.503684000" lon="35.098680000">
  <ele>148.180000</ele>
  <time>2009-12-02T08:52:06Z</time>
</trkpt>
<trkpt lat="30.503672000" lon="35.098583000">
  <ele>148.180000</ele>
  <time>2009-12-02T08:52:09Z</time>
</trkpt>
<trkpt lat="30.503641000" lon="35.098513000">
  <ele>148.180000</ele>
  <time>2009-12-02T08:52:12Z</time>
</trkpt>
<trkpt lat="30.503577000" lon="35.098514000">
  <ele>149.620000</ele>
  <time>2009-12-02T08:52:18Z</time>
</trkpt>
<trkpt lat="30.503504000" lon="35.098446000">
  <ele>148.660000</ele>
  <time>2009-12-02T08:52:23Z</time>
</trkpt>
<trkpt lat="30.503387000" lon="35.098129000">
  <ele>149.620000</ele>
  <time>2009-12-02T08:52:36Z</time>
</trkpt>
<trkpt lat="30.503401000" lon="35.097687000">
  <ele>150.580000</ele>
  <time>2009-12-02T08:52:51Z</time>
</trkpt>
<trkpt lat="30.503394000" lon="35.097299000">
  <ele>150.580000</ele>
  <time>2009-12-02T08:53:04Z</time>
</trkpt>
<trkpt lat="30.503509000" lon="35.096797000">
  <ele>152.030000</ele>
  <time>2009-12-02T08:53:20Z</time>
</trkpt>
<trkpt lat="30.503795000" lon="35.096234000">
  <ele>152.990000</ele>
  <time>2009-12-02T08:53:39Z</time>
</trkpt>
<trkpt lat="30.503942000" lon="35.096086000">
  <ele>153.470000</ele>
  <time>2009-12-02T08:53:46Z</time>
</trkpt>
<trkpt lat="30.504022000" lon="35.095869000">
  <ele>153.950000</ele>
  <time>2009-12-02T08:53:53Z</time>
</trkpt>
<trkpt lat="30.504141000" lon="35.095775000">
  <ele>153.950000</ele>
  <time>2009-12-02T08:53:59Z</time>
</trkpt>
<trkpt lat="30.504411000" lon="35.095558000">
  <ele>155.390000</ele>
  <time>2009-12-02T08:54:13Z</time>
</trkpt>
<trkpt lat="30.504460000" lon="35.095541000">
  <ele>155.390000</ele>
  <time>2009-12-02T08:54:15Z</time>
</trkpt>
<trkpt lat="30.504517000" lon="35.095513000">
  <ele>155.870000</ele>
  <time>2009-12-02T08:54:18Z</time>
</trkpt>
<trkpt lat="30.504599000" lon="35.095500000">
  <ele>156.350000</ele>
  <time>2009-12-02T08:54:22Z</time>
</trkpt>
<trkpt lat="30.504881000" lon="35.095427000">
  <ele>156.350000</ele>
  <time>2009-12-02T08:54:35Z</time>
</trkpt>
<trkpt lat="30.505394000" lon="35.095139000">
  <ele>157.790000</ele>
  <time>2009-12-02T08:54:56Z</time>
</trkpt>
<trkpt lat="30.505654000" lon="35.094781000">
  <ele>158.750000</ele>
  <time>2009-12-02T08:55:10Z</time>
</trkpt>
<trkpt lat="30.505982000" lon="35.094411000">
  <ele>159.240000</ele>
  <time>2009-12-02T08:55:26Z</time>
</trkpt>
<trkpt lat="30.506358000" lon="35.094223000">
  <ele>160.680000</ele>
  <time>2009-12-02T08:55:40Z</time>
</trkpt>
<trkpt lat="30.506945000" lon="35.094047000">
  <ele>161.640000</ele>
  <time>2009-12-02T08:56:00Z</time>
</trkpt>
<trkpt lat="30.507352000" lon="35.093755000">
  <ele>162.120000</ele>
  <time>2009-12-02T08:56:15Z</time>
</trkpt>
<trkpt lat="30.507876000" lon="35.093387000">
  <ele>163.560000</ele>
  <time>2009-12-02T08:56:34Z</time>
</trkpt>
<trkpt lat="30.508400000" lon="35.093295000">
  <ele>164.040000</ele>
  <time>2009-12-02T08:56:51Z</time>
</trkpt>
<trkpt lat="30.508852000" lon="35.093198000">
  <ele>164.520000</ele>
  <time>2009-12-02T08:57:06Z</time>
</trkpt>
<trkpt lat="30.509381000" lon="35.093021000">
  <ele>165.480000</ele>
  <time>2009-12-02T08:57:24Z</time>
</trkpt>
<trkpt lat="30.509572000" lon="35.092948000">
  <ele>166.450000</ele>
  <time>2009-12-02T08:57:31Z</time>
</trkpt>
<trkpt lat="30.509696000" lon="35.092987000">
  <ele>166.930000</ele>
  <time>2009-12-02T08:57:36Z</time>
</trkpt>
<trkpt lat="30.509788000" lon="35.092946000">
  <ele>166.930000</ele>
  <time>2009-12-02T08:57:40Z</time>
</trkpt>
<trkpt lat="30.510103000" lon="35.092900000">
  <ele>167.410000</ele>
  <time>2009-12-02T08:57:53Z</time>
</trkpt>
<trkpt lat="30.510280000" lon="35.092576000">
  <ele>168.370000</ele>
  <time>2009-12-02T08:58:06Z</time>
</trkpt>
<trkpt lat="30.510491000" lon="35.092111000">
  <ele>168.850000</ele>
  <time>2009-12-02T08:58:23Z</time>
</trkpt>
<trkpt lat="30.510373000" lon="35.091612000">
  <ele>169.330000</ele>
  <time>2009-12-02T08:58:41Z</time>
</trkpt>
<trkpt lat="30.510174000" lon="35.091388000">
  <ele>169.810000</ele>
  <time>2009-12-02T08:58:54Z</time>
</trkpt>
<trkpt lat="30.510128000" lon="35.091384000">
  <ele>170.290000</ele>
  <time>2009-12-02T08:58:58Z</time>
</trkpt>
<trkpt lat="30.510113000" lon="35.091344000">
  <ele>170.290000</ele>
  <time>2009-12-02T08:59:02Z</time>
</trkpt>
<trkpt lat="30.510176000" lon="35.091334000">
  <ele>170.770000</ele>
  <time>2009-12-02T08:59:14Z</time>
</trkpt>
<trkpt lat="30.510175000" lon="35.091336000">
  <ele>184.230000</ele>
  <time>2009-12-02T09:01:56Z</time>
</trkpt>
<trkpt lat="30.510175000" lon="35.091336000">
  <ele>187.590000</ele>
  <time>2009-12-02T09:01:57Z</time>
</trkpt>
<trkpt lat="30.509229000" lon="35.090018000">
  <ele>187.590000</ele>
  <time>2009-12-02T09:02:06Z</time>
</trkpt>
<trkpt lat="30.509263000" lon="35.090045000">
  <ele>187.110000</ele>
  <time>2009-12-02T09:02:29Z</time>
</trkpt>
<trkpt lat="30.509250000" lon="35.089998000">
  <ele>186.630000</ele>
  <time>2009-12-02T09:02:32Z</time>
</trkpt>
<trkpt lat="30.509147000" lon="35.089899000">
  <ele>187.110000</ele>
  <time>2009-12-02T09:02:41Z</time>
</trkpt>
<trkpt lat="30.508928000" lon="35.089574000">
  <ele>184.230000</ele>
  <time>2009-12-02T09:02:56Z</time>
</trkpt>
<trkpt lat="30.508555000" lon="35.089323000">
  <ele>183.270000</ele>
  <time>2009-12-02T09:03:11Z</time>
</trkpt>
<trkpt lat="30.508163000" lon="35.089062000">
  <ele>183.750000</ele>
  <time>2009-12-02T09:03:26Z</time>
</trkpt>
<trkpt lat="30.507814000" lon="35.088897000">
  <ele>183.750000</ele>
  <time>2009-12-02T09:03:39Z</time>
</trkpt>
<trkpt lat="30.507633000" lon="35.088761000">
  <ele>184.710000</ele>
  <time>2009-12-02T09:03:46Z</time>
</trkpt>
<trkpt lat="30.507527000" lon="35.088664000">
  <ele>184.230000</ele>
  <time>2009-12-02T09:03:50Z</time>
</trkpt>
<trkpt lat="30.507118000" lon="35.088445000">
  <ele>184.230000</ele>
  <time>2009-12-02T09:04:05Z</time>
</trkpt>
<trkpt lat="30.506683000" lon="35.088255000">
  <ele>185.190000</ele>
  <time>2009-12-02T09:04:18Z</time>
</trkpt>
<trkpt lat="30.506243000" lon="35.088028000">
  <ele>187.590000</ele>
  <time>2009-12-02T09:04:32Z</time>
</trkpt>
<trkpt lat="30.505768000" lon="35.087627000">
  <ele>189.520000</ele>
  <time>2009-12-02T09:04:48Z</time>
</trkpt>
<trkpt lat="30.505469000" lon="35.087115000">
  <ele>190.000000</ele>
  <time>2009-12-02T09:05:03Z</time>
</trkpt>
<trkpt lat="30.505365000" lon="35.086675000">
  <ele>192.400000</ele>
  <time>2009-12-02T09:05:15Z</time>
</trkpt>
<trkpt lat="30.505225000" lon="35.086481000">
  <ele>191.920000</ele>
  <time>2009-12-02T09:05:22Z</time>
</trkpt>
<trkpt lat="30.505256000" lon="35.086396000">
  <ele>190.960000</ele>
  <time>2009-12-02T09:05:26Z</time>
</trkpt>
<trkpt lat="30.505492000" lon="35.086194000">
  <ele>192.400000</ele>
  <time>2009-12-02T09:05:40Z</time>
</trkpt>
<trkpt lat="30.505850000" lon="35.085982000">
  <ele>193.840000</ele>
  <time>2009-12-02T09:05:54Z</time>
</trkpt>
<trkpt lat="30.505895000" lon="35.085943000">
  <ele>192.880000</ele>
  <time>2009-12-02T09:05:56Z</time>
</trkpt>
<trkpt lat="30.506053000" lon="35.085682000">
  <ele>192.880000</ele>
  <time>2009-12-02T09:06:06Z</time>
</trkpt>
<trkpt lat="30.506108000" lon="35.085609000">
  <ele>193.360000</ele>
  <time>2009-12-02T09:06:10Z</time>
</trkpt>
<trkpt lat="30.506179000" lon="35.085537000">
  <ele>193.840000</ele>
  <time>2009-12-02T09:06:16Z</time>
</trkpt>
<trkpt lat="30.506165000" lon="35.085439000">
  <ele>193.360000</ele>
  <time>2009-12-02T09:06:22Z</time>
</trkpt>
<trkpt lat="30.506135000" lon="35.085443000">
  <ele>193.840000</ele>
  <time>2009-12-02T09:06:25Z</time>
</trkpt>
<trkpt lat="30.506043000" lon="35.085529000">
  <ele>193.360000</ele>
  <time>2009-12-02T09:06:34Z</time>
</trkpt>
<trkpt lat="30.506040000" lon="35.085595000">
  <ele>193.360000</ele>
  <time>2009-12-02T09:06:39Z</time>
</trkpt>
<trkpt lat="30.506085000" lon="35.085605000">
  <ele>193.840000</ele>
  <time>2009-12-02T09:06:55Z</time>
</trkpt>
<trkpt lat="30.506095000" lon="35.085626000">
  <ele>193.840000</ele>
  <time>2009-12-02T09:07:45Z</time>
</trkpt>
<trkpt lat="30.506170000" lon="35.085604000">
  <ele>193.360000</ele>
  <time>2009-12-02T09:07:50Z</time>
</trkpt>
<trkpt lat="30.506417000" lon="35.085268000">
  <ele>193.840000</ele>
  <time>2009-12-02T09:08:06Z</time>
</trkpt>
<trkpt lat="30.506626000" lon="35.085115000">
  <ele>194.800000</ele>
  <time>2009-12-02T09:08:16Z</time>
</trkpt>
<trkpt lat="30.506696000" lon="35.085028000">
  <ele>193.840000</ele>
  <time>2009-12-02T09:08:21Z</time>
</trkpt>
<trkpt lat="30.506758000" lon="35.085030000">
  <ele>194.800000</ele>
  <time>2009-12-02T09:08:25Z</time>
</trkpt>
<trkpt lat="30.506810000" lon="35.084999000">
  <ele>194.800000</ele>
  <time>2009-12-02T09:08:29Z</time>
</trkpt>
<trkpt lat="30.506844000" lon="35.084941000">
  <ele>195.280000</ele>
  <time>2009-12-02T09:08:32Z</time>
</trkpt>
<trkpt lat="30.507088000" lon="35.084763000">
  <ele>195.280000</ele>
  <time>2009-12-02T09:08:47Z</time>
</trkpt>
<trkpt lat="30.507196000" lon="35.084660000">
  <ele>196.730000</ele>
  <time>2009-12-02T09:08:55Z</time>
</trkpt>
<trkpt lat="30.507221000" lon="35.084653000">
  <ele>197.690000</ele>
  <time>2009-12-02T09:08:58Z</time>
</trkpt>
<trkpt lat="30.507279000" lon="35.084613000">
  <ele>198.170000</ele>
  <time>2009-12-02T09:09:09Z</time>
</trkpt>
<trkpt lat="30.507413000" lon="35.084330000">
  <ele>199.610000</ele>
  <time>2009-12-02T09:09:21Z</time>
</trkpt>
<trkpt lat="30.507400000" lon="35.084210000">
  <ele>199.130000</ele>
  <time>2009-12-02T09:09:26Z</time>
</trkpt>
<trkpt lat="30.507220000" lon="35.083732000">
  <ele>200.090000</ele>
  <time>2009-12-02T09:09:44Z</time>
</trkpt>
<trkpt lat="30.506897000" lon="35.083417000">
  <ele>200.570000</ele>
  <time>2009-12-02T09:09:59Z</time>
</trkpt>
<trkpt lat="30.506620000" lon="35.083098000">
  <ele>201.050000</ele>
  <time>2009-12-02T09:10:15Z</time>
</trkpt>
<trkpt lat="30.506589000" lon="35.083092000">
  <ele>201.530000</ele>
  <time>2009-12-02T09:10:17Z</time>
</trkpt>
<trkpt lat="30.506473000" lon="35.082959000">
  <ele>201.530000</ele>
  <time>2009-12-02T09:10:26Z</time>
</trkpt>
<trkpt lat="30.506377000" lon="35.082874000">
  <ele>202.010000</ele>
  <time>2009-12-02T09:10:31Z</time>
</trkpt>
<trkpt lat="30.506202000" lon="35.082655000">
  <ele>201.530000</ele>
  <time>2009-12-02T09:10:41Z</time>
</trkpt>
<trkpt lat="30.506189000" lon="35.082556000">
  <ele>201.050000</ele>
  <time>2009-12-02T09:10:45Z</time>
</trkpt>
<trkpt lat="30.506179000" lon="35.082519000">
  <ele>201.050000</ele>
  <time>2009-12-02T09:10:47Z</time>
</trkpt>
<trkpt lat="30.506093000" lon="35.082435000">
  <ele>202.490000</ele>
  <time>2009-12-02T09:10:54Z</time>
</trkpt>
<trkpt lat="30.505886000" lon="35.082280000">
  <ele>203.460000</ele>
  <time>2009-12-02T09:11:10Z</time>
</trkpt>
<trkpt lat="30.505816000" lon="35.082155000">
  <ele>203.460000</ele>
  <time>2009-12-02T09:11:18Z</time>
</trkpt>
<trkpt lat="30.505823000" lon="35.082073000">
  <ele>203.940000</ele>
  <time>2009-12-02T09:11:22Z</time>
</trkpt>
<trkpt lat="30.505810000" lon="35.081827000">
  <ele>207.780000</ele>
  <time>2009-12-02T09:11:32Z</time>
</trkpt>
<trkpt lat="30.505871000" lon="35.081591000">
  <ele>210.670000</ele>
  <time>2009-12-02T09:11:43Z</time>
</trkpt>
<trkpt lat="30.506014000" lon="35.081175000">
  <ele>212.110000</ele>
  <time>2009-12-02T09:12:03Z</time>
</trkpt>
<trkpt lat="30.506126000" lon="35.080963000">
  <ele>213.070000</ele>
  <time>2009-12-02T09:12:17Z</time>
</trkpt>
<trkpt lat="30.506388000" lon="35.080931000">
  <ele>215.950000</ele>
  <time>2009-12-02T09:12:34Z</time>
</trkpt>
<trkpt lat="30.506486000" lon="35.080825000">
  <ele>218.840000</ele>
  <time>2009-12-02T09:12:42Z</time>
</trkpt>
<trkpt lat="30.506521000" lon="35.080836000">
  <ele>219.320000</ele>
  <time>2009-12-02T09:12:45Z</time>
</trkpt>
<trkpt lat="30.506595000" lon="35.080920000">
  <ele>221.720000</ele>
  <time>2009-12-02T09:12:51Z</time>
</trkpt>
<trkpt lat="30.506643000" lon="35.080944000">
  <ele>222.680000</ele>
  <time>2009-12-02T09:12:54Z</time>
</trkpt>
<trkpt lat="30.506691000" lon="35.080918000">
  <ele>223.640000</ele>
  <time>2009-12-02T09:12:58Z</time>
</trkpt>
<trkpt lat="30.506713000" lon="35.080887000">
  <ele>224.120000</ele>
  <time>2009-12-02T09:13:00Z</time>
</trkpt>
<trkpt lat="30.506799000" lon="35.080908000">
  <ele>225.570000</ele>
  <time>2009-12-02T09:13:07Z</time>
</trkpt>
<trkpt lat="30.506815000" lon="35.080944000">
  <ele>226.050000</ele>
  <time>2009-12-02T09:13:10Z</time>
</trkpt>
<trkpt lat="30.506885000" lon="35.080975000">
  <ele>226.050000</ele>
  <time>2009-12-02T09:13:16Z</time>
</trkpt>
<trkpt lat="30.506925000" lon="35.081006000">
  <ele>226.530000</ele>
  <time>2009-12-02T09:13:20Z</time>
</trkpt>
<trkpt lat="30.506946000" lon="35.081026000">
  <ele>226.530000</ele>
  <time>2009-12-02T09:13:23Z</time>
</trkpt>
<trkpt lat="30.507041000" lon="35.080847000">
  <ele>227.010000</ele>
  <time>2009-12-02T09:13:34Z</time>
</trkpt>
<trkpt lat="30.507049000" lon="35.080832000">
  <ele>227.490000</ele>
  <time>2009-12-02T09:13:35Z</time>
</trkpt>
<trkpt lat="30.507105000" lon="35.080755000">
  <ele>227.970000</ele>
  <time>2009-12-02T09:13:40Z</time>
</trkpt>
<trkpt lat="30.507097000" lon="35.080674000">
  <ele>228.930000</ele>
  <time>2009-12-02T09:13:44Z</time>
</trkpt>
<trkpt lat="30.507076000" lon="35.080634000">
  <ele>229.410000</ele>
  <time>2009-12-02T09:13:47Z</time>
</trkpt>
<trkpt lat="30.507073000" lon="35.080578000">
  <ele>229.410000</ele>
  <time>2009-12-02T09:13:51Z</time>
</trkpt>
<trkpt lat="30.507125000" lon="35.080476000">
  <ele>229.410000</ele>
  <time>2009-12-02T09:14:14Z</time>
</trkpt>
<trkpt lat="30.507117000" lon="35.080482000">
  <ele>228.930000</ele>
  <time>2009-12-02T09:20:11Z</time>
</trkpt>
<trkpt lat="30.507196000" lon="35.080151000">
  <ele>228.930000</ele>
  <time>2009-12-02T09:20:26Z</time>
</trkpt>
<trkpt lat="30.507237000" lon="35.079983000">
  <ele>229.890000</ele>
  <time>2009-12-02T09:20:33Z</time>
</trkpt>
<trkpt lat="30.507299000" lon="35.079898000">
  <ele>228.930000</ele>
  <time>2009-12-02T09:20:38Z</time>
</trkpt>
<trkpt lat="30.507304000" lon="35.079798000">
  <ele>229.890000</ele>
  <time>2009-12-02T09:20:46Z</time>
</trkpt>
<trkpt lat="30.507289000" lon="35.079791000">
  <ele>228.930000</ele>
  <time>2009-12-02T09:20:48Z</time>
</trkpt>
<trkpt lat="30.507277000" lon="35.079707000">
  <ele>230.370000</ele>
  <time>2009-12-02T09:20:52Z</time>
</trkpt>
<trkpt lat="30.507250000" lon="35.079445000">
  <ele>229.890000</ele>
  <time>2009-12-02T09:21:01Z</time>
</trkpt>
<trkpt lat="30.507329000" lon="35.079146000">
  <ele>229.890000</ele>
  <time>2009-12-02T09:21:11Z</time>
</trkpt>
<trkpt lat="30.507346000" lon="35.078610000">
  <ele>229.410000</ele>
  <time>2009-12-02T09:21:25Z</time>
</trkpt>
<trkpt lat="30.507418000" lon="35.078486000">
  <ele>229.410000</ele>
  <time>2009-12-02T09:21:30Z</time>
</trkpt>
<trkpt lat="30.507410000" lon="35.078226000">
  <ele>228.930000</ele>
  <time>2009-12-02T09:21:36Z</time>
</trkpt>
<trkpt lat="30.507393000" lon="35.078095000">
  <ele>228.930000</ele>
  <time>2009-12-02T09:21:39Z</time>
</trkpt>
<trkpt lat="30.507451000" lon="35.077999000">
  <ele>229.410000</ele>
  <time>2009-12-02T09:21:43Z</time>
</trkpt>
<trkpt lat="30.507500000" lon="35.077965000">
  <ele>228.930000</ele>
  <time>2009-12-02T09:21:45Z</time>
</trkpt>
<trkpt lat="30.507508000" lon="35.077814000">
  <ele>227.490000</ele>
  <time>2009-12-02T09:21:49Z</time>
</trkpt>
<trkpt lat="30.507490000" lon="35.077746000">
  <ele>227.490000</ele>
  <time>2009-12-02T09:21:51Z</time>
</trkpt>
<trkpt lat="30.507526000" lon="35.077525000">
  <ele>223.640000</ele>
  <time>2009-12-02T09:21:59Z</time>
</trkpt>
<trkpt lat="30.507543000" lon="35.077492000">
  <ele>224.120000</ele>
  <time>2009-12-02T09:22:14Z</time>
</trkpt>
<trkpt lat="30.507567000" lon="35.077486000">
  <ele>223.640000</ele>
  <time>2009-12-02T09:22:17Z</time>
</trkpt>
<trkpt lat="30.507588000" lon="35.077449000">
  <ele>222.680000</ele>
  <time>2009-12-02T09:22:21Z</time>
</trkpt>
<trkpt lat="30.507579000" lon="35.077341000">
  <ele>222.680000</ele>
  <time>2009-12-02T09:22:26Z</time>
</trkpt>
<trkpt lat="30.507536000" lon="35.077292000">
  <ele>221.720000</ele>
  <time>2009-12-02T09:22:29Z</time>
</trkpt>
<trkpt lat="30.507587000" lon="35.077135000">
  <ele>222.680000</ele>
  <time>2009-12-02T09:22:37Z</time>
</trkpt>
<trkpt lat="30.507622000" lon="35.077084000">
  <ele>222.680000</ele>
  <time>2009-12-02T09:22:40Z</time>
</trkpt>
<trkpt lat="30.507647000" lon="35.076932000">
  <ele>223.160000</ele>
  <time>2009-12-02T09:22:49Z</time>
</trkpt>
<trkpt lat="30.507680000" lon="35.076895000">
  <ele>223.160000</ele>
  <time>2009-12-02T09:22:53Z</time>
</trkpt>
<trkpt lat="30.507706000" lon="35.076799000">
  <ele>223.640000</ele>
  <time>2009-12-02T09:22:59Z</time>
</trkpt>
<trkpt lat="30.507552000" lon="35.076521000">
  <ele>223.640000</ele>
  <time>2009-12-02T09:23:14Z</time>
</trkpt>
<trkpt lat="30.507532000" lon="35.076474000">
  <ele>224.120000</ele>
  <time>2009-12-02T09:23:16Z</time>
</trkpt>
<trkpt lat="30.507549000" lon="35.076404000">
  <ele>225.090000</ele>
  <time>2009-12-02T09:23:27Z</time>
</trkpt>
<trkpt lat="30.507553000" lon="35.076393000">
  <ele>225.090000</ele>
  <time>2009-12-02T09:23:31Z</time>
</trkpt>
<trkpt lat="30.507517000" lon="35.076338000">
  <ele>225.570000</ele>
  <time>2009-12-02T09:23:35Z</time>
</trkpt>
<trkpt lat="30.507480000" lon="35.076305000">
  <ele>225.570000</ele>
  <time>2009-12-02T09:23:37Z</time>
</trkpt>
<trkpt lat="30.507328000" lon="35.075868000">
  <ele>226.530000</ele>
  <time>2009-12-02T09:23:54Z</time>
</trkpt>
<trkpt lat="30.507263000" lon="35.075514000">
  <ele>227.490000</ele>
  <time>2009-12-02T09:24:05Z</time>
</trkpt>
<trkpt lat="30.507293000" lon="35.075118000">
  <ele>227.970000</ele>
  <time>2009-12-02T09:24:21Z</time>
</trkpt>
<trkpt lat="30.507291000" lon="35.075065000">
  <ele>227.970000</ele>
  <time>2009-12-02T09:24:25Z</time>
</trkpt>
<trkpt lat="30.507323000" lon="35.075031000">
  <ele>228.450000</ele>
  <time>2009-12-02T09:24:28Z</time>
</trkpt>
<trkpt lat="30.507584000" lon="35.074939000">
  <ele>228.450000</ele>
  <time>2009-12-02T09:24:42Z</time>
</trkpt>
<trkpt lat="30.507604000" lon="35.074928000">
  <ele>229.410000</ele>
  <time>2009-12-02T09:24:43Z</time>
</trkpt>
<trkpt lat="30.507707000" lon="35.074904000">
  <ele>230.370000</ele>
  <time>2009-12-02T09:24:48Z</time>
</trkpt>
<trkpt lat="30.507827000" lon="35.074910000">
  <ele>230.370000</ele>
  <time>2009-12-02T09:24:54Z</time>
</trkpt>
<trkpt lat="30.507926000" lon="35.074877000">
  <ele>230.370000</ele>
  <time>2009-12-02T09:25:00Z</time>
</trkpt>
<trkpt lat="30.507975000" lon="35.074889000">
  <ele>230.850000</ele>
  <time>2009-12-02T09:25:03Z</time>
</trkpt>
<trkpt lat="30.508244000" lon="35.074832000">
  <ele>231.810000</ele>
  <time>2009-12-02T09:25:16Z</time>
</trkpt>
<trkpt lat="30.508341000" lon="35.074872000">
  <ele>231.810000</ele>
  <time>2009-12-02T09:25:22Z</time>
</trkpt>
<trkpt lat="30.508469000" lon="35.074757000">
  <ele>232.300000</ele>
  <time>2009-12-02T09:25:30Z</time>
</trkpt>
<trkpt lat="30.508594000" lon="35.074477000">
  <ele>233.740000</ele>
  <time>2009-12-02T09:25:44Z</time>
</trkpt>
<trkpt lat="30.508667000" lon="35.074444000">
  <ele>233.740000</ele>
  <time>2009-12-02T09:25:49Z</time>
</trkpt>
<trkpt lat="30.508830000" lon="35.074212000">
  <ele>236.620000</ele>
  <time>2009-12-02T09:26:02Z</time>
</trkpt>
<trkpt lat="30.509204000" lon="35.074044000">
  <ele>239.020000</ele>
  <time>2009-12-02T09:26:20Z</time>
</trkpt>
<trkpt lat="30.509379000" lon="35.073967000">
  <ele>239.990000</ele>
  <time>2009-12-02T09:26:29Z</time>
</trkpt>
<trkpt lat="30.509562000" lon="35.073866000">
  <ele>240.950000</ele>
  <time>2009-12-02T09:26:43Z</time>
</trkpt>
<trkpt lat="30.509572000" lon="35.073834000">
  <ele>240.950000</ele>
  <time>2009-12-02T09:26:58Z</time>
</trkpt>
<trkpt lat="30.509575000" lon="35.073826000">
  <ele>240.950000</ele>
  <time>2009-12-02T09:26:59Z</time>
</trkpt>
<trkpt lat="30.509645000" lon="35.073721000">
  <ele>242.390000</ele>
  <time>2009-12-02T09:27:08Z</time>
</trkpt>
<trkpt lat="30.509692000" lon="35.073723000">
  <ele>242.870000</ele>
  <time>2009-12-02T09:27:12Z</time>
</trkpt>
<trkpt lat="30.509784000" lon="35.073680000">
  <ele>242.390000</ele>
  <time>2009-12-02T09:27:18Z</time>
</trkpt>
<trkpt lat="30.509868000" lon="35.073660000">
  <ele>240.950000</ele>
  <time>2009-12-02T09:27:30Z</time>
</trkpt>
<trkpt lat="30.510075000" lon="35.073661000">
  <ele>240.950000</ele>
  <time>2009-12-02T09:27:45Z</time>
</trkpt>
<trkpt lat="30.510135000" lon="35.073661000">
  <ele>241.430000</ele>
  <time>2009-12-02T09:27:49Z</time>
</trkpt>
<trkpt lat="30.510276000" lon="35.073785000">
  <ele>242.390000</ele>
  <time>2009-12-02T09:28:00Z</time>
</trkpt>
<trkpt lat="30.510290000" lon="35.073811000">
  <ele>242.390000</ele>
  <time>2009-12-02T09:28:02Z</time>
</trkpt>
<trkpt lat="30.510372000" lon="35.073826000">
  <ele>243.350000</ele>
  <time>2009-12-02T09:28:07Z</time>
</trkpt>
<trkpt lat="30.510425000" lon="35.073708000">
  <ele>242.870000</ele>
  <time>2009-12-02T09:28:19Z</time>
</trkpt>
<trkpt lat="30.510435000" lon="35.073655000">
  <ele>242.870000</ele>
  <time>2009-12-02T09:28:29Z</time>
</trkpt>
<trkpt lat="30.510516000" lon="35.073584000">
  <ele>243.350000</ele>
  <time>2009-12-02T09:28:35Z</time>
</trkpt>
<trkpt lat="30.510538000" lon="35.073571000">
  <ele>243.830000</ele>
  <time>2009-12-02T09:28:37Z</time>
</trkpt>
<trkpt lat="30.510581000" lon="35.073464000">
  <ele>243.830000</ele>
  <time>2009-12-02T09:28:43Z</time>
</trkpt>
<trkpt lat="30.510642000" lon="35.073361000">
  <ele>244.310000</ele>
  <time>2009-12-02T09:28:48Z</time>
</trkpt>
<trkpt lat="30.511068000" lon="35.073198000">
  <ele>246.720000</ele>
  <time>2009-12-02T09:29:09Z</time>
</trkpt>
<trkpt lat="30.511261000" lon="35.072862000">
  <ele>247.680000</ele>
  <time>2009-12-02T09:29:24Z</time>
</trkpt>
<trkpt lat="30.511270000" lon="35.072836000">
  <ele>247.680000</ele>
  <time>2009-12-02T09:29:25Z</time>
</trkpt>
<trkpt lat="30.511278000" lon="35.072331000">
  <ele>249.120000</ele>
  <time>2009-12-02T09:29:44Z</time>
</trkpt>
<trkpt lat="30.511175000" lon="35.072106000">
  <ele>249.600000</ele>
  <time>2009-12-02T09:29:55Z</time>
</trkpt>
<trkpt lat="30.511006000" lon="35.071929000">
  <ele>250.080000</ele>
  <time>2009-12-02T09:30:07Z</time>
</trkpt>
<trkpt lat="30.510758000" lon="35.071856000">
  <ele>251.520000</ele>
  <time>2009-12-02T09:30:20Z</time>
</trkpt>
<trkpt lat="30.510475000" lon="35.071912000">
  <ele>252.480000</ele>
  <time>2009-12-02T09:30:34Z</time>
</trkpt>
<trkpt lat="30.510380000" lon="35.071767000">
  <ele>253.930000</ele>
  <time>2009-12-02T09:30:42Z</time>
</trkpt>
<trkpt lat="30.510090000" lon="35.071481000">
  <ele>254.410000</ele>
  <time>2009-12-02T09:30:58Z</time>
</trkpt>
<trkpt lat="30.509852000" lon="35.071070000">
  <ele>255.850000</ele>
  <time>2009-12-02T09:31:17Z</time>
</trkpt>
<trkpt lat="30.509779000" lon="35.070882000">
  <ele>255.850000</ele>
  <time>2009-12-02T09:31:24Z</time>
</trkpt>
<trkpt lat="30.509680000" lon="35.070507000">
  <ele>257.290000</ele>
  <time>2009-12-02T09:31:38Z</time>
</trkpt>
<trkpt lat="30.509531000" lon="35.070221000">
  <ele>258.250000</ele>
  <time>2009-12-02T09:31:50Z</time>
</trkpt>
<trkpt lat="30.509501000" lon="35.070104000">
  <ele>258.730000</ele>
  <time>2009-12-02T09:31:54Z</time>
</trkpt>
<trkpt lat="30.509266000" lon="35.069895000">
  <ele>259.210000</ele>
  <time>2009-12-02T09:32:06Z</time>
</trkpt>
<trkpt lat="30.509117000" lon="35.069719000">
  <ele>259.690000</ele>
  <time>2009-12-02T09:32:14Z</time>
</trkpt>
<trkpt lat="30.508981000" lon="35.069372000">
  <ele>260.650000</ele>
  <time>2009-12-02T09:32:26Z</time>
</trkpt>
<trkpt lat="30.508837000" lon="35.069031000">
  <ele>261.620000</ele>
  <time>2009-12-02T09:32:38Z</time>
</trkpt>
<trkpt lat="30.508715000" lon="35.068550000">
  <ele>263.060000</ele>
  <time>2009-12-02T09:32:53Z</time>
</trkpt>
<trkpt lat="30.508490000" lon="35.067901000">
  <ele>264.980000</ele>
  <time>2009-12-02T09:33:13Z</time>
</trkpt>
<trkpt lat="30.508314000" lon="35.067379000">
  <ele>266.420000</ele>
  <time>2009-12-02T09:33:30Z</time>
</trkpt>
<trkpt lat="30.508322000" lon="35.067009000">
  <ele>268.350000</ele>
  <time>2009-12-02T09:33:44Z</time>
</trkpt>
<trkpt lat="30.508315000" lon="35.066687000">
  <ele>267.860000</ele>
  <time>2009-12-02T09:33:56Z</time>
</trkpt>
<trkpt lat="30.508490000" lon="35.066177000">
  <ele>269.310000</ele>
  <time>2009-12-02T09:34:17Z</time>
</trkpt>
<trkpt lat="30.508505000" lon="35.066151000">
  <ele>269.790000</ele>
  <time>2009-12-02T09:34:18Z</time>
</trkpt>
<trkpt lat="30.508722000" lon="35.065759000">
  <ele>270.270000</ele>
  <time>2009-12-02T09:34:34Z</time>
</trkpt>
<trkpt lat="30.508762000" lon="35.065729000">
  <ele>270.750000</ele>
  <time>2009-12-02T09:34:36Z</time>
</trkpt>
<trkpt lat="30.509006000" lon="35.065286000">
  <ele>271.710000</ele>
  <time>2009-12-02T09:34:53Z</time>
</trkpt>
<trkpt lat="30.509096000" lon="35.064761000">
  <ele>272.670000</ele>
  <time>2009-12-02T09:35:09Z</time>
</trkpt>
<trkpt lat="30.509068000" lon="35.064254000">
  <ele>274.110000</ele>
  <time>2009-12-02T09:35:24Z</time>
</trkpt>
<trkpt lat="30.509213000" lon="35.063635000">
  <ele>275.560000</ele>
  <time>2009-12-02T09:35:42Z</time>
</trkpt>
<trkpt lat="30.509231000" lon="35.063081000">
  <ele>277.000000</ele>
  <time>2009-12-02T09:35:57Z</time>
</trkpt>
<trkpt lat="30.509191000" lon="35.062906000">
  <ele>277.480000</ele>
  <time>2009-12-02T09:36:02Z</time>
</trkpt>
<trkpt lat="30.509159000" lon="35.062360000">
  <ele>279.400000</ele>
  <time>2009-12-02T09:36:18Z</time>
</trkpt>
<trkpt lat="30.509089000" lon="35.061903000">
  <ele>280.360000</ele>
  <time>2009-12-02T09:36:33Z</time>
</trkpt>
<trkpt lat="30.509102000" lon="35.061788000">
  <ele>279.880000</ele>
  <time>2009-12-02T09:36:37Z</time>
</trkpt>
<trkpt lat="30.508993000" lon="35.061304000">
  <ele>280.840000</ele>
  <time>2009-12-02T09:36:53Z</time>
</trkpt>
<trkpt lat="30.508959000" lon="35.061232000">
  <ele>280.840000</ele>
  <time>2009-12-02T09:36:56Z</time>
</trkpt>
<trkpt lat="30.508985000" lon="35.061125000">
  <ele>281.800000</ele>
  <time>2009-12-02T09:37:01Z</time>
</trkpt>
<trkpt lat="30.509030000" lon="35.061008000">
  <ele>282.280000</ele>
  <time>2009-12-02T09:37:06Z</time>
</trkpt>
<trkpt lat="30.509025000" lon="35.060933000">
  <ele>282.280000</ele>
  <time>2009-12-02T09:37:19Z</time>
</trkpt>
<trkpt lat="30.509017000" lon="35.060930000">
  <ele>282.280000</ele>
  <time>2009-12-02T09:37:51Z</time>
</trkpt>
<trkpt lat="30.508943000" lon="35.060899000">
  <ele>281.800000</ele>
  <time>2009-12-02T09:38:02Z</time>
</trkpt>
<trkpt lat="30.508923000" lon="35.060890000">
  <ele>281.320000</ele>
  <time>2009-12-02T09:38:15Z</time>
</trkpt>
<trkpt lat="30.508929000" lon="35.060891000">
  <ele>280.840000</ele>
  <time>2009-12-02T09:40:52Z</time>
</trkpt>
<trkpt lat="30.508952000" lon="35.060853000">
  <ele>280.840000</ele>
  <time>2009-12-02T09:43:07Z</time>
</trkpt>
<trkpt lat="30.509024000" lon="35.060946000">
  <ele>280.840000</ele>
  <time>2009-12-02T09:43:22Z</time>
</trkpt>
<trkpt lat="30.509027000" lon="35.060945000">
  <ele>281.800000</ele>
  <time>2009-12-02T09:43:54Z</time>
</trkpt>
<trkpt lat="30.509032000" lon="35.060948000">
  <ele>280.840000</ele>
  <time>2009-12-02T09:45:34Z</time>
</trkpt>
<trkpt lat="30.509054000" lon="35.060957000">
  <ele>277.480000</ele>
  <time>2009-12-02T10:09:17Z</time>
</trkpt>
<trkpt lat="30.509059000" lon="35.060955000">
  <ele>277.480000</ele>
  <time>2009-12-02T10:18:00Z</time>
</trkpt>
<trkpt lat="30.509046000" lon="35.060914000">
  <ele>277.960000</ele>
  <time>2009-12-02T10:23:37Z</time>
</trkpt>
<trkpt lat="30.509027000" lon="35.060889000">
  <ele>277.960000</ele>
  <time>2009-12-02T10:23:42Z</time>
</trkpt>
<trkpt lat="30.509019000" lon="35.060826000">
  <ele>278.920000</ele>
  <time>2009-12-02T10:23:47Z</time>
</trkpt>
<trkpt lat="30.508981000" lon="35.060649000">
  <ele>278.920000</ele>
  <time>2009-12-02T10:23:58Z</time>
</trkpt>
<trkpt lat="30.508852000" lon="35.060547000">
  <ele>278.440000</ele>
  <time>2009-12-02T10:24:12Z</time>
</trkpt>
<trkpt lat="30.508835000" lon="35.060507000">
  <ele>278.920000</ele>
  <time>2009-12-02T10:24:16Z</time>
</trkpt>
<trkpt lat="30.508798000" lon="35.060172000">
  <ele>279.880000</ele>
  <time>2009-12-02T10:24:29Z</time>
</trkpt>
<trkpt lat="30.508797000" lon="35.059963000">
  <ele>280.360000</ele>
  <time>2009-12-02T10:24:35Z</time>
</trkpt>
<trkpt lat="30.509005000" lon="35.059357000">
  <ele>282.280000</ele>
  <time>2009-12-02T10:24:54Z</time>
</trkpt>
<trkpt lat="30.509256000" lon="35.058775000">
  <ele>283.730000</ele>
  <time>2009-12-02T10:25:12Z</time>
</trkpt>
<trkpt lat="30.509608000" lon="35.058359000">
  <ele>284.690000</ele>
  <time>2009-12-02T10:25:28Z</time>
</trkpt>
<trkpt lat="30.509968000" lon="35.057840000">
  <ele>286.610000</ele>
  <time>2009-12-02T10:25:46Z</time>
</trkpt>
<trkpt lat="30.510297000" lon="35.057658000">
  <ele>288.050000</ele>
  <time>2009-12-02T10:25:59Z</time>
</trkpt>
<trkpt lat="30.510571000" lon="35.057636000">
  <ele>289.490000</ele>
  <time>2009-12-02T10:26:12Z</time>
</trkpt>
<trkpt lat="30.510911000" lon="35.057662000">
  <ele>289.490000</ele>
  <time>2009-12-02T10:26:27Z</time>
</trkpt>
<trkpt lat="30.511074000" lon="35.057885000">
  <ele>289.970000</ele>
  <time>2009-12-02T10:26:39Z</time>
</trkpt>
<trkpt lat="30.511447000" lon="35.057954000">
  <ele>291.420000</ele>
  <time>2009-12-02T10:26:56Z</time>
</trkpt>
<trkpt lat="30.511538000" lon="35.057966000">
  <ele>292.380000</ele>
  <time>2009-12-02T10:27:01Z</time>
</trkpt>
<trkpt lat="30.511793000" lon="35.057966000">
  <ele>292.860000</ele>
  <time>2009-12-02T10:27:14Z</time>
</trkpt>
<trkpt lat="30.511910000" lon="35.058037000">
  <ele>293.340000</ele>
  <time>2009-12-02T10:27:20Z</time>
</trkpt>
<trkpt lat="30.512027000" lon="35.058058000">
  <ele>293.820000</ele>
  <time>2009-12-02T10:27:25Z</time>
</trkpt>
<trkpt lat="30.512346000" lon="35.058139000">
  <ele>294.780000</ele>
  <time>2009-12-02T10:27:40Z</time>
</trkpt>
<trkpt lat="30.512447000" lon="35.058100000">
  <ele>295.740000</ele>
  <time>2009-12-02T10:27:46Z</time>
</trkpt>
<trkpt lat="30.512725000" lon="35.057725000">
  <ele>297.670000</ele>
  <time>2009-12-02T10:28:05Z</time>
</trkpt>
<trkpt lat="30.512853000" lon="35.057547000">
  <ele>297.670000</ele>
  <time>2009-12-02T10:28:14Z</time>
</trkpt>
<trkpt lat="30.512878000" lon="35.057499000">
  <ele>297.670000</ele>
  <time>2009-12-02T10:28:16Z</time>
</trkpt>
<trkpt lat="30.512916000" lon="35.057468000">
  <ele>298.150000</ele>
  <time>2009-12-02T10:28:18Z</time>
</trkpt>
<trkpt lat="30.512978000" lon="35.057350000">
  <ele>298.630000</ele>
  <time>2009-12-02T10:28:24Z</time>
</trkpt>
<trkpt lat="30.513049000" lon="35.057349000">
  <ele>298.630000</ele>
  <time>2009-12-02T10:28:28Z</time>
</trkpt>
<trkpt lat="30.513074000" lon="35.057337000">
  <ele>298.150000</ele>
  <time>2009-12-02T10:28:48Z</time>
</trkpt>
<trkpt lat="30.513085000" lon="35.057341000">
  <ele>298.150000</ele>
  <time>2009-12-02T10:29:55Z</time>
</trkpt>
<trkpt lat="30.513171000" lon="35.057404000">
  <ele>298.150000</ele>
  <time>2009-12-02T10:30:02Z</time>
</trkpt>
<trkpt lat="30.513416000" lon="35.057384000">
  <ele>299.110000</ele>
  <time>2009-12-02T10:30:15Z</time>
</trkpt>
<trkpt lat="30.513432000" lon="35.057376000">
  <ele>299.110000</ele>
  <time>2009-12-02T10:30:16Z</time>
</trkpt>
<trkpt lat="30.513447000" lon="35.057369000">
  <ele>299.110000</ele>
  <time>2009-12-02T10:30:17Z</time>
</trkpt>
<trkpt lat="30.513545000" lon="35.057365000">
  <ele>298.630000</ele>
  <time>2009-12-02T10:30:24Z</time>
</trkpt>
<trkpt lat="30.513621000" lon="35.057301000">
  <ele>299.110000</ele>
  <time>2009-12-02T10:30:29Z</time>
</trkpt>
<trkpt lat="30.513657000" lon="35.057285000">
  <ele>299.590000</ele>
  <time>2009-12-02T10:30:32Z</time>
</trkpt>
<trkpt lat="30.513701000" lon="35.057250000">
  <ele>299.590000</ele>
  <time>2009-12-02T10:30:36Z</time>
</trkpt>
<trkpt lat="30.513715000" lon="35.057190000">
  <ele>300.070000</ele>
  <time>2009-12-02T10:30:40Z</time>
</trkpt>
<trkpt lat="30.513846000" lon="35.056903000">
  <ele>302.950000</ele>
  <time>2009-12-02T10:30:55Z</time>
</trkpt>
<trkpt lat="30.514002000" lon="35.056613000">
  <ele>303.430000</ele>
  <time>2009-12-02T10:31:11Z</time>
</trkpt>
<trkpt lat="30.514155000" lon="35.056370000">
  <ele>305.360000</ele>
  <time>2009-12-02T10:31:30Z</time>
</trkpt>
<trkpt lat="30.514206000" lon="35.056242000">
  <ele>304.880000</ele>
  <time>2009-12-02T10:31:46Z</time>
</trkpt>
<trkpt lat="30.514207000" lon="35.056243000">
  <ele>304.880000</ele>
  <time>2009-12-02T10:32:22Z</time>
</trkpt>
<trkpt lat="30.514236000" lon="35.056214000">
  <ele>304.880000</ele>
  <time>2009-12-02T10:32:26Z</time>
</trkpt>
<trkpt lat="30.514599000" lon="35.055835000">
  <ele>307.280000</ele>
  <time>2009-12-02T10:32:49Z</time>
</trkpt>
<trkpt lat="30.514946000" lon="35.055599000">
  <ele>308.720000</ele>
  <time>2009-12-02T10:33:09Z</time>
</trkpt>
<trkpt lat="30.515106000" lon="35.055264000">
  <ele>308.720000</ele>
  <time>2009-12-02T10:33:24Z</time>
</trkpt>
<trkpt lat="30.515106000" lon="35.055232000">
  <ele>309.200000</ele>
  <time>2009-12-02T10:33:25Z</time>
</trkpt>
<trkpt lat="30.515073000" lon="35.055148000">
  <ele>309.680000</ele>
  <time>2009-12-02T10:33:29Z</time>
</trkpt>
<trkpt lat="30.514974000" lon="35.054715000">
  <ele>311.600000</ele>
  <time>2009-12-02T10:33:45Z</time>
</trkpt>
<trkpt lat="30.515045000" lon="35.054473000">
  <ele>312.570000</ele>
  <time>2009-12-02T10:33:58Z</time>
</trkpt>
<trkpt lat="30.515079000" lon="35.054404000">
  <ele>310.640000</ele>
  <time>2009-12-02T10:34:18Z</time>
</trkpt>
<trkpt lat="30.515095000" lon="35.054345000">
  <ele>310.640000</ele>
  <time>2009-12-02T10:34:25Z</time>
</trkpt>
<trkpt lat="30.515275000" lon="35.054142000">
  <ele>311.600000</ele>
  <time>2009-12-02T10:34:39Z</time>
</trkpt>
<trkpt lat="30.515271000" lon="35.054103000">
  <ele>311.600000</ele>
  <time>2009-12-02T10:34:41Z</time>
</trkpt>
<trkpt lat="30.515267000" lon="35.053817000">
  <ele>312.090000</ele>
  <time>2009-12-02T10:34:54Z</time>
</trkpt>
<trkpt lat="30.515428000" lon="35.053614000">
  <ele>312.090000</ele>
  <time>2009-12-02T10:35:05Z</time>
</trkpt>
<trkpt lat="30.515552000" lon="35.053525000">
  <ele>313.050000</ele>
  <time>2009-12-02T10:35:11Z</time>
</trkpt>
<trkpt lat="30.515604000" lon="35.053421000">
  <ele>313.530000</ele>
  <time>2009-12-02T10:35:16Z</time>
</trkpt>
<trkpt lat="30.515688000" lon="35.053124000">
  <ele>314.010000</ele>
  <time>2009-12-02T10:35:28Z</time>
</trkpt>
<trkpt lat="30.515715000" lon="35.053056000">
  <ele>314.970000</ele>
  <time>2009-12-02T10:35:31Z</time>
</trkpt>
<trkpt lat="30.515876000" lon="35.052798000">
  <ele>315.450000</ele>
  <time>2009-12-02T10:35:43Z</time>
</trkpt>
<trkpt lat="30.516047000" lon="35.052429000">
  <ele>317.370000</ele>
  <time>2009-12-02T10:35:59Z</time>
</trkpt>
<trkpt lat="30.516243000" lon="35.052027000">
  <ele>319.300000</ele>
  <time>2009-12-02T10:36:17Z</time>
</trkpt>
<trkpt lat="30.516407000" lon="35.051779000">
  <ele>319.300000</ele>
  <time>2009-12-02T10:36:31Z</time>
</trkpt>
<trkpt lat="30.516472000" lon="35.051706000">
  <ele>319.780000</ele>
  <time>2009-12-02T10:36:36Z</time>
</trkpt>
<trkpt lat="30.516519000" lon="35.051491000">
  <ele>320.740000</ele>
  <time>2009-12-02T10:36:46Z</time>
</trkpt>
<trkpt lat="30.516694000" lon="35.051221000">
  <ele>322.180000</ele>
  <time>2009-12-02T10:37:00Z</time>
</trkpt>
<trkpt lat="30.516725000" lon="35.051197000">
  <ele>322.180000</ele>
  <time>2009-12-02T10:37:02Z</time>
</trkpt>
<trkpt lat="30.516751000" lon="35.050908000">
  <ele>323.620000</ele>
  <time>2009-12-02T10:37:14Z</time>
</trkpt>
<trkpt lat="30.516771000" lon="35.050862000">
  <ele>324.100000</ele>
  <time>2009-12-02T10:37:23Z</time>
</trkpt>
<trkpt lat="30.516761000" lon="35.050849000">
  <ele>323.140000</ele>
  <time>2009-12-02T10:37:27Z</time>
</trkpt>
<trkpt lat="30.516769000" lon="35.050848000">
  <ele>324.580000</ele>
  <time>2009-12-02T10:37:44Z</time>
</trkpt>
<trkpt lat="30.516783000" lon="35.050791000">
  <ele>324.580000</ele>
  <time>2009-12-02T10:37:54Z</time>
</trkpt>
<trkpt lat="30.516786000" lon="35.050782000">
  <ele>324.580000</ele>
  <time>2009-12-02T10:37:56Z</time>
</trkpt>
<trkpt lat="30.516828000" lon="35.050691000">
  <ele>325.060000</ele>
  <time>2009-12-02T10:38:03Z</time>
</trkpt>
<trkpt lat="30.516855000" lon="35.050625000">
  <ele>324.580000</ele>
  <time>2009-12-02T10:38:07Z</time>
</trkpt>
<trkpt lat="30.516958000" lon="35.050445000">
  <ele>325.540000</ele>
  <time>2009-12-02T10:38:21Z</time>
</trkpt>
<trkpt lat="30.516991000" lon="35.050414000">
  <ele>326.020000</ele>
  <time>2009-12-02T10:38:33Z</time>
</trkpt>
<trkpt lat="30.517120000" lon="35.050368000">
  <ele>326.500000</ele>
  <time>2009-12-02T10:38:41Z</time>
</trkpt>
<trkpt lat="30.517368000" lon="35.050172000">
  <ele>327.950000</ele>
  <time>2009-12-02T10:38:56Z</time>
</trkpt>
<trkpt lat="30.517403000" lon="35.050151000">
  <ele>327.950000</ele>
  <time>2009-12-02T10:38:58Z</time>
</trkpt>
<trkpt lat="30.517501000" lon="35.050042000">
  <ele>328.430000</ele>
  <time>2009-12-02T10:39:05Z</time>
</trkpt>
<trkpt lat="30.517666000" lon="35.049785000">
  <ele>329.390000</ele>
  <time>2009-12-02T10:39:20Z</time>
</trkpt>
<trkpt lat="30.517682000" lon="35.049750000">
  <ele>329.870000</ele>
  <time>2009-12-02T10:39:22Z</time>
</trkpt>
<trkpt lat="30.517733000" lon="35.049727000">
  <ele>330.350000</ele>
  <time>2009-12-02T10:39:25Z</time>
</trkpt>
<trkpt lat="30.517865000" lon="35.049723000">
  <ele>330.830000</ele>
  <time>2009-12-02T10:39:33Z</time>
</trkpt>
<trkpt lat="30.518074000" lon="35.049515000">
  <ele>334.200000</ele>
  <time>2009-12-02T10:39:49Z</time>
</trkpt>
<trkpt lat="30.518193000" lon="35.049454000">
  <ele>337.560000</ele>
  <time>2009-12-02T10:40:00Z</time>
</trkpt>
<trkpt lat="30.518248000" lon="35.049418000">
  <ele>339.480000</ele>
  <time>2009-12-02T10:40:14Z</time>
</trkpt>
<trkpt lat="30.518294000" lon="35.049445000">
  <ele>341.410000</ele>
  <time>2009-12-02T10:40:29Z</time>
</trkpt>
<trkpt lat="30.518441000" lon="35.049442000">
  <ele>344.290000</ele>
  <time>2009-12-02T10:41:56Z</time>
</trkpt>
<trkpt lat="30.518549000" lon="35.049455000">
  <ele>348.130000</ele>
  <time>2009-12-02T10:42:11Z</time>
</trkpt>
<trkpt lat="30.518674000" lon="35.049451000">
  <ele>351.020000</ele>
  <time>2009-12-02T10:42:28Z</time>
</trkpt>
<trkpt lat="30.518830000" lon="35.049501000">
  <ele>353.900000</ele>
  <time>2009-12-02T10:42:48Z</time>
</trkpt>
<trkpt lat="30.519046000" lon="35.049532000">
  <ele>354.860000</ele>
  <time>2009-12-02T10:43:15Z</time>
</trkpt>
<trkpt lat="30.519054000" lon="35.049538000">
  <ele>358.710000</ele>
  <time>2009-12-02T10:43:16Z</time>
</trkpt>
<trkpt lat="30.519063000" lon="35.049543000">
  <ele>358.710000</ele>
  <time>2009-12-02T10:43:17Z</time>
</trkpt>
<trkpt lat="30.519114000" lon="35.049559000">
  <ele>358.710000</ele>
  <time>2009-12-02T10:43:44Z</time>
</trkpt>
<trkpt lat="30.519172000" lon="35.049567000">
  <ele>359.670000</ele>
  <time>2009-12-02T10:43:58Z</time>
</trkpt>
<trkpt lat="30.519466000" lon="35.049578000">
  <ele>362.550000</ele>
  <time>2009-12-02T10:44:15Z</time>
</trkpt>
<trkpt lat="30.519810000" lon="35.049531000">
  <ele>365.440000</ele>
  <time>2009-12-02T10:44:34Z</time>
</trkpt>
<trkpt lat="30.520090000" lon="35.049392000">
  <ele>366.400000</ele>
  <time>2009-12-02T10:44:51Z</time>
</trkpt>
<trkpt lat="30.520150000" lon="35.049342000">
  <ele>367.360000</ele>
  <time>2009-12-02T10:45:04Z</time>
</trkpt>
<trkpt lat="30.520152000" lon="35.049339000">
  <ele>366.880000</ele>
  <time>2009-12-02T10:45:09Z</time>
</trkpt>
<trkpt lat="30.520165000" lon="35.049299000">
  <ele>366.880000</ele>
  <time>2009-12-02T10:45:12Z</time>
</trkpt>
<trkpt lat="30.520252000" lon="35.049272000">
  <ele>366.880000</ele>
  <time>2009-12-02T10:45:26Z</time>
</trkpt>
<trkpt lat="30.520317000" lon="35.049288000">
  <ele>367.360000</ele>
  <time>2009-12-02T10:45:41Z</time>
</trkpt>
<trkpt lat="30.520354000" lon="35.049309000">
  <ele>367.360000</ele>
  <time>2009-12-02T10:45:54Z</time>
</trkpt>
<trkpt lat="30.520405000" lon="35.049298000">
  <ele>367.360000</ele>
  <time>2009-12-02T10:46:09Z</time>
</trkpt>
<trkpt lat="30.520445000" lon="35.049294000">
  <ele>366.880000</ele>
  <time>2009-12-02T10:46:25Z</time>
</trkpt>
<trkpt lat="30.520490000" lon="35.049320000">
  <ele>366.400000</ele>
  <time>2009-12-02T10:46:40Z</time>
</trkpt>
<trkpt lat="30.520514000" lon="35.049346000">
  <ele>366.400000</ele>
  <time>2009-12-02T10:46:54Z</time>
</trkpt>
<trkpt lat="30.520565000" lon="35.049374000">
  <ele>365.920000</ele>
  <time>2009-12-02T10:47:07Z</time>
</trkpt>
<trkpt lat="30.520620000" lon="35.049395000">
  <ele>366.400000</ele>
  <time>2009-12-02T10:47:19Z</time>
</trkpt>
<trkpt lat="30.520715000" lon="35.049461000">
  <ele>367.360000</ele>
  <time>2009-12-02T10:47:35Z</time>
</trkpt>
<trkpt lat="30.520766000" lon="35.049543000">
  <ele>367.360000</ele>
  <time>2009-12-02T10:47:50Z</time>
</trkpt>
<trkpt lat="30.520753000" lon="35.049605000">
  <ele>366.880000</ele>
  <time>2009-12-02T10:48:20Z</time>
</trkpt>
<trkpt lat="30.520749000" lon="35.049624000">
  <ele>364.960000</ele>
  <time>2009-12-02T10:48:22Z</time>
</trkpt>
<trkpt lat="30.520768000" lon="35.049715000">
  <ele>362.070000</ele>
  <time>2009-12-02T10:48:33Z</time>
</trkpt>
<trkpt lat="30.520791000" lon="35.049744000">
  <ele>360.630000</ele>
  <time>2009-12-02T10:48:37Z</time>
</trkpt>
<trkpt lat="30.520861000" lon="35.049803000">
  <ele>362.550000</ele>
  <time>2009-12-02T10:48:51Z</time>
</trkpt>
<trkpt lat="30.520908000" lon="35.049915000">
  <ele>365.440000</ele>
  <time>2009-12-02T10:49:06Z</time>
</trkpt>
<trkpt lat="30.520924000" lon="35.050014000">
  <ele>365.920000</ele>
  <time>2009-12-02T10:49:23Z</time>
</trkpt>
<trkpt lat="30.520932000" lon="35.050017000">
  <ele>365.440000</ele>
  <time>2009-12-02T10:49:47Z</time>
</trkpt>
<trkpt lat="30.520962000" lon="35.050023000">
  <ele>365.440000</ele>
  <time>2009-12-02T10:49:50Z</time>
</trkpt>
<trkpt lat="30.521075000" lon="35.049952000">
  <ele>366.400000</ele>
  <time>2009-12-02T10:49:59Z</time>
</trkpt>
<trkpt lat="30.521139000" lon="35.049923000">
  <ele>366.400000</ele>
  <time>2009-12-02T10:50:04Z</time>
</trkpt>
<trkpt lat="30.521148000" lon="35.049844000">
  <ele>366.400000</ele>
  <time>2009-12-02T10:50:09Z</time>
</trkpt>
<trkpt lat="30.521142000" lon="35.049807000">
  <ele>366.400000</ele>
  <time>2009-12-02T10:50:12Z</time>
</trkpt>
<trkpt lat="30.521152000" lon="35.049760000">
  <ele>366.880000</ele>
  <time>2009-12-02T10:50:15Z</time>
</trkpt>
<trkpt lat="30.521224000" lon="35.049776000">
  <ele>367.840000</ele>
  <time>2009-12-02T10:50:20Z</time>
</trkpt>
<trkpt lat="30.521335000" lon="35.049848000">
  <ele>370.240000</ele>
  <time>2009-12-02T10:50:34Z</time>
</trkpt>
<trkpt lat="30.521374000" lon="35.049863000">
  <ele>370.730000</ele>
  <time>2009-12-02T10:50:39Z</time>
</trkpt>
<trkpt lat="30.521452000" lon="35.049782000">
  <ele>371.210000</ele>
  <time>2009-12-02T10:50:52Z</time>
</trkpt>
<trkpt lat="30.521552000" lon="35.049793000">
  <ele>374.090000</ele>
  <time>2009-12-02T10:51:09Z</time>
</trkpt>
<trkpt lat="30.521576000" lon="35.049769000">
  <ele>374.570000</ele>
  <time>2009-12-02T10:51:25Z</time>
</trkpt>
<trkpt lat="30.521568000" lon="35.049755000">
  <ele>375.530000</ele>
  <time>2009-12-02T10:51:37Z</time>
</trkpt>
<trkpt lat="30.521528000" lon="35.049737000">
  <ele>376.490000</ele>
  <time>2009-12-02T10:52:21Z</time>
</trkpt>
<trkpt lat="30.521525000" lon="35.049716000">
  <ele>375.050000</ele>
  <time>2009-12-02T10:52:42Z</time>
</trkpt>
<trkpt lat="30.521526000" lon="35.049398000">
  <ele>376.970000</ele>
  <time>2009-12-02T10:52:55Z</time>
</trkpt>
<trkpt lat="30.521541000" lon="35.049357000">
  <ele>378.420000</ele>
  <time>2009-12-02T10:52:57Z</time>
</trkpt>
<trkpt lat="30.521585000" lon="35.049279000">
  <ele>379.860000</ele>
  <time>2009-12-02T10:53:01Z</time>
</trkpt>
<trkpt lat="30.521618000" lon="35.049171000">
  <ele>380.820000</ele>
  <time>2009-12-02T10:53:05Z</time>
</trkpt>
<trkpt lat="30.521616000" lon="35.049091000">
  <ele>382.740000</ele>
  <time>2009-12-02T10:53:08Z</time>
</trkpt>
<trkpt lat="30.521644000" lon="35.049027000">
  <ele>385.150000</ele>
  <time>2009-12-02T10:53:11Z</time>
</trkpt>
<trkpt lat="30.521734000" lon="35.048867000">
  <ele>385.150000</ele>
  <time>2009-12-02T10:53:21Z</time>
</trkpt>
<trkpt lat="30.521762000" lon="35.048857000">
  <ele>385.150000</ele>
  <time>2009-12-02T10:53:39Z</time>
</trkpt>
<trkpt lat="30.521729000" lon="35.048841000">
  <ele>386.110000</ele>
  <time>2009-12-02T10:54:08Z</time>
</trkpt>
<trkpt lat="30.521660000" lon="35.048798000">
  <ele>388.990000</ele>
  <time>2009-12-02T10:54:21Z</time>
</trkpt>
<trkpt lat="30.521572000" lon="35.048736000">
  <ele>392.360000</ele>
  <time>2009-12-02T10:54:35Z</time>
</trkpt>
<trkpt lat="30.521468000" lon="35.048643000">
  <ele>393.800000</ele>
  <time>2009-12-02T10:54:51Z</time>
</trkpt>
<trkpt lat="30.521423000" lon="35.048566000">
  <ele>397.160000</ele>
  <time>2009-12-02T10:55:04Z</time>
</trkpt>
<trkpt lat="30.521366000" lon="35.048455000">
  <ele>399.570000</ele>
  <time>2009-12-02T10:55:21Z</time>
</trkpt>
<trkpt lat="30.521304000" lon="35.048354000">
  <ele>400.050000</ele>
  <time>2009-12-02T10:55:38Z</time>
</trkpt>
<trkpt lat="30.521288000" lon="35.048289000">
  <ele>403.410000</ele>
  <time>2009-12-02T10:55:49Z</time>
</trkpt>
<trkpt lat="30.521309000" lon="35.048125000">
  <ele>405.810000</ele>
  <time>2009-12-02T10:56:09Z</time>
</trkpt>
<trkpt lat="30.521313000" lon="35.048015000">
  <ele>406.770000</ele>
  <time>2009-12-02T10:56:30Z</time>
</trkpt>
<trkpt lat="30.521432000" lon="35.047927000">
  <ele>407.740000</ele>
  <time>2009-12-02T10:57:16Z</time>
</trkpt>
<trkpt lat="30.521667000" lon="35.047673000">
  <ele>409.660000</ele>
  <time>2009-12-02T10:57:32Z</time>
</trkpt>
<trkpt lat="30.521958000" lon="35.047512000">
  <ele>412.060000</ele>
  <time>2009-12-02T10:57:50Z</time>
</trkpt>
<trkpt lat="30.522016000" lon="35.047519000">
  <ele>413.020000</ele>
  <time>2009-12-02T10:58:01Z</time>
</trkpt>
<trkpt lat="30.522015000" lon="35.047513000">
  <ele>413.020000</ele>
  <time>2009-12-02T10:58:27Z</time>
</trkpt>
<trkpt lat="30.522014000" lon="35.047513000">
  <ele>413.500000</ele>
  <time>2009-12-02T10:59:14Z</time>
</trkpt>
<trkpt lat="30.522015000" lon="35.047513000">
  <ele>413.980000</ele>
  <time>2009-12-02T11:00:35Z</time>
</trkpt>
<trkpt lat="30.522017000" lon="35.047512000">
  <ele>413.500000</ele>
  <time>2009-12-02T11:01:37Z</time>
</trkpt>
<trkpt lat="30.522018000" lon="35.047462000">
  <ele>413.020000</ele>
  <time>2009-12-02T11:01:42Z</time>
</trkpt>
<trkpt lat="30.521972000" lon="35.047495000">
  <ele>413.020000</ele>
  <time>2009-12-02T11:01:46Z</time>
</trkpt>
<trkpt lat="30.521887000" lon="35.047582000">
  <ele>412.060000</ele>
  <time>2009-12-02T11:01:51Z</time>
</trkpt>
<trkpt lat="30.521682000" lon="35.047713000">
  <ele>409.660000</ele>
  <time>2009-12-02T11:01:56Z</time>
</trkpt>
<trkpt lat="30.521420000" lon="35.047952000">
  <ele>407.260000</ele>
  <time>2009-12-02T11:02:02Z</time>
</trkpt>
<trkpt lat="30.521342000" lon="35.048024000">
  <ele>406.290000</ele>
  <time>2009-12-02T11:02:05Z</time>
</trkpt>
<trkpt lat="30.521294000" lon="35.048034000">
  <ele>404.850000</ele>
  <time>2009-12-02T11:02:18Z</time>
</trkpt>
<trkpt lat="30.521320000" lon="35.048016000">
  <ele>407.260000</ele>
  <time>2009-12-02T11:16:52Z</time>
</trkpt>
<trkpt lat="30.521311000" lon="35.048006000">
  <ele>407.740000</ele>
  <time>2009-12-02T11:17:20Z</time>
</trkpt>
<trkpt lat="30.521311000" lon="35.048005000">
  <ele>407.740000</ele>
  <time>2009-12-02T11:17:21Z</time>
</trkpt>
<trkpt lat="30.521468000" lon="35.047744000">
  <ele>407.260000</ele>
  <time>2009-12-02T11:17:38Z</time>
</trkpt>
<trkpt lat="30.521771000" lon="35.047513000">
  <ele>410.140000</ele>
  <time>2009-12-02T11:17:57Z</time>
</trkpt>
<trkpt lat="30.522061000" lon="35.047302000">
  <ele>412.540000</ele>
  <time>2009-12-02T11:18:14Z</time>
</trkpt>
<trkpt lat="30.522211000" lon="35.047163000">
  <ele>413.980000</ele>
  <time>2009-12-02T11:18:23Z</time>
</trkpt>
<trkpt lat="30.522305000" lon="35.047175000">
  <ele>413.020000</ele>
  <time>2009-12-02T11:18:27Z</time>
</trkpt>
<trkpt lat="30.522487000" lon="35.047224000">
  <ele>408.700000</ele>
  <time>2009-12-02T11:18:32Z</time>
</trkpt>
<trkpt lat="30.522554000" lon="35.047226000">
  <ele>407.740000</ele>
  <time>2009-12-02T11:18:34Z</time>
</trkpt>
<trkpt lat="30.522667000" lon="35.047224000">
  <ele>406.290000</ele>
  <time>2009-12-02T11:18:37Z</time>
</trkpt>
<trkpt lat="30.522711000" lon="35.047230000">
  <ele>405.330000</ele>
  <time>2009-12-02T11:18:38Z</time>
</trkpt>
<trkpt lat="30.522813000" lon="35.047256000">
  <ele>403.890000</ele>
  <time>2009-12-02T11:18:40Z</time>
</trkpt>
<trkpt lat="30.523002000" lon="35.047265000">
  <ele>402.930000</ele>
  <time>2009-12-02T11:18:44Z</time>
</trkpt>
<trkpt lat="30.523156000" lon="35.047289000">
  <ele>401.490000</ele>
  <time>2009-12-02T11:18:47Z</time>
</trkpt>
<trkpt lat="30.523246000" lon="35.047319000">
  <ele>401.010000</ele>
  <time>2009-12-02T11:18:49Z</time>
</trkpt>
<trkpt lat="30.523327000" lon="35.047351000">
  <ele>400.530000</ele>
  <time>2009-12-02T11:18:51Z</time>
</trkpt>
<trkpt lat="30.523776000" lon="35.047452000">
  <ele>399.570000</ele>
  <time>2009-12-02T11:19:04Z</time>
</trkpt>
<trkpt lat="30.524055000" lon="35.047832000">
  <ele>399.080000</ele>
  <time>2009-12-02T11:19:16Z</time>
</trkpt>
<trkpt lat="30.524116000" lon="35.047887000">
  <ele>397.640000</ele>
  <time>2009-12-02T11:19:18Z</time>
</trkpt>
<trkpt lat="30.524246000" lon="35.048017000">
  <ele>397.160000</ele>
  <time>2009-12-02T11:19:22Z</time>
</trkpt>
<trkpt lat="30.524372000" lon="35.048157000">
  <ele>397.160000</ele>
  <time>2009-12-02T11:19:26Z</time>
</trkpt>
<trkpt lat="30.524673000" lon="35.048575000">
  <ele>397.640000</ele>
  <time>2009-12-02T11:19:38Z</time>
</trkpt>
<trkpt lat="30.525110000" lon="35.048842000">
  <ele>397.640000</ele>
  <time>2009-12-02T11:19:54Z</time>
</trkpt>
<trkpt lat="30.525444000" lon="35.049019000">
  <ele>398.600000</ele>
  <time>2009-12-02T11:20:07Z</time>
</trkpt>
<trkpt lat="30.525661000" lon="35.049419000">
  <ele>397.160000</ele>
  <time>2009-12-02T11:20:19Z</time>
</trkpt>
<trkpt lat="30.525694000" lon="35.049515000">
  <ele>396.200000</ele>
  <time>2009-12-02T11:20:21Z</time>
</trkpt>
<trkpt lat="30.525712000" lon="35.049621000">
  <ele>395.240000</ele>
  <time>2009-12-02T11:20:23Z</time>
</trkpt>
<trkpt lat="30.525716000" lon="35.049727000">
  <ele>395.720000</ele>
  <time>2009-12-02T11:20:25Z</time>
</trkpt>
<trkpt lat="30.525875000" lon="35.050173000">
  <ele>396.200000</ele>
  <time>2009-12-02T11:20:36Z</time>
</trkpt>
<trkpt lat="30.526184000" lon="35.050566000">
  <ele>393.320000</ele>
  <time>2009-12-02T11:20:49Z</time>
</trkpt>
<trkpt lat="30.526286000" lon="35.050968000">
  <ele>392.360000</ele>
  <time>2009-12-02T11:21:00Z</time>
</trkpt>
<trkpt lat="30.526285000" lon="35.051026000">
  <ele>391.870000</ele>
  <time>2009-12-02T11:21:01Z</time>
</trkpt>
<trkpt lat="30.526257000" lon="35.051217000">
  <ele>389.950000</ele>
  <time>2009-12-02T11:21:04Z</time>
</trkpt>
<trkpt lat="30.526301000" lon="35.051457000">
  <ele>389.470000</ele>
  <time>2009-12-02T11:21:08Z</time>
</trkpt>
<trkpt lat="30.526320000" lon="35.051678000">
  <ele>388.030000</ele>
  <time>2009-12-02T11:21:12Z</time>
</trkpt>
<trkpt lat="30.526368000" lon="35.051784000">
  <ele>388.030000</ele>
  <time>2009-12-02T11:21:15Z</time>
</trkpt>
<trkpt lat="30.526260000" lon="35.052144000">
  <ele>385.150000</ele>
  <time>2009-12-02T11:21:28Z</time>
</trkpt>
<trkpt lat="30.526284000" lon="35.052397000">
  <ele>383.700000</ele>
  <time>2009-12-02T11:21:36Z</time>
</trkpt>
<trkpt lat="30.526209000" lon="35.052566000">
  <ele>383.220000</ele>
  <time>2009-12-02T11:21:40Z</time>
</trkpt>
<trkpt lat="30.525947000" lon="35.052886000">
  <ele>383.700000</ele>
  <time>2009-12-02T11:21:51Z</time>
</trkpt>
<trkpt lat="30.525587000" lon="35.053235000">
  <ele>383.700000</ele>
  <time>2009-12-02T11:22:03Z</time>
</trkpt>
<trkpt lat="30.525592000" lon="35.053346000">
  <ele>383.700000</ele>
  <time>2009-12-02T11:22:06Z</time>
</trkpt>
<trkpt lat="30.525684000" lon="35.053411000">
  <ele>385.150000</ele>
  <time>2009-12-02T11:22:09Z</time>
</trkpt>
<trkpt lat="30.526329000" lon="35.053726000">
  <ele>385.150000</ele>
  <time>2009-12-02T11:22:27Z</time>
</trkpt>
<trkpt lat="30.526542000" lon="35.053774000">
  <ele>385.630000</ele>
  <time>2009-12-02T11:22:32Z</time>
</trkpt>
<trkpt lat="30.526621000" lon="35.053811000">
  <ele>386.590000</ele>
  <time>2009-12-02T11:22:34Z</time>
</trkpt>
<trkpt lat="30.526929000" lon="35.053967000">
  <ele>386.110000</ele>
  <time>2009-12-02T11:22:47Z</time>
</trkpt>
<trkpt lat="30.526969000" lon="35.053960000">
  <ele>384.660000</ele>
  <time>2009-12-02T11:23:00Z</time>
</trkpt>
<trkpt lat="30.527194000" lon="35.053971000">
  <ele>384.180000</ele>
  <time>2009-12-02T11:25:22Z</time>
</trkpt>
<trkpt lat="30.527408000" lon="35.054077000">
  <ele>380.340000</ele>
  <time>2009-12-02T11:25:28Z</time>
</trkpt>
<trkpt lat="30.527447000" lon="35.054106000">
  <ele>380.340000</ele>
  <time>2009-12-02T11:25:29Z</time>
</trkpt>
<trkpt lat="30.527595000" lon="35.054238000">
  <ele>379.380000</ele>
  <time>2009-12-02T11:25:33Z</time>
</trkpt>
<trkpt lat="30.528100000" lon="35.054474000">
  <ele>379.380000</ele>
  <time>2009-12-02T11:25:49Z</time>
</trkpt>
<trkpt lat="30.528226000" lon="35.054637000">
  <ele>376.490000</ele>
  <time>2009-12-02T11:25:54Z</time>
</trkpt>
<trkpt lat="30.528247000" lon="35.054791000">
  <ele>374.570000</ele>
  <time>2009-12-02T11:25:57Z</time>
</trkpt>
<trkpt lat="30.528318000" lon="35.054931000">
  <ele>373.130000</ele>
  <time>2009-12-02T11:26:00Z</time>
</trkpt>
<trkpt lat="30.528549000" lon="35.055216000">
  <ele>370.240000</ele>
  <time>2009-12-02T11:26:07Z</time>
</trkpt>
<trkpt lat="30.528749000" lon="35.055410000">
  <ele>367.360000</ele>
  <time>2009-12-02T11:26:12Z</time>
</trkpt>
<trkpt lat="30.529307000" lon="35.055748000">
  <ele>366.400000</ele>
  <time>2009-12-02T11:26:27Z</time>
</trkpt>
<trkpt lat="30.529513000" lon="35.056025000">
  <ele>365.440000</ele>
  <time>2009-12-02T11:26:38Z</time>
</trkpt>
<trkpt lat="30.529659000" lon="35.056133000">
  <ele>364.960000</ele>
  <time>2009-12-02T11:26:44Z</time>
</trkpt>
<trkpt lat="30.530033000" lon="35.056396000">
  <ele>366.400000</ele>
  <time>2009-12-02T11:26:57Z</time>
</trkpt>
<trkpt lat="30.530166000" lon="35.056576000">
  <ele>365.920000</ele>
  <time>2009-12-02T11:27:02Z</time>
</trkpt>
<trkpt lat="30.530300000" lon="35.057034000">
  <ele>364.000000</ele>
  <time>2009-12-02T11:27:15Z</time>
</trkpt>
<trkpt lat="30.530209000" lon="35.057289000">
  <ele>362.070000</ele>
  <time>2009-12-02T11:27:24Z</time>
</trkpt>
<trkpt lat="30.530372000" lon="35.057729000">
  <ele>359.190000</ele>
  <time>2009-12-02T11:27:36Z</time>
</trkpt>
<trkpt lat="30.530387000" lon="35.057796000">
  <ele>357.750000</ele>
  <time>2009-12-02T11:27:39Z</time>
</trkpt>
<trkpt lat="30.530363000" lon="35.057854000">
  <ele>358.710000</ele>
  <time>2009-12-02T11:27:41Z</time>
</trkpt>
<trkpt lat="30.530312000" lon="35.057960000">
  <ele>358.710000</ele>
  <time>2009-12-02T11:27:45Z</time>
</trkpt>
<trkpt lat="30.530273000" lon="35.058268000">
  <ele>354.860000</ele>
  <time>2009-12-02T11:27:54Z</time>
</trkpt>
<trkpt lat="30.530347000" lon="35.058414000">
  <ele>353.420000</ele>
  <time>2009-12-02T11:27:59Z</time>
</trkpt>
<trkpt lat="30.530462000" lon="35.058523000">
  <ele>351.980000</ele>
  <time>2009-12-02T11:28:02Z</time>
</trkpt>
<trkpt lat="30.530612000" lon="35.058782000">
  <ele>351.500000</ele>
  <time>2009-12-02T11:28:08Z</time>
</trkpt>
<trkpt lat="30.530935000" lon="35.059292000">
  <ele>350.540000</ele>
  <time>2009-12-02T11:28:21Z</time>
</trkpt>
<trkpt lat="30.531010000" lon="35.059341000">
  <ele>350.540000</ele>
  <time>2009-12-02T11:28:24Z</time>
</trkpt>
<trkpt lat="30.531077000" lon="35.059527000">
  <ele>351.020000</ele>
  <time>2009-12-02T11:28:30Z</time>
</trkpt>
<trkpt lat="30.531075000" lon="35.059577000">
  <ele>350.060000</ele>
  <time>2009-12-02T11:28:45Z</time>
</trkpt>
<trkpt lat="30.531032000" lon="35.059715000">
  <ele>350.060000</ele>
  <time>2009-12-02T11:29:40Z</time>
</trkpt>
<trkpt lat="30.531008000" lon="35.059761000">
  <ele>348.620000</ele>
  <time>2009-12-02T11:29:42Z</time>
</trkpt>
<trkpt lat="30.530985000" lon="35.059835000">
  <ele>348.620000</ele>
  <time>2009-12-02T11:29:45Z</time>
</trkpt>
<trkpt lat="30.530977000" lon="35.059924000">
  <ele>347.170000</ele>
  <time>2009-12-02T11:29:59Z</time>
</trkpt>
<trkpt lat="30.531026000" lon="35.060007000">
  <ele>346.210000</ele>
  <time>2009-12-02T11:30:11Z</time>
</trkpt>
<trkpt lat="30.531105000" lon="35.060144000">
  <ele>344.770000</ele>
  <time>2009-12-02T11:30:23Z</time>
</trkpt>
<trkpt lat="30.531312000" lon="35.060463000">
  <ele>342.850000</ele>
  <time>2009-12-02T11:30:37Z</time>
</trkpt>
<trkpt lat="30.531385000" lon="35.060485000">
  <ele>343.330000</ele>
  <time>2009-12-02T11:30:40Z</time>
</trkpt>
<trkpt lat="30.531633000" lon="35.060571000">
  <ele>342.370000</ele>
  <time>2009-12-02T11:30:50Z</time>
</trkpt>
<trkpt lat="30.531657000" lon="35.060580000">
  <ele>342.370000</ele>
  <time>2009-12-02T11:30:51Z</time>
</trkpt>
<trkpt lat="30.531796000" lon="35.060770000">
  <ele>341.890000</ele>
  <time>2009-12-02T11:30:59Z</time>
</trkpt>
<trkpt lat="30.531819000" lon="35.060875000">
  <ele>341.410000</ele>
  <time>2009-12-02T11:31:02Z</time>
</trkpt>
<trkpt lat="30.531786000" lon="35.060955000">
  <ele>339.480000</ele>
  <time>2009-12-02T11:31:05Z</time>
</trkpt>
<trkpt lat="30.531816000" lon="35.061148000">
  <ele>339.960000</ele>
  <time>2009-12-02T11:31:11Z</time>
</trkpt>
<trkpt lat="30.531951000" lon="35.061393000">
  <ele>339.000000</ele>
  <time>2009-12-02T11:31:23Z</time>
</trkpt>
<trkpt lat="30.531932000" lon="35.061461000">
  <ele>337.080000</ele>
  <time>2009-12-02T11:31:26Z</time>
</trkpt>
<trkpt lat="30.531927000" lon="35.061494000">
  <ele>337.080000</ele>
  <time>2009-12-02T11:31:27Z</time>
</trkpt>
<trkpt lat="30.531944000" lon="35.061656000">
  <ele>337.080000</ele>
  <time>2009-12-02T11:31:32Z</time>
</trkpt>
<trkpt lat="30.531775000" lon="35.061884000">
  <ele>332.750000</ele>
  <time>2009-12-02T11:31:40Z</time>
</trkpt>
<trkpt lat="30.531723000" lon="35.061966000">
  <ele>332.750000</ele>
  <time>2009-12-02T11:31:42Z</time>
</trkpt>
<trkpt lat="30.531712000" lon="35.062194000">
  <ele>332.270000</ele>
  <time>2009-12-02T11:31:47Z</time>
</trkpt>
<trkpt lat="30.531556000" lon="35.062370000">
  <ele>327.470000</ele>
  <time>2009-12-02T11:31:53Z</time>
</trkpt>
<trkpt lat="30.531492000" lon="35.062346000">
  <ele>326.990000</ele>
  <time>2009-12-02T11:31:55Z</time>
</trkpt>
<trkpt lat="30.531380000" lon="35.062277000">
  <ele>325.540000</ele>
  <time>2009-12-02T11:31:58Z</time>
</trkpt>
<trkpt lat="30.531185000" lon="35.062294000">
  <ele>323.140000</ele>
  <time>2009-12-02T11:32:02Z</time>
</trkpt>
<trkpt lat="30.531133000" lon="35.062303000">
  <ele>322.660000</ele>
  <time>2009-12-02T11:32:03Z</time>
</trkpt>
<trkpt lat="30.531039000" lon="35.062311000">
  <ele>321.220000</ele>
  <time>2009-12-02T11:32:05Z</time>
</trkpt>
<trkpt lat="30.530986000" lon="35.062360000">
  <ele>320.260000</ele>
  <time>2009-12-02T11:32:07Z</time>
</trkpt>
<trkpt lat="30.530783000" lon="35.062548000">
  <ele>318.810000</ele>
  <time>2009-12-02T11:32:16Z</time>
</trkpt>
<trkpt lat="30.530534000" lon="35.062650000">
  <ele>319.780000</ele>
  <time>2009-12-02T11:32:23Z</time>
</trkpt>
<trkpt lat="30.530228000" lon="35.062706000">
  <ele>317.850000</ele>
  <time>2009-12-02T11:32:34Z</time>
</trkpt>
<trkpt lat="30.530220000" lon="35.062693000">
  <ele>317.850000</ele>
  <time>2009-12-02T11:33:50Z</time>
</trkpt>
<trkpt lat="30.530219000" lon="35.062694000">
  <ele>317.850000</ele>
  <time>2009-12-02T11:33:53Z</time>
</trkpt>
<trkpt lat="30.530175000" lon="35.062733000">
  <ele>316.890000</ele>
  <time>2009-12-02T11:33:57Z</time>
</trkpt>
<trkpt lat="30.529979000" lon="35.063052000">
  <ele>316.890000</ele>
  <time>2009-12-02T11:34:08Z</time>
</trkpt>
<trkpt lat="30.529962000" lon="35.063093000">
  <ele>316.890000</ele>
  <time>2009-12-02T11:34:09Z</time>
</trkpt>
<trkpt lat="30.529941000" lon="35.063237000">
  <ele>316.410000</ele>
  <time>2009-12-02T11:34:12Z</time>
</trkpt>
<trkpt lat="30.529939000" lon="35.063400000">
  <ele>315.930000</ele>
  <time>2009-12-02T11:34:15Z</time>
</trkpt>
<trkpt lat="30.529918000" lon="35.063698000">
  <ele>314.970000</ele>
  <time>2009-12-02T11:34:26Z</time>
</trkpt>
<trkpt lat="30.529980000" lon="35.063745000">
  <ele>314.970000</ele>
  <time>2009-12-02T11:34:29Z</time>
</trkpt>
<trkpt lat="30.530035000" lon="35.063834000">
  <ele>314.010000</ele>
  <time>2009-12-02T11:34:33Z</time>
</trkpt>
<trkpt lat="30.530008000" lon="35.063971000">
  <ele>314.490000</ele>
  <time>2009-12-02T11:34:37Z</time>
</trkpt>
<trkpt lat="30.530011000" lon="35.064099000">
  <ele>314.010000</ele>
  <time>2009-12-02T11:34:40Z</time>
</trkpt>
<trkpt lat="30.529973000" lon="35.064205000">
  <ele>314.010000</ele>
  <time>2009-12-02T11:34:43Z</time>
</trkpt>
<trkpt lat="30.529973000" lon="35.064410000">
  <ele>313.530000</ele>
  <time>2009-12-02T11:34:53Z</time>
</trkpt>
<trkpt lat="30.529960000" lon="35.064447000">
  <ele>313.530000</ele>
  <time>2009-12-02T11:35:10Z</time>
</trkpt>
<trkpt lat="30.529960000" lon="35.064439000">
  <ele>313.050000</ele>
  <time>2009-12-02T11:35:46Z</time>
</trkpt>
<trkpt lat="30.529965000" lon="35.064448000">
  <ele>312.570000</ele>
  <time>2009-12-02T11:42:09Z</time>
</trkpt>
<trkpt lat="30.529965000" lon="35.064448000">
  <ele>313.050000</ele>
  <time>2009-12-02T11:43:05Z</time>
</trkpt>
<trkpt lat="30.529965000" lon="35.064450000">
  <ele>324.100000</ele>
  <time>2009-12-02T11:46:23Z</time>
</trkpt>
<trkpt lat="30.529921000" lon="35.064434000">
  <ele>324.100000</ele>
  <time>2009-12-02T11:46:29Z</time>
</trkpt>
<trkpt lat="30.529969000" lon="35.064471000">
  <ele>323.140000</ele>
  <time>2009-12-02T11:48:29Z</time>
</trkpt>
<trkpt lat="30.529970000" lon="35.064476000">
  <ele>324.100000</ele>
  <time>2009-12-02T11:53:34Z</time>
</trkpt>
<trkpt lat="30.529893000" lon="35.064822000">
  <ele>323.140000</ele>
  <time>2009-12-02T11:53:48Z</time>
</trkpt>
<trkpt lat="30.529837000" lon="35.065112000">
  <ele>323.140000</ele>
  <time>2009-12-02T11:53:55Z</time>
</trkpt>
<trkpt lat="30.529792000" lon="35.065569000">
  <ele>322.180000</ele>
  <time>2009-12-02T11:54:05Z</time>
</trkpt>
<trkpt lat="30.529758000" lon="35.065990000">
  <ele>322.180000</ele>
  <time>2009-12-02T11:54:14Z</time>
</trkpt>
<trkpt lat="30.529669000" lon="35.066539000">
  <ele>319.780000</ele>
  <time>2009-12-02T11:54:26Z</time>
</trkpt>
<trkpt lat="30.529673000" lon="35.066920000">
  <ele>318.810000</ele>
  <time>2009-12-02T11:54:34Z</time>
</trkpt>
<trkpt lat="30.529751000" lon="35.067147000">
  <ele>317.850000</ele>
  <time>2009-12-02T11:54:39Z</time>
</trkpt>
<trkpt lat="30.529851000" lon="35.067294000">
  <ele>317.850000</ele>
  <time>2009-12-02T11:54:43Z</time>
</trkpt>
<trkpt lat="30.529982000" lon="35.067412000">
  <ele>317.370000</ele>
  <time>2009-12-02T11:54:47Z</time>
</trkpt>
<trkpt lat="30.530067000" lon="35.067520000">
  <ele>316.890000</ele>
  <time>2009-12-02T11:54:50Z</time>
</trkpt>
<trkpt lat="30.530172000" lon="35.067615000">
  <ele>316.410000</ele>
  <time>2009-12-02T11:54:53Z</time>
</trkpt>
<trkpt lat="30.530538000" lon="35.068126000">
  <ele>314.490000</ele>
  <time>2009-12-02T11:55:06Z</time>
</trkpt>
<trkpt lat="30.530695000" lon="35.068327000">
  <ele>313.530000</ele>
  <time>2009-12-02T11:55:11Z</time>
</trkpt>
<trkpt lat="30.530840000" lon="35.068486000">
  <ele>312.570000</ele>
  <time>2009-12-02T11:55:15Z</time>
</trkpt>
<trkpt lat="30.531291000" lon="35.069240000">
  <ele>310.160000</ele>
  <time>2009-12-02T11:55:31Z</time>
</trkpt>
<trkpt lat="30.531439000" lon="35.069379000">
  <ele>309.200000</ele>
  <time>2009-12-02T11:55:35Z</time>
</trkpt>
<trkpt lat="30.531831000" lon="35.069613000">
  <ele>307.280000</ele>
  <time>2009-12-02T11:55:48Z</time>
</trkpt>
<trkpt lat="30.532065000" lon="35.070051000">
  <ele>307.280000</ele>
  <time>2009-12-02T11:56:01Z</time>
</trkpt>
<trkpt lat="30.532111000" lon="35.070137000">
  <ele>306.800000</ele>
  <time>2009-12-02T11:56:12Z</time>
</trkpt>
<trkpt lat="30.532122000" lon="35.070135000">
  <ele>306.320000</ele>
  <time>2009-12-02T11:57:14Z</time>
</trkpt>
<trkpt lat="30.532141000" lon="35.070127000">
  <ele>306.320000</ele>
  <time>2009-12-02T11:57:16Z</time>
</trkpt>
<trkpt lat="30.532173000" lon="35.070097000">
  <ele>305.840000</ele>
  <time>2009-12-02T11:57:19Z</time>
</trkpt>
<trkpt lat="30.532322000" lon="35.069906000">
  <ele>305.360000</ele>
  <time>2009-12-02T11:57:32Z</time>
</trkpt>
<trkpt lat="30.532334000" lon="35.069790000">
  <ele>305.840000</ele>
  <time>2009-12-02T11:57:39Z</time>
</trkpt>
<trkpt lat="30.532151000" lon="35.069303000">
  <ele>307.280000</ele>
  <time>2009-12-02T11:57:54Z</time>
</trkpt>
<trkpt lat="30.531959000" lon="35.068866000">
  <ele>308.240000</ele>
  <time>2009-12-02T11:58:08Z</time>
</trkpt>
<trkpt lat="30.531799000" lon="35.068492000">
  <ele>309.200000</ele>
  <time>2009-12-02T11:58:22Z</time>
</trkpt>
<trkpt lat="30.531773000" lon="35.068367000">
  <ele>309.680000</ele>
  <time>2009-12-02T11:58:28Z</time>
</trkpt>
<trkpt lat="30.531818000" lon="35.068048000">
  <ele>310.160000</ele>
  <time>2009-12-02T11:58:41Z</time>
</trkpt>
<trkpt lat="30.531955000" lon="35.067844000">
  <ele>311.120000</ele>
  <time>2009-12-02T11:58:52Z</time>
</trkpt>
<trkpt lat="30.532049000" lon="35.067743000">
  <ele>311.600000</ele>
  <time>2009-12-02T11:59:01Z</time>
</trkpt>
<trkpt lat="30.532100000" lon="35.067730000">
  <ele>312.090000</ele>
  <time>2009-12-02T11:59:05Z</time>
</trkpt>
<trkpt lat="30.532196000" lon="35.067589000">
  <ele>312.570000</ele>
  <time>2009-12-02T11:59:14Z</time>
</trkpt>
<trkpt lat="30.532230000" lon="35.067573000">
  <ele>312.090000</ele>
  <time>2009-12-02T11:59:27Z</time>
</trkpt>
<trkpt lat="30.532299000" lon="35.067542000">
  <ele>313.050000</ele>
  <time>2009-12-02T11:59:32Z</time>
</trkpt>
<trkpt lat="30.532682000" lon="35.067679000">
  <ele>314.490000</ele>
  <time>2009-12-02T11:59:48Z</time>
</trkpt>
<trkpt lat="30.532973000" lon="35.067754000">
  <ele>315.930000</ele>
  <time>2009-12-02T12:00:03Z</time>
</trkpt>
<trkpt lat="30.533172000" lon="35.067991000">
  <ele>317.370000</ele>
  <time>2009-12-02T12:00:17Z</time>
</trkpt>
<trkpt lat="30.533186000" lon="35.068019000">
  <ele>317.850000</ele>
  <time>2009-12-02T12:00:18Z</time>
</trkpt>
<trkpt lat="30.533548000" lon="35.068358000">
  <ele>319.300000</ele>
  <time>2009-12-02T12:00:37Z</time>
</trkpt>
<trkpt lat="30.533989000" lon="35.068703000">
  <ele>318.330000</ele>
  <time>2009-12-02T12:00:56Z</time>
</trkpt>
<trkpt lat="30.534290000" lon="35.069050000">
  <ele>317.370000</ele>
  <time>2009-12-02T12:01:11Z</time>
</trkpt>
<trkpt lat="30.534319000" lon="35.069085000">
  <ele>317.370000</ele>
  <time>2009-12-02T12:01:12Z</time>
</trkpt>
<trkpt lat="30.534569000" lon="35.069547000">
  <ele>314.970000</ele>
  <time>2009-12-02T12:01:24Z</time>
</trkpt>
<trkpt lat="30.534639000" lon="35.069759000">
  <ele>313.530000</ele>
  <time>2009-12-02T12:01:28Z</time>
</trkpt>
<trkpt lat="30.534755000" lon="35.070099000">
  <ele>313.050000</ele>
  <time>2009-12-02T12:01:35Z</time>
</trkpt>
<trkpt lat="30.535071000" lon="35.070424000">
  <ele>311.120000</ele>
  <time>2009-12-02T12:01:45Z</time>
</trkpt>
<trkpt lat="30.535430000" lon="35.070612000">
  <ele>309.200000</ele>
  <time>2009-12-02T12:01:58Z</time>
</trkpt>
<trkpt lat="30.535434000" lon="35.070614000">
  <ele>309.680000</ele>
  <time>2009-12-02T12:02:18Z</time>
</trkpt>
<trkpt lat="30.535533000" lon="35.070613000">
  <ele>309.680000</ele>
  <time>2009-12-02T12:02:23Z</time>
</trkpt>
<trkpt lat="30.535617000" lon="35.070630000">
  <ele>309.200000</ele>
  <time>2009-12-02T12:02:25Z</time>
</trkpt>
<trkpt lat="30.535717000" lon="35.070629000">
  <ele>308.720000</ele>
  <time>2009-12-02T12:02:27Z</time>
</trkpt>
<trkpt lat="30.536045000" lon="35.070708000">
  <ele>308.240000</ele>
  <time>2009-12-02T12:02:33Z</time>
</trkpt>
<trkpt lat="30.536510000" lon="35.070951000">
  <ele>306.800000</ele>
  <time>2009-12-02T12:02:43Z</time>
</trkpt>
<trkpt lat="30.536988000" lon="35.071481000">
  <ele>305.840000</ele>
  <time>2009-12-02T12:02:55Z</time>
</trkpt>
<trkpt lat="30.537094000" lon="35.071706000">
  <ele>305.360000</ele>
  <time>2009-12-02T12:02:59Z</time>
</trkpt>
<trkpt lat="30.537256000" lon="35.071946000">
  <ele>304.390000</ele>
  <time>2009-12-02T12:03:04Z</time>
</trkpt>
<trkpt lat="30.537504000" lon="35.072190000">
  <ele>302.950000</ele>
  <time>2009-12-02T12:03:12Z</time>
</trkpt>
<trkpt lat="30.537616000" lon="35.072251000">
  <ele>302.950000</ele>
  <time>2009-12-02T12:03:16Z</time>
</trkpt>
<trkpt lat="30.537857000" lon="35.072485000">
  <ele>301.510000</ele>
  <time>2009-12-02T12:03:23Z</time>
</trkpt>
<trkpt lat="30.537985000" lon="35.072576000">
  <ele>301.510000</ele>
  <time>2009-12-02T12:03:26Z</time>
</trkpt>
<trkpt lat="30.538475000" lon="35.073127000">
  <ele>298.630000</ele>
  <time>2009-12-02T12:03:39Z</time>
</trkpt>
<trkpt lat="30.538725000" lon="35.073507000">
  <ele>297.180000</ele>
  <time>2009-12-02T12:03:50Z</time>
</trkpt>
<trkpt lat="30.538817000" lon="35.073709000">
  <ele>297.670000</ele>
  <time>2009-12-02T12:03:55Z</time>
</trkpt>
<trkpt lat="30.538886000" lon="35.073890000">
  <ele>297.670000</ele>
  <time>2009-12-02T12:03:59Z</time>
</trkpt>
<trkpt lat="30.539103000" lon="35.074345000">
  <ele>298.150000</ele>
  <time>2009-12-02T12:04:12Z</time>
</trkpt>
<trkpt lat="30.539167000" lon="35.074730000">
  <ele>297.670000</ele>
  <time>2009-12-02T12:04:24Z</time>
</trkpt>
<trkpt lat="30.539396000" lon="35.075180000">
  <ele>294.300000</ele>
  <time>2009-12-02T12:04:36Z</time>
</trkpt>
<trkpt lat="30.539644000" lon="35.075348000">
  <ele>291.900000</ele>
  <time>2009-12-02T12:04:41Z</time>
</trkpt>
<trkpt lat="30.539864000" lon="35.075531000">
  <ele>290.460000</ele>
  <time>2009-12-02T12:04:46Z</time>
</trkpt>
<trkpt lat="30.540296000" lon="35.075687000">
  <ele>288.050000</ele>
  <time>2009-12-02T12:04:54Z</time>
</trkpt>
<trkpt lat="30.540455000" lon="35.075727000">
  <ele>288.050000</ele>
  <time>2009-12-02T12:04:57Z</time>
</trkpt>
<trkpt lat="30.540674000" lon="35.075852000">
  <ele>287.570000</ele>
  <time>2009-12-02T12:05:03Z</time>
</trkpt>
<trkpt lat="30.540910000" lon="35.076228000">
  <ele>286.610000</ele>
  <time>2009-12-02T12:05:12Z</time>
</trkpt>
<trkpt lat="30.541073000" lon="35.076505000">
  <ele>285.170000</ele>
  <time>2009-12-02T12:05:18Z</time>
</trkpt>
<trkpt lat="30.541133000" lon="35.076573000">
  <ele>284.690000</ele>
  <time>2009-12-02T12:05:20Z</time>
</trkpt>
<trkpt lat="30.541275000" lon="35.076926000">
  <ele>282.770000</ele>
  <time>2009-12-02T12:05:28Z</time>
</trkpt>
<trkpt lat="30.541378000" lon="35.077443000">
  <ele>279.400000</ele>
  <time>2009-12-02T12:05:40Z</time>
</trkpt>
<trkpt lat="30.541530000" lon="35.077610000">
  <ele>279.400000</ele>
  <time>2009-12-02T12:05:48Z</time>
</trkpt>
<trkpt lat="30.541762000" lon="35.077997000">
  <ele>277.960000</ele>
  <time>2009-12-02T12:06:03Z</time>
</trkpt>
<trkpt lat="30.541788000" lon="35.078084000">
  <ele>278.440000</ele>
  <time>2009-12-02T12:06:06Z</time>
</trkpt>
<trkpt lat="30.542041000" lon="35.078309000">
  <ele>279.880000</ele>
  <time>2009-12-02T12:06:20Z</time>
</trkpt>
<trkpt lat="30.542395000" lon="35.078463000">
  <ele>278.440000</ele>
  <time>2009-12-02T12:06:34Z</time>
</trkpt>
<trkpt lat="30.542718000" lon="35.078795000">
  <ele>277.000000</ele>
  <time>2009-12-02T12:06:56Z</time>
</trkpt>
<trkpt lat="30.543089000" lon="35.079160000">
  <ele>275.070000</ele>
  <time>2009-12-02T12:07:14Z</time>
</trkpt>
<trkpt lat="30.543608000" lon="35.079483000">
  <ele>273.630000</ele>
  <time>2009-12-02T12:07:33Z</time>
</trkpt>
<trkpt lat="30.543994000" lon="35.079826000">
  <ele>272.670000</ele>
  <time>2009-12-02T12:07:46Z</time>
</trkpt>
<trkpt lat="30.544548000" lon="35.080070000">
  <ele>271.230000</ele>
  <time>2009-12-02T12:08:03Z</time>
</trkpt>
<trkpt lat="30.544608000" lon="35.080121000">
  <ele>270.750000</ele>
  <time>2009-12-02T12:08:05Z</time>
</trkpt>
<trkpt lat="30.544791000" lon="35.080217000">
  <ele>270.750000</ele>
  <time>2009-12-02T12:08:09Z</time>
</trkpt>
<trkpt lat="30.545189000" lon="35.080265000">
  <ele>269.790000</ele>
  <time>2009-12-02T12:08:16Z</time>
</trkpt>
<trkpt lat="30.545528000" lon="35.080289000">
  <ele>267.860000</ele>
  <time>2009-12-02T12:08:23Z</time>
</trkpt>
<trkpt lat="30.545856000" lon="35.080404000">
  <ele>267.380000</ele>
  <time>2009-12-02T12:08:33Z</time>
</trkpt>
<trkpt lat="30.545932000" lon="35.080455000">
  <ele>266.420000</ele>
  <time>2009-12-02T12:08:36Z</time>
</trkpt>
<trkpt lat="30.546204000" lon="35.080397000">
  <ele>266.420000</ele>
  <time>2009-12-02T12:08:47Z</time>
</trkpt>
<trkpt lat="30.546566000" lon="35.080493000">
  <ele>265.460000</ele>
  <time>2009-12-02T12:09:00Z</time>
</trkpt>
<trkpt lat="30.546951000" lon="35.080656000">
  <ele>264.980000</ele>
  <time>2009-12-02T12:09:11Z</time>
</trkpt>
<trkpt lat="30.547111000" lon="35.080688000">
  <ele>264.980000</ele>
  <time>2009-12-02T12:09:15Z</time>
</trkpt>
<trkpt lat="30.547369000" lon="35.080617000">
  <ele>263.540000</ele>
  <time>2009-12-02T12:09:24Z</time>
</trkpt>
<trkpt lat="30.547638000" lon="35.080674000">
  <ele>262.100000</ele>
  <time>2009-12-02T12:09:32Z</time>
</trkpt>
<trkpt lat="30.547784000" lon="35.080634000">
  <ele>262.580000</ele>
  <time>2009-12-02T12:09:36Z</time>
</trkpt>
<trkpt lat="30.548239000" lon="35.080724000">
  <ele>261.620000</ele>
  <time>2009-12-02T12:09:48Z</time>
</trkpt>
<trkpt lat="30.548622000" lon="35.080733000">
  <ele>261.140000</ele>
  <time>2009-12-02T12:10:00Z</time>
</trkpt>
<trkpt lat="30.548738000" lon="35.080767000">
  <ele>260.170000</ele>
  <time>2009-12-02T12:10:04Z</time>
</trkpt>
<trkpt lat="30.548924000" lon="35.080963000">
  <ele>259.690000</ele>
  <time>2009-12-02T12:10:15Z</time>
</trkpt>
<trkpt lat="30.548994000" lon="35.080965000">
  <ele>259.210000</ele>
  <time>2009-12-02T12:10:19Z</time>
</trkpt>
<trkpt lat="30.549059000" lon="35.081008000">
  <ele>258.730000</ele>
  <time>2009-12-02T12:10:24Z</time>
</trkpt>
<trkpt lat="30.549096000" lon="35.081108000">
  <ele>257.770000</ele>
  <time>2009-12-02T12:10:29Z</time>
</trkpt>
<trkpt lat="30.549060000" lon="35.081221000">
  <ele>257.770000</ele>
  <time>2009-12-02T12:10:35Z</time>
</trkpt>
<trkpt lat="30.549099000" lon="35.081324000">
  <ele>257.770000</ele>
  <time>2009-12-02T12:10:40Z</time>
</trkpt>
<trkpt lat="30.549093000" lon="35.081460000">
  <ele>258.250000</ele>
  <time>2009-12-02T12:10:45Z</time>
</trkpt>
<trkpt lat="30.549143000" lon="35.082087000">
  <ele>257.770000</ele>
  <time>2009-12-02T12:10:59Z</time>
</trkpt>
<trkpt lat="30.549120000" lon="35.082268000">
  <ele>257.770000</ele>
  <time>2009-12-02T12:11:02Z</time>
</trkpt>
<trkpt lat="30.549011000" lon="35.082593000">
  <ele>257.290000</ele>
  <time>2009-12-02T12:11:07Z</time>
</trkpt>
<trkpt lat="30.548924000" lon="35.082780000">
  <ele>256.330000</ele>
  <time>2009-12-02T12:11:10Z</time>
</trkpt>
<trkpt lat="30.548852000" lon="35.083041000">
  <ele>255.850000</ele>
  <time>2009-12-02T12:11:14Z</time>
</trkpt>
<trkpt lat="30.548656000" lon="35.083543000">
  <ele>254.890000</ele>
  <time>2009-12-02T12:11:23Z</time>
</trkpt>
<trkpt lat="30.548601000" lon="35.083710000">
  <ele>253.930000</ele>
  <time>2009-12-02T12:11:26Z</time>
</trkpt>
<trkpt lat="30.548594000" lon="35.083945000">
  <ele>251.520000</ele>
  <time>2009-12-02T12:11:30Z</time>
</trkpt>
<trkpt lat="30.548607000" lon="35.084010000">
  <ele>251.520000</ele>
  <time>2009-12-02T12:11:31Z</time>
</trkpt>
<trkpt lat="30.548623000" lon="35.084292000">
  <ele>249.600000</ele>
  <time>2009-12-02T12:11:38Z</time>
</trkpt>
<trkpt lat="30.548675000" lon="35.084343000">
  <ele>250.560000</ele>
  <time>2009-12-02T12:11:42Z</time>
</trkpt>
<trkpt lat="30.548721000" lon="35.084440000">
  <ele>250.560000</ele>
  <time>2009-12-02T12:11:47Z</time>
</trkpt>
<trkpt lat="30.548724000" lon="35.084503000">
  <ele>250.560000</ele>
  <time>2009-12-02T12:11:49Z</time>
</trkpt>
<trkpt lat="30.548787000" lon="35.084660000">
  <ele>249.600000</ele>
  <time>2009-12-02T12:11:54Z</time>
</trkpt>
<trkpt lat="30.548902000" lon="35.084718000">
  <ele>251.040000</ele>
  <time>2009-12-02T12:11:58Z</time>
</trkpt>
<trkpt lat="30.549176000" lon="35.085003000">
  <ele>250.080000</ele>
  <time>2009-12-02T12:12:09Z</time>
</trkpt>
<trkpt lat="30.549291000" lon="35.085322000">
  <ele>250.080000</ele>
  <time>2009-12-02T12:12:16Z</time>
</trkpt>
<trkpt lat="30.549422000" lon="35.085507000">
  <ele>249.600000</ele>
  <time>2009-12-02T12:12:21Z</time>
</trkpt>
<trkpt lat="30.549620000" lon="35.085689000">
  <ele>248.640000</ele>
  <time>2009-12-02T12:12:27Z</time>
</trkpt>
<trkpt lat="30.549743000" lon="35.085893000">
  <ele>249.120000</ele>
  <time>2009-12-02T12:12:32Z</time>
</trkpt>
<trkpt lat="30.550171000" lon="35.086381000">
  <ele>247.680000</ele>
  <time>2009-12-02T12:12:46Z</time>
</trkpt>
<trkpt lat="30.550438000" lon="35.086618000">
  <ele>246.720000</ele>
  <time>2009-12-02T12:12:55Z</time>
</trkpt>
<trkpt lat="30.550690000" lon="35.086997000">
  <ele>244.790000</ele>
  <time>2009-12-02T12:13:06Z</time>
</trkpt>
<trkpt lat="30.550723000" lon="35.087032000">
  <ele>244.790000</ele>
  <time>2009-12-02T12:13:07Z</time>
</trkpt>
<trkpt lat="30.550898000" lon="35.087187000">
  <ele>244.790000</ele>
  <time>2009-12-02T12:13:12Z</time>
</trkpt>
<trkpt lat="30.551098000" lon="35.087456000">
  <ele>243.830000</ele>
  <time>2009-12-02T12:13:19Z</time>
</trkpt>
<trkpt lat="30.551167000" lon="35.087623000">
  <ele>242.870000</ele>
  <time>2009-12-02T12:13:23Z</time>
</trkpt>
<trkpt lat="30.551482000" lon="35.088060000">
  <ele>241.910000</ele>
  <time>2009-12-02T12:13:36Z</time>
</trkpt>
<trkpt lat="30.551596000" lon="35.088114000">
  <ele>241.430000</ele>
  <time>2009-12-02T12:13:40Z</time>
</trkpt>
<trkpt lat="30.551653000" lon="35.088130000">
  <ele>241.430000</ele>
  <time>2009-12-02T12:13:42Z</time>
</trkpt>
<trkpt lat="30.551912000" lon="35.088433000">
  <ele>240.470000</ele>
  <time>2009-12-02T12:13:54Z</time>
</trkpt>
<trkpt lat="30.551985000" lon="35.088464000">
  <ele>241.910000</ele>
  <time>2009-12-02T12:13:58Z</time>
</trkpt>
<trkpt lat="30.552166000" lon="35.088753000">
  <ele>241.430000</ele>
  <time>2009-12-02T12:14:11Z</time>
</trkpt>
<trkpt lat="30.552185000" lon="35.088867000">
  <ele>239.990000</ele>
  <time>2009-12-02T12:14:14Z</time>
</trkpt>
<trkpt lat="30.552301000" lon="35.089024000">
  <ele>239.990000</ele>
  <time>2009-12-02T12:14:20Z</time>
</trkpt>
<trkpt lat="30.552542000" lon="35.089329000">
  <ele>239.990000</ele>
  <time>2009-12-02T12:14:32Z</time>
</trkpt>
<trkpt lat="30.552498000" lon="35.089441000">
  <ele>239.020000</ele>
  <time>2009-12-02T12:14:36Z</time>
</trkpt>
<trkpt lat="30.552463000" lon="35.089710000">
  <ele>237.580000</ele>
  <time>2009-12-02T12:14:47Z</time>
</trkpt>
<trkpt lat="30.552455000" lon="35.089728000">
  <ele>237.100000</ele>
  <time>2009-12-02T12:14:48Z</time>
</trkpt>
<trkpt lat="30.552433000" lon="35.089812000">
  <ele>237.100000</ele>
  <time>2009-12-02T12:14:52Z</time>
</trkpt>
<trkpt lat="30.552410000" lon="35.089916000">
  <ele>237.100000</ele>
  <time>2009-12-02T12:14:57Z</time>
</trkpt>
<trkpt lat="30.552443000" lon="35.090164000">
  <ele>236.620000</ele>
  <time>2009-12-02T12:15:06Z</time>
</trkpt>
<trkpt lat="30.552395000" lon="35.090253000">
  <ele>236.140000</ele>
  <time>2009-12-02T12:15:12Z</time>
</trkpt>
<trkpt lat="30.552352000" lon="35.090240000">
  <ele>236.140000</ele>
  <time>2009-12-02T12:15:16Z</time>
</trkpt>
<trkpt lat="30.552326000" lon="35.090226000">
  <ele>236.620000</ele>
  <time>2009-12-02T12:15:18Z</time>
</trkpt>
<trkpt lat="30.552300000" lon="35.090245000">
  <ele>236.620000</ele>
  <time>2009-12-02T12:15:21Z</time>
</trkpt>
<trkpt lat="30.552467000" lon="35.090236000">
  <ele>236.140000</ele>
  <time>2009-12-02T12:15:31Z</time>
</trkpt>
<trkpt lat="30.552577000" lon="35.090234000">
  <ele>235.660000</ele>
  <time>2009-12-02T12:18:56Z</time>
</trkpt>
<trkpt lat="30.552712000" lon="35.090236000">
  <ele>235.660000</ele>
  <time>2009-12-02T12:19:03Z</time>
</trkpt>
<trkpt lat="30.552827000" lon="35.090290000">
  <ele>237.580000</ele>
  <time>2009-12-02T12:19:09Z</time>
</trkpt>
<trkpt lat="30.553114000" lon="35.090452000">
  <ele>240.470000</ele>
  <time>2009-12-02T12:19:25Z</time>
</trkpt>
<trkpt lat="30.553410000" lon="35.090615000">
  <ele>242.870000</ele>
  <time>2009-12-02T12:19:43Z</time>
</trkpt>
<trkpt lat="30.553637000" lon="35.090657000">
  <ele>244.310000</ele>
  <time>2009-12-02T12:19:56Z</time>
</trkpt>
<trkpt lat="30.553661000" lon="35.090667000">
  <ele>245.270000</ele>
  <time>2009-12-02T12:19:58Z</time>
</trkpt>
<trkpt lat="30.553877000" lon="35.090634000">
  <ele>248.160000</ele>
  <time>2009-12-02T12:20:11Z</time>
</trkpt>
<trkpt lat="30.554133000" lon="35.090572000">
  <ele>251.520000</ele>
  <time>2009-12-02T12:20:25Z</time>
</trkpt>
<trkpt lat="30.554362000" lon="35.090544000">
  <ele>254.890000</ele>
  <time>2009-12-02T12:20:37Z</time>
</trkpt>
<trkpt lat="30.554639000" lon="35.090299000">
  <ele>258.250000</ele>
  <time>2009-12-02T12:20:55Z</time>
</trkpt>
<trkpt lat="30.554677000" lon="35.090101000">
  <ele>260.650000</ele>
  <time>2009-12-02T12:21:05Z</time>
</trkpt>
<trkpt lat="30.554686000" lon="35.090031000">
  <ele>260.650000</ele>
  <time>2009-12-02T12:21:08Z</time>
</trkpt>
<trkpt lat="30.554967000" lon="35.089735000">
  <ele>263.540000</ele>
  <time>2009-12-02T12:21:26Z</time>
</trkpt>
<trkpt lat="30.555115000" lon="35.089704000">
  <ele>264.980000</ele>
  <time>2009-12-02T12:21:33Z</time>
</trkpt>
<trkpt lat="30.555178000" lon="35.089538000">
  <ele>265.940000</ele>
  <time>2009-12-02T12:21:41Z</time>
</trkpt>
<trkpt lat="30.555360000" lon="35.089245000">
  <ele>270.270000</ele>
  <time>2009-12-02T12:21:56Z</time>
</trkpt>
<trkpt lat="30.555669000" lon="35.089422000">
  <ele>270.750000</ele>
  <time>2009-12-02T12:22:09Z</time>
</trkpt>
<trkpt lat="30.555982000" lon="35.089675000">
  <ele>273.630000</ele>
  <time>2009-12-02T12:22:24Z</time>
</trkpt>
<trkpt lat="30.556321000" lon="35.089690000">
  <ele>274.590000</ele>
  <time>2009-12-02T12:22:38Z</time>
</trkpt>
<trkpt lat="30.556342000" lon="35.089692000">
  <ele>274.110000</ele>
  <time>2009-12-02T12:22:39Z</time>
</trkpt>
<trkpt lat="30.556468000" lon="35.089556000">
  <ele>276.040000</ele>
  <time>2009-12-02T12:22:46Z</time>
</trkpt>
<trkpt lat="30.556794000" lon="35.089439000">
  <ele>278.920000</ele>
  <time>2009-12-02T12:23:01Z</time>
</trkpt>
<trkpt lat="30.557070000" lon="35.089386000">
  <ele>281.800000</ele>
  <time>2009-12-02T12:23:13Z</time>
</trkpt>
<trkpt lat="30.557259000" lon="35.089458000">
  <ele>283.250000</ele>
  <time>2009-12-02T12:23:22Z</time>
</trkpt>
<trkpt lat="30.557535000" lon="35.089448000">
  <ele>287.090000</ele>
  <time>2009-12-02T12:23:35Z</time>
</trkpt>
<trkpt lat="30.557653000" lon="35.089363000">
  <ele>288.050000</ele>
  <time>2009-12-02T12:23:42Z</time>
</trkpt>
<trkpt lat="30.557883000" lon="35.089060000">
  <ele>290.460000</ele>
  <time>2009-12-02T12:23:58Z</time>
</trkpt>
<trkpt lat="30.558149000" lon="35.088823000">
  <ele>291.900000</ele>
  <time>2009-12-02T12:24:13Z</time>
</trkpt>
<trkpt lat="30.558367000" lon="35.088708000">
  <ele>294.780000</ele>
  <time>2009-12-02T12:24:24Z</time>
</trkpt>
<trkpt lat="30.558467000" lon="35.088652000">
  <ele>298.630000</ele>
  <time>2009-12-02T12:24:30Z</time>
</trkpt>
<trkpt lat="30.558479000" lon="35.088635000">
  <ele>298.630000</ele>
  <time>2009-12-02T12:24:31Z</time>
</trkpt>
<trkpt lat="30.558587000" lon="35.088477000">
  <ele>301.990000</ele>
  <time>2009-12-02T12:24:41Z</time>
</trkpt>
<trkpt lat="30.558659000" lon="35.088327000">
  <ele>301.510000</ele>
  <time>2009-12-02T12:24:47Z</time>
</trkpt>
<trkpt lat="30.558732000" lon="35.088288000">
  <ele>302.470000</ele>
  <time>2009-12-02T12:24:51Z</time>
</trkpt>
<trkpt lat="30.559074000" lon="35.088222000">
  <ele>305.360000</ele>
  <time>2009-12-02T12:25:09Z</time>
</trkpt>
<trkpt lat="30.559196000" lon="35.088096000">
  <ele>306.320000</ele>
  <time>2009-12-02T12:25:17Z</time>
</trkpt>
<trkpt lat="30.559412000" lon="35.088008000">
  <ele>311.120000</ele>
  <time>2009-12-02T12:25:30Z</time>
</trkpt>
<trkpt lat="30.559559000" lon="35.087989000">
  <ele>314.970000</ele>
  <time>2009-12-02T12:25:39Z</time>
</trkpt>
<trkpt lat="30.559596000" lon="35.087989000">
  <ele>314.970000</ele>
  <time>2009-12-02T12:25:41Z</time>
</trkpt>
<trkpt lat="30.559653000" lon="35.088026000">
  <ele>316.890000</ele>
  <time>2009-12-02T12:25:45Z</time>
</trkpt>
<trkpt lat="30.559863000" lon="35.088071000">
  <ele>318.330000</ele>
  <time>2009-12-02T12:26:01Z</time>
</trkpt>
<trkpt lat="30.559905000" lon="35.088050000">
  <ele>318.330000</ele>
  <time>2009-12-02T12:26:05Z</time>
</trkpt>
<trkpt lat="30.559875000" lon="35.087884000">
  <ele>320.260000</ele>
  <time>2009-12-02T12:26:16Z</time>
</trkpt>
<trkpt lat="30.559826000" lon="35.087913000">
  <ele>319.300000</ele>
  <time>2009-12-02T12:26:27Z</time>
</trkpt>
<trkpt lat="30.559826000" lon="35.087913000">
  <ele>319.300000</ele>
  <time>2009-12-02T12:27:42Z</time>
</trkpt>
<trkpt lat="30.559836000" lon="35.087924000">
  <ele>320.260000</ele>
  <time>2009-12-02T12:39:31Z</time>
</trkpt>
<trkpt lat="30.559846000" lon="35.087898000">
  <ele>320.260000</ele>
  <time>2009-12-02T12:41:40Z</time>
</trkpt>
<trkpt lat="30.559857000" lon="35.087882000">
  <ele>320.740000</ele>
  <time>2009-12-02T12:41:48Z</time>
</trkpt>
<trkpt lat="30.560018000" lon="35.087572000">
  <ele>321.220000</ele>
  <time>2009-12-02T12:42:08Z</time>
</trkpt>
<trkpt lat="30.560324000" lon="35.087245000">
  <ele>322.180000</ele>
  <time>2009-12-02T12:42:26Z</time>
</trkpt>
<trkpt lat="30.560665000" lon="35.086917000">
  <ele>322.660000</ele>
  <time>2009-12-02T12:42:44Z</time>
</trkpt>
<trkpt lat="30.561046000" lon="35.086664000">
  <ele>323.620000</ele>
  <time>2009-12-02T12:43:02Z</time>
</trkpt>
<trkpt lat="30.561231000" lon="35.086090000">
  <ele>325.540000</ele>
  <time>2009-12-02T12:43:21Z</time>
</trkpt>
<trkpt lat="30.561197000" lon="35.085552000">
  <ele>327.950000</ele>
  <time>2009-12-02T12:43:39Z</time>
</trkpt>
<trkpt lat="30.561346000" lon="35.085162000">
  <ele>328.910000</ele>
  <time>2009-12-02T12:43:51Z</time>
</trkpt>
<trkpt lat="30.561573000" lon="35.084772000">
  <ele>331.790000</ele>
  <time>2009-12-02T12:44:06Z</time>
</trkpt>
<trkpt lat="30.561808000" lon="35.084309000">
  <ele>334.200000</ele>
  <time>2009-12-02T12:44:24Z</time>
</trkpt>
<trkpt lat="30.561925000" lon="35.084076000">
  <ele>337.560000</ele>
  <time>2009-12-02T12:44:34Z</time>
</trkpt>
<trkpt lat="30.562261000" lon="35.083651000">
  <ele>338.040000</ele>
  <time>2009-12-02T12:44:51Z</time>
</trkpt>
<trkpt lat="30.562699000" lon="35.083121000">
  <ele>339.000000</ele>
  <time>2009-12-02T12:45:10Z</time>
</trkpt>
<trkpt lat="30.563100000" lon="35.082437000">
  <ele>339.480000</ele>
  <time>2009-12-02T12:45:29Z</time>
</trkpt>
<trkpt lat="30.563338000" lon="35.081839000">
  <ele>339.960000</ele>
  <time>2009-12-02T12:45:44Z</time>
</trkpt>
<trkpt lat="30.563533000" lon="35.081096000">
  <ele>343.810000</ele>
  <time>2009-12-02T12:46:03Z</time>
</trkpt>
<trkpt lat="30.563544000" lon="35.080821000">
  <ele>346.210000</ele>
  <time>2009-12-02T12:46:10Z</time>
</trkpt>
<trkpt lat="30.563559000" lon="35.080430000">
  <ele>344.290000</ele>
  <time>2009-12-02T12:46:19Z</time>
</trkpt>
<trkpt lat="30.563583000" lon="35.080294000">
  <ele>343.810000</ele>
  <time>2009-12-02T12:46:21Z</time>
</trkpt>
<trkpt lat="30.563605000" lon="35.080222000">
  <ele>343.810000</ele>
  <time>2009-12-02T12:46:22Z</time>
</trkpt>
<trkpt lat="30.563631000" lon="35.080153000">
  <ele>343.330000</ele>
  <time>2009-12-02T12:46:23Z</time>
</trkpt>
<trkpt lat="30.563765000" lon="35.079890000">
  <ele>346.210000</ele>
  <time>2009-12-02T12:46:28Z</time>
</trkpt>
<trkpt lat="30.563828000" lon="35.079811000">
  <ele>347.650000</ele>
  <time>2009-12-02T12:46:31Z</time>
</trkpt>
<trkpt lat="30.564131000" lon="35.079500000">
  <ele>349.100000</ele>
  <time>2009-12-02T12:46:48Z</time>
</trkpt>
<trkpt lat="30.564414000" lon="35.079423000">
  <ele>348.130000</ele>
  <time>2009-12-02T12:46:55Z</time>
</trkpt>
<trkpt lat="30.564781000" lon="35.079211000">
  <ele>345.730000</ele>
  <time>2009-12-02T12:47:03Z</time>
</trkpt>
<trkpt lat="30.565097000" lon="35.078800000">
  <ele>341.890000</ele>
  <time>2009-12-02T12:47:11Z</time>
</trkpt>
<trkpt lat="30.565133000" lon="35.078744000">
  <ele>342.370000</ele>
  <time>2009-12-02T12:47:12Z</time>
</trkpt>
<trkpt lat="30.565172000" lon="35.078690000">
  <ele>341.890000</ele>
  <time>2009-12-02T12:47:13Z</time>
</trkpt>
<trkpt lat="30.565211000" lon="35.078644000">
  <ele>341.890000</ele>
  <time>2009-12-02T12:47:14Z</time>
</trkpt>
<trkpt lat="30.565355000" lon="35.078468000">
  <ele>342.370000</ele>
  <time>2009-12-02T12:47:22Z</time>
</trkpt>
<trkpt lat="30.565415000" lon="35.078404000">
  <ele>342.850000</ele>
  <time>2009-12-02T12:47:37Z</time>
</trkpt>
<trkpt lat="30.565427000" lon="35.078385000">
  <ele>342.850000</ele>
  <time>2009-12-02T12:47:41Z</time>
</trkpt>
<trkpt lat="30.565433000" lon="35.078372000">
  <ele>342.850000</ele>
  <time>2009-12-02T12:47:42Z</time>
</trkpt>
<trkpt lat="30.565476000" lon="35.078326000">
  <ele>343.330000</ele>
  <time>2009-12-02T12:47:47Z</time>
</trkpt>
<trkpt lat="30.565650000" lon="35.078628000">
  <ele>340.920000</ele>
  <time>2009-12-02T12:48:00Z</time>
</trkpt>
<trkpt lat="30.565777000" lon="35.078751000">
  <ele>339.960000</ele>
  <time>2009-12-02T12:48:06Z</time>
</trkpt>
<trkpt lat="30.565798000" lon="35.078837000">
  <ele>340.440000</ele>
  <time>2009-12-02T12:48:14Z</time>
</trkpt>
<trkpt lat="30.565879000" lon="35.078797000">
  <ele>339.960000</ele>
  <time>2009-12-02T12:48:32Z</time>
</trkpt>
<trkpt lat="30.566029000" lon="35.078817000">
  <ele>339.960000</ele>
  <time>2009-12-02T12:48:57Z</time>
</trkpt>
<trkpt lat="30.566483000" lon="35.078937000">
  <ele>339.480000</ele>
  <time>2009-12-02T12:49:12Z</time>
</trkpt>
<trkpt lat="30.566704000" lon="35.079051000">
  <ele>342.370000</ele>
  <time>2009-12-02T12:49:22Z</time>
</trkpt>
<trkpt lat="30.566971000" lon="35.079202000">
  <ele>345.730000</ele>
  <time>2009-12-02T12:49:38Z</time>
</trkpt>
<trkpt lat="30.567105000" lon="35.079243000">
  <ele>345.730000</ele>
  <time>2009-12-02T12:49:55Z</time>
</trkpt>
<trkpt lat="30.567124000" lon="35.079250000">
  <ele>346.690000</ele>
  <time>2009-12-02T12:50:22Z</time>
</trkpt>
<trkpt lat="30.567133000" lon="35.079336000">
  <ele>345.730000</ele>
  <time>2009-12-02T12:50:28Z</time>
</trkpt>
<trkpt lat="30.567132000" lon="35.079411000">
  <ele>345.250000</ele>
  <time>2009-12-02T12:50:32Z</time>
</trkpt>
<trkpt lat="30.567141000" lon="35.079445000">
  <ele>344.290000</ele>
  <time>2009-12-02T12:50:33Z</time>
</trkpt>
<trkpt lat="30.567245000" lon="35.079617000">
  <ele>341.890000</ele>
  <time>2009-12-02T12:50:37Z</time>
</trkpt>
<trkpt lat="30.567343000" lon="35.079693000">
  <ele>340.440000</ele>
  <time>2009-12-02T12:50:39Z</time>
</trkpt>
<trkpt lat="30.567493000" lon="35.079855000">
  <ele>339.480000</ele>
  <time>2009-12-02T12:50:42Z</time>
</trkpt>
<trkpt lat="30.567632000" lon="35.080039000">
  <ele>337.560000</ele>
  <time>2009-12-02T12:50:45Z</time>
</trkpt>
<trkpt lat="30.567833000" lon="35.080310000">
  <ele>338.520000</ele>
  <time>2009-12-02T12:50:52Z</time>
</trkpt>
<trkpt lat="30.568078000" lon="35.080543000">
  <ele>339.480000</ele>
  <time>2009-12-02T12:51:00Z</time>
</trkpt>
<trkpt lat="30.568153000" lon="35.080836000">
  <ele>339.000000</ele>
  <time>2009-12-02T12:51:07Z</time>
</trkpt>
<trkpt lat="30.568303000" lon="35.080872000">
  <ele>339.480000</ele>
  <time>2009-12-02T12:51:12Z</time>
</trkpt>
<trkpt lat="30.568434000" lon="35.080861000">
  <ele>341.410000</ele>
  <time>2009-12-02T12:51:16Z</time>
</trkpt>
<trkpt lat="30.568795000" lon="35.081036000">
  <ele>343.330000</ele>
  <time>2009-12-02T12:51:30Z</time>
</trkpt>
<trkpt lat="30.569168000" lon="35.081280000">
  <ele>344.770000</ele>
  <time>2009-12-02T12:51:48Z</time>
</trkpt>
<trkpt lat="30.569252000" lon="35.081346000">
  <ele>346.690000</ele>
  <time>2009-12-02T12:51:53Z</time>
</trkpt>
<trkpt lat="30.569624000" lon="35.081621000">
  <ele>347.650000</ele>
  <time>2009-12-02T12:52:13Z</time>
</trkpt>
<trkpt lat="30.569956000" lon="35.082292000">
  <ele>349.100000</ele>
  <time>2009-12-02T12:52:36Z</time>
</trkpt>
<trkpt lat="30.570302000" lon="35.082898000">
  <ele>350.060000</ele>
  <time>2009-12-02T12:52:54Z</time>
</trkpt>
<trkpt lat="30.570654000" lon="35.083527000">
  <ele>351.980000</ele>
  <time>2009-12-02T12:53:15Z</time>
</trkpt>
<trkpt lat="30.570817000" lon="35.083877000">
  <ele>354.860000</ele>
  <time>2009-12-02T12:53:28Z</time>
</trkpt>
<trkpt lat="30.570963000" lon="35.084122000">
  <ele>358.230000</ele>
  <time>2009-12-02T12:53:38Z</time>
</trkpt>
<trkpt lat="30.571326000" lon="35.084351000">
  <ele>358.710000</ele>
  <time>2009-12-02T12:53:55Z</time>
</trkpt>
<trkpt lat="30.571529000" lon="35.084387000">
  <ele>357.270000</ele>
  <time>2009-12-02T12:54:00Z</time>
</trkpt>
<trkpt lat="30.571697000" lon="35.084372000">
  <ele>357.270000</ele>
  <time>2009-12-02T12:54:04Z</time>
</trkpt>
<trkpt lat="30.571897000" lon="35.084354000">
  <ele>360.630000</ele>
  <time>2009-12-02T12:54:11Z</time>
</trkpt>
<trkpt lat="30.571970000" lon="35.084408000">
  <ele>360.630000</ele>
  <time>2009-12-02T12:54:21Z</time>
</trkpt>
<trkpt lat="30.572000000" lon="35.084373000">
  <ele>360.630000</ele>
  <time>2009-12-02T12:54:31Z</time>
</trkpt>
<trkpt lat="30.571992000" lon="35.084439000">
  <ele>359.670000</ele>
  <time>2009-12-02T12:55:04Z</time>
</trkpt>
<trkpt lat="30.571992000" lon="35.084441000">
  <ele>359.670000</ele>
  <time>2009-12-02T12:55:56Z</time>
</trkpt>
<trkpt lat="30.572008000" lon="35.084427000">
  <ele>359.670000</ele>
  <time>2009-12-02T12:56:23Z</time>
</trkpt>
<trkpt lat="30.572009000" lon="35.084433000">
  <ele>359.670000</ele>
  <time>2009-12-02T12:56:24Z</time>
</trkpt>
<trkpt lat="30.572281000" lon="35.084739000">
  <ele>358.230000</ele>
  <time>2009-12-02T12:56:40Z</time>
</trkpt>
<trkpt lat="30.572520000" lon="35.085010000">
  <ele>356.310000</ele>
  <time>2009-12-02T12:56:49Z</time>
</trkpt>
<trkpt lat="30.572702000" lon="35.085111000">
  <ele>355.830000</ele>
  <time>2009-12-02T12:56:53Z</time>
</trkpt>
<trkpt lat="30.572944000" lon="35.085159000">
  <ele>354.380000</ele>
  <time>2009-12-02T12:56:57Z</time>
</trkpt>
<trkpt lat="30.573237000" lon="35.085087000">
  <ele>355.830000</ele>
  <time>2009-12-02T12:57:06Z</time>
</trkpt>
<trkpt lat="30.573408000" lon="35.085071000">
  <ele>357.270000</ele>
  <time>2009-12-02T12:57:21Z</time>
</trkpt>
<trkpt lat="30.573415000" lon="35.085067000">
  <ele>357.270000</ele>
  <time>2009-12-02T12:57:24Z</time>
</trkpt>
<trkpt lat="30.573574000" lon="35.084979000">
  <ele>361.110000</ele>
  <time>2009-12-02T12:57:43Z</time>
</trkpt>
<trkpt lat="30.573671000" lon="35.084901000">
  <ele>364.000000</ele>
  <time>2009-12-02T12:57:59Z</time>
</trkpt>
<trkpt lat="30.573879000" lon="35.084701000">
  <ele>363.040000</ele>
  <time>2009-12-02T12:58:10Z</time>
</trkpt>
<trkpt lat="30.573995000" lon="35.084420000">
  <ele>364.000000</ele>
  <time>2009-12-02T12:58:25Z</time>
</trkpt>
<trkpt lat="30.573993000" lon="35.084420000">
  <ele>364.000000</ele>
  <time>2009-12-02T12:58:28Z</time>
</trkpt>
<trkpt lat="30.574013000" lon="35.084365000">
  <ele>363.520000</ele>
  <time>2009-12-02T12:58:32Z</time>
</trkpt>
<trkpt lat="30.574164000" lon="35.084137000">
  <ele>360.630000</ele>
  <time>2009-12-02T12:58:40Z</time>
</trkpt>
<trkpt lat="30.574279000" lon="35.084010000">
  <ele>358.710000</ele>
  <time>2009-12-02T12:58:43Z</time>
</trkpt>
<trkpt lat="30.574462000" lon="35.083883000">
  <ele>357.750000</ele>
  <time>2009-12-02T12:58:50Z</time>
</trkpt>
<trkpt lat="30.574662000" lon="35.083923000">
  <ele>353.900000</ele>
  <time>2009-12-02T12:58:55Z</time>
</trkpt>
<trkpt lat="30.574806000" lon="35.083913000">
  <ele>351.980000</ele>
  <time>2009-12-02T12:58:57Z</time>
</trkpt>
<trkpt lat="30.574931000" lon="35.083864000">
  <ele>350.060000</ele>
  <time>2009-12-02T12:58:59Z</time>
</trkpt>
<trkpt lat="30.575089000" lon="35.083778000">
  <ele>350.540000</ele>
  <time>2009-12-02T12:59:05Z</time>
</trkpt>
<trkpt lat="30.575192000" lon="35.083848000">
  <ele>351.020000</ele>
  <time>2009-12-02T12:59:11Z</time>
</trkpt>
<trkpt lat="30.575369000" lon="35.084044000">
  <ele>348.620000</ele>
  <time>2009-12-02T12:59:23Z</time>
</trkpt>
<trkpt lat="30.575535000" lon="35.084234000">
  <ele>346.690000</ele>
  <time>2009-12-02T13:00:04Z</time>
</trkpt>
<trkpt lat="30.575590000" lon="35.084292000">
  <ele>346.690000</ele>
  <time>2009-12-02T13:00:06Z</time>
</trkpt>
<trkpt lat="30.575686000" lon="35.084397000">
  <ele>344.770000</ele>
  <time>2009-12-02T13:00:09Z</time>
</trkpt>
<trkpt lat="30.575819000" lon="35.084531000">
  <ele>341.410000</ele>
  <time>2009-12-02T13:00:12Z</time>
</trkpt>
<trkpt lat="30.575990000" lon="35.084641000">
  <ele>339.960000</ele>
  <time>2009-12-02T13:00:15Z</time>
</trkpt>
<trkpt lat="30.576184000" lon="35.084806000">
  <ele>338.040000</ele>
  <time>2009-12-02T13:00:20Z</time>
</trkpt>
<trkpt lat="30.576302000" lon="35.084948000">
  <ele>336.120000</ele>
  <time>2009-12-02T13:00:23Z</time>
</trkpt>
<trkpt lat="30.576476000" lon="35.085093000">
  <ele>334.200000</ele>
  <time>2009-12-02T13:00:26Z</time>
</trkpt>
<trkpt lat="30.576770000" lon="35.085252000">
  <ele>334.680000</ele>
  <time>2009-12-02T13:00:32Z</time>
</trkpt>
<trkpt lat="30.576815000" lon="35.085443000">
  <ele>335.160000</ele>
  <time>2009-12-02T13:00:37Z</time>
</trkpt>
<trkpt lat="30.576951000" lon="35.085901000">
  <ele>336.120000</ele>
  <time>2009-12-02T13:00:48Z</time>
</trkpt>
<trkpt lat="30.577249000" lon="35.086777000">
  <ele>333.710000</ele>
  <time>2009-12-02T13:01:05Z</time>
</trkpt>
<trkpt lat="30.577332000" lon="35.087105000">
  <ele>333.710000</ele>
  <time>2009-12-02T13:01:11Z</time>
</trkpt>
<trkpt lat="30.577401000" lon="35.087255000">
  <ele>333.710000</ele>
  <time>2009-12-02T13:01:14Z</time>
</trkpt>
<trkpt lat="30.577459000" lon="35.087405000">
  <ele>332.750000</ele>
  <time>2009-12-02T13:01:17Z</time>
</trkpt>
<trkpt lat="30.577521000" lon="35.087540000">
  <ele>332.750000</ele>
  <time>2009-12-02T13:01:20Z</time>
</trkpt>
<trkpt lat="30.577885000" lon="35.088081000">
  <ele>329.390000</ele>
  <time>2009-12-02T13:01:31Z</time>
</trkpt>
<trkpt lat="30.577919000" lon="35.088125000">
  <ele>329.870000</ele>
  <time>2009-12-02T13:01:32Z</time>
</trkpt>
<trkpt lat="30.578024000" lon="35.088332000">
  <ele>328.430000</ele>
  <time>2009-12-02T13:01:36Z</time>
</trkpt>
<trkpt lat="30.578076000" lon="35.088462000">
  <ele>327.470000</ele>
  <time>2009-12-02T13:01:38Z</time>
</trkpt>
<trkpt lat="30.578213000" lon="35.088849000">
  <ele>325.540000</ele>
  <time>2009-12-02T13:01:45Z</time>
</trkpt>
<trkpt lat="30.578232000" lon="35.089164000">
  <ele>324.580000</ele>
  <time>2009-12-02T13:01:51Z</time>
</trkpt>
<trkpt lat="30.578290000" lon="35.089501000">
  <ele>324.580000</ele>
  <time>2009-12-02T13:01:57Z</time>
</trkpt>
<trkpt lat="30.578332000" lon="35.090257000">
  <ele>324.100000</ele>
  <time>2009-12-02T13:02:13Z</time>
</trkpt>
<trkpt lat="30.578343000" lon="35.090796000">
  <ele>326.020000</ele>
  <time>2009-12-02T13:02:27Z</time>
</trkpt>
<trkpt lat="30.578336000" lon="35.091022000">
  <ele>325.540000</ele>
  <time>2009-12-02T13:02:34Z</time>
</trkpt>
<trkpt lat="30.578434000" lon="35.091341000">
  <ele>326.990000</ele>
  <time>2009-12-02T13:02:46Z</time>
</trkpt>
<trkpt lat="30.578491000" lon="35.091638000">
  <ele>329.390000</ele>
  <time>2009-12-02T13:02:58Z</time>
</trkpt>
<trkpt lat="30.578537000" lon="35.091766000">
  <ele>328.430000</ele>
  <time>2009-12-02T13:03:15Z</time>
</trkpt>
<trkpt lat="30.578568000" lon="35.091841000">
  <ele>327.470000</ele>
  <time>2009-12-02T13:03:17Z</time>
</trkpt>
<trkpt lat="30.578586000" lon="35.091969000">
  <ele>327.470000</ele>
  <time>2009-12-02T13:03:21Z</time>
</trkpt>
<trkpt lat="30.578797000" lon="35.092370000">
  <ele>326.020000</ele>
  <time>2009-12-02T13:03:35Z</time>
</trkpt>
<trkpt lat="30.578862000" lon="35.092710000">
  <ele>325.540000</ele>
  <time>2009-12-02T13:03:47Z</time>
</trkpt>
<trkpt lat="30.578862000" lon="35.092771000">
  <ele>324.100000</ele>
  <time>2009-12-02T13:03:50Z</time>
</trkpt>
<trkpt lat="30.578862000" lon="35.092841000">
  <ele>324.100000</ele>
  <time>2009-12-02T13:04:03Z</time>
</trkpt>
<trkpt lat="30.578825000" lon="35.092852000">
  <ele>321.700000</ele>
  <time>2009-12-02T13:04:41Z</time>
</trkpt>
<trkpt lat="30.578726000" lon="35.092826000">
  <ele>319.780000</ele>
  <time>2009-12-02T13:04:56Z</time>
</trkpt>
<trkpt lat="30.578666000" lon="35.092810000">
  <ele>318.810000</ele>
  <time>2009-12-02T13:05:10Z</time>
</trkpt>
<trkpt lat="30.578612000" lon="35.092829000">
  <ele>317.850000</ele>
  <time>2009-12-02T13:06:30Z</time>
</trkpt>
<trkpt lat="30.578591000" lon="35.092842000">
  <ele>317.370000</ele>
  <time>2009-12-02T13:06:33Z</time>
</trkpt>
<trkpt lat="30.578564000" lon="35.092979000">
  <ele>315.930000</ele>
  <time>2009-12-02T13:06:49Z</time>
</trkpt>
<trkpt lat="30.578569000" lon="35.093272000">
  <ele>313.050000</ele>
  <time>2009-12-02T13:07:00Z</time>
</trkpt>
<trkpt lat="30.578692000" lon="35.093694000">
  <ele>313.050000</ele>
  <time>2009-12-02T13:07:13Z</time>
</trkpt>
<trkpt lat="30.578547000" lon="35.094093000">
  <ele>315.450000</ele>
  <time>2009-12-02T13:07:27Z</time>
</trkpt>
<trkpt lat="30.578403000" lon="35.094575000">
  <ele>317.370000</ele>
  <time>2009-12-02T13:07:43Z</time>
</trkpt>
<trkpt lat="30.578413000" lon="35.094687000">
  <ele>316.890000</ele>
  <time>2009-12-02T13:07:55Z</time>
</trkpt>
<trkpt lat="30.578409000" lon="35.094711000">
  <ele>316.890000</ele>
  <time>2009-12-02T13:09:25Z</time>
</trkpt>
<trkpt lat="30.578309000" lon="35.095059000">
  <ele>315.930000</ele>
  <time>2009-12-02T13:09:37Z</time>
</trkpt>
<trkpt lat="30.578388000" lon="35.095609000">
  <ele>313.050000</ele>
  <time>2009-12-02T13:09:49Z</time>
</trkpt>
<trkpt lat="30.578389000" lon="35.095771000">
  <ele>311.120000</ele>
  <time>2009-12-02T13:09:53Z</time>
</trkpt>
<trkpt lat="30.578385000" lon="35.096178000">
  <ele>311.120000</ele>
  <time>2009-12-02T13:10:04Z</time>
</trkpt>
<trkpt lat="30.578539000" lon="35.096763000">
  <ele>309.680000</ele>
  <time>2009-12-02T13:10:18Z</time>
</trkpt>
<trkpt lat="30.578532000" lon="35.096954000">
  <ele>309.200000</ele>
  <time>2009-12-02T13:10:22Z</time>
</trkpt>
<trkpt lat="30.578508000" lon="35.097108000">
  <ele>308.720000</ele>
  <time>2009-12-02T13:10:25Z</time>
</trkpt>
<trkpt lat="30.578512000" lon="35.097590000">
  <ele>307.760000</ele>
  <time>2009-12-02T13:10:37Z</time>
</trkpt>
<trkpt lat="30.578532000" lon="35.097641000">
  <ele>307.760000</ele>
  <time>2009-12-02T13:10:39Z</time>
</trkpt>
<trkpt lat="30.578634000" lon="35.097765000">
  <ele>308.240000</ele>
  <time>2009-12-02T13:10:45Z</time>
</trkpt>
<trkpt lat="30.578866000" lon="35.098210000">
  <ele>308.240000</ele>
  <time>2009-12-02T13:10:58Z</time>
</trkpt>
<trkpt lat="30.579147000" lon="35.098652000">
  <ele>309.200000</ele>
  <time>2009-12-02T13:11:13Z</time>
</trkpt>
<trkpt lat="30.579165000" lon="35.098877000">
  <ele>308.720000</ele>
  <time>2009-12-02T13:11:18Z</time>
</trkpt>
<trkpt lat="30.579283000" lon="35.099638000">
  <ele>307.280000</ele>
  <time>2009-12-02T13:11:34Z</time>
</trkpt>
<trkpt lat="30.579349000" lon="35.100269000">
  <ele>310.160000</ele>
  <time>2009-12-02T13:11:47Z</time>
</trkpt>
<trkpt lat="30.579333000" lon="35.100464000">
  <ele>309.200000</ele>
  <time>2009-12-02T13:11:52Z</time>
</trkpt>
<trkpt lat="30.579333000" lon="35.100881000">
  <ele>308.240000</ele>
  <time>2009-12-02T13:12:03Z</time>
</trkpt>
<trkpt lat="30.579369000" lon="35.101357000">
  <ele>311.120000</ele>
  <time>2009-12-02T13:12:15Z</time>
</trkpt>
<trkpt lat="30.579369000" lon="35.101382000">
  <ele>310.640000</ele>
  <time>2009-12-02T13:12:16Z</time>
</trkpt>
<trkpt lat="30.579359000" lon="35.101837000">
  <ele>311.600000</ele>
  <time>2009-12-02T13:12:31Z</time>
</trkpt>
<trkpt lat="30.579318000" lon="35.101952000">
  <ele>311.120000</ele>
  <time>2009-12-02T13:12:35Z</time>
</trkpt>
<trkpt lat="30.579322000" lon="35.102351000">
  <ele>311.120000</ele>
  <time>2009-12-02T13:12:48Z</time>
</trkpt>
<trkpt lat="30.579296000" lon="35.102431000">
  <ele>309.200000</ele>
  <time>2009-12-02T13:12:52Z</time>
</trkpt>
<trkpt lat="30.579335000" lon="35.102483000">
  <ele>308.720000</ele>
  <time>2009-12-02T13:13:05Z</time>
</trkpt>
<trkpt lat="30.579397000" lon="35.102549000">
  <ele>310.640000</ele>
  <time>2009-12-02T13:13:43Z</time>
</trkpt>
<trkpt lat="30.579402000" lon="35.102569000">
  <ele>310.640000</ele>
  <time>2009-12-02T13:14:06Z</time>
</trkpt>
<trkpt lat="30.579390000" lon="35.102585000">
  <ele>310.160000</ele>
  <time>2009-12-02T13:15:29Z</time>
</trkpt>
<trkpt lat="30.579389000" lon="35.102622000">
  <ele>310.160000</ele>
  <time>2009-12-02T13:16:26Z</time>
</trkpt>
<trkpt lat="30.579423000" lon="35.102792000">
  <ele>310.160000</ele>
  <time>2009-12-02T13:16:33Z</time>
</trkpt>
<trkpt lat="30.579511000" lon="35.103367000">
  <ele>311.600000</ele>
  <time>2009-12-02T13:16:49Z</time>
</trkpt>
<trkpt lat="30.579611000" lon="35.103895000">
  <ele>313.050000</ele>
  <time>2009-12-02T13:17:04Z</time>
</trkpt>
<trkpt lat="30.579823000" lon="35.104426000">
  <ele>313.530000</ele>
  <time>2009-12-02T13:17:20Z</time>
</trkpt>
<trkpt lat="30.580063000" lon="35.104768000">
  <ele>313.050000</ele>
  <time>2009-12-02T13:17:32Z</time>
</trkpt>
<trkpt lat="30.580378000" lon="35.105027000">
  <ele>314.010000</ele>
  <time>2009-12-02T13:17:46Z</time>
</trkpt>
<trkpt lat="30.580613000" lon="35.105486000">
  <ele>315.450000</ele>
  <time>2009-12-02T13:18:02Z</time>
</trkpt>
<trkpt lat="30.580755000" lon="35.105935000">
  <ele>316.410000</ele>
  <time>2009-12-02T13:18:17Z</time>
</trkpt>
<trkpt lat="30.580839000" lon="35.106200000">
  <ele>318.330000</ele>
  <time>2009-12-02T13:18:29Z</time>
</trkpt>
<trkpt lat="30.581038000" lon="35.106512000">
  <ele>321.220000</ele>
  <time>2009-12-02T13:18:48Z</time>
</trkpt>
<trkpt lat="30.581187000" lon="35.106714000">
  <ele>323.620000</ele>
  <time>2009-12-02T13:19:04Z</time>
</trkpt>
<trkpt lat="30.581248000" lon="35.106830000">
  <ele>325.060000</ele>
  <time>2009-12-02T13:19:13Z</time>
</trkpt>
<trkpt lat="30.581408000" lon="35.107039000">
  <ele>328.430000</ele>
  <time>2009-12-02T13:19:29Z</time>
</trkpt>
<trkpt lat="30.581446000" lon="35.107101000">
  <ele>328.910000</ele>
  <time>2009-12-02T13:19:34Z</time>
</trkpt>
<trkpt lat="30.581438000" lon="35.107189000">
  <ele>328.910000</ele>
  <time>2009-12-02T13:19:49Z</time>
</trkpt>
<trkpt lat="30.581437000" lon="35.107162000">
  <ele>328.430000</ele>
  <time>2009-12-02T13:20:04Z</time>
</trkpt>
<trkpt lat="30.581437000" lon="35.107151000">
  <ele>327.470000</ele>
  <time>2009-12-02T13:20:27Z</time>
</trkpt>
<trkpt lat="30.581423000" lon="35.107136000">
  <ele>327.470000</ele>
  <time>2009-12-02T13:28:03Z</time>
</trkpt>
<trkpt lat="30.581427000" lon="35.107127000">
  <ele>326.990000</ele>
  <time>2009-12-02T13:43:06Z</time>
</trkpt>
<trkpt lat="30.581435000" lon="35.107160000">
  <ele>326.990000</ele>
  <time>2009-12-02T13:43:48Z</time>
</trkpt>
<trkpt lat="30.581399000" lon="35.107358000">
  <ele>326.020000</ele>
  <time>2009-12-02T13:43:58Z</time>
</trkpt>
<trkpt lat="30.581439000" lon="35.107654000">
  <ele>323.620000</ele>
  <time>2009-12-02T13:44:05Z</time>
</trkpt>
<trkpt lat="30.581462000" lon="35.107837000">
  <ele>322.660000</ele>
  <time>2009-12-02T13:44:09Z</time>
</trkpt>
<trkpt lat="30.581453000" lon="35.108017000">
  <ele>320.740000</ele>
  <time>2009-12-02T13:44:13Z</time>
</trkpt>
<trkpt lat="30.581485000" lon="35.108098000">
  <ele>320.740000</ele>
  <time>2009-12-02T13:44:15Z</time>
</trkpt>
<trkpt lat="30.581495000" lon="35.108329000">
  <ele>319.300000</ele>
  <time>2009-12-02T13:44:19Z</time>
</trkpt>
<trkpt lat="30.581468000" lon="35.108542000">
  <ele>319.300000</ele>
  <time>2009-12-02T13:44:23Z</time>
</trkpt>
<trkpt lat="30.581444000" lon="35.108722000">
  <ele>317.370000</ele>
  <time>2009-12-02T13:44:27Z</time>
</trkpt>
<trkpt lat="30.581466000" lon="35.108800000">
  <ele>317.850000</ele>
  <time>2009-12-02T13:44:29Z</time>
</trkpt>
<trkpt lat="30.581318000" lon="35.109320000">
  <ele>315.450000</ele>
  <time>2009-12-02T13:44:39Z</time>
</trkpt>
<trkpt lat="30.581253000" lon="35.109675000">
  <ele>313.050000</ele>
  <time>2009-12-02T13:44:44Z</time>
</trkpt>
<trkpt lat="30.581274000" lon="35.110033000">
  <ele>311.120000</ele>
  <time>2009-12-02T13:44:49Z</time>
</trkpt>
<trkpt lat="30.581275000" lon="35.110290000">
  <ele>307.280000</ele>
  <time>2009-12-02T13:44:54Z</time>
</trkpt>
<trkpt lat="30.581307000" lon="35.110381000">
  <ele>305.840000</ele>
  <time>2009-12-02T13:44:56Z</time>
</trkpt>
<trkpt lat="30.581350000" lon="35.110586000">
  <ele>303.910000</ele>
  <time>2009-12-02T13:44:59Z</time>
</trkpt>
<trkpt lat="30.581366000" lon="35.110751000">
  <ele>302.470000</ele>
  <time>2009-12-02T13:45:01Z</time>
</trkpt>
<trkpt lat="30.581292000" lon="35.111063000">
  <ele>299.110000</ele>
  <time>2009-12-02T13:45:06Z</time>
</trkpt>
<trkpt lat="30.581368000" lon="35.111488000">
  <ele>297.670000</ele>
  <time>2009-12-02T13:45:14Z</time>
</trkpt>
<trkpt lat="30.581389000" lon="35.111778000">
  <ele>296.220000</ele>
  <time>2009-12-02T13:45:19Z</time>
</trkpt>
<trkpt lat="30.581412000" lon="35.111903000">
  <ele>295.260000</ele>
  <time>2009-12-02T13:45:21Z</time>
</trkpt>
<trkpt lat="30.581431000" lon="35.111969000">
  <ele>295.260000</ele>
  <time>2009-12-02T13:45:22Z</time>
</trkpt>
<trkpt lat="30.581402000" lon="35.112231000">
  <ele>290.940000</ele>
  <time>2009-12-02T13:45:27Z</time>
</trkpt>
<trkpt lat="30.581393000" lon="35.112257000">
  <ele>290.940000</ele>
  <time>2009-12-02T13:45:28Z</time>
</trkpt>
<trkpt lat="30.581377000" lon="35.112468000">
  <ele>287.570000</ele>
  <time>2009-12-02T13:45:32Z</time>
</trkpt>
<trkpt lat="30.581237000" lon="35.113174000">
  <ele>283.730000</ele>
  <time>2009-12-02T13:45:42Z</time>
</trkpt>
<trkpt lat="30.581147000" lon="35.113662000">
  <ele>281.320000</ele>
  <time>2009-12-02T13:45:48Z</time>
</trkpt>
<trkpt lat="30.581136000" lon="35.113743000">
  <ele>280.840000</ele>
  <time>2009-12-02T13:45:49Z</time>
</trkpt>
<trkpt lat="30.581068000" lon="35.114054000">
  <ele>279.880000</ele>
  <time>2009-12-02T13:45:53Z</time>
</trkpt>
<trkpt lat="30.581055000" lon="35.114330000">
  <ele>278.920000</ele>
  <time>2009-12-02T13:45:57Z</time>
</trkpt>
<trkpt lat="30.581036000" lon="35.114543000">
  <ele>280.360000</ele>
  <time>2009-12-02T13:46:00Z</time>
</trkpt>
<trkpt lat="30.581109000" lon="35.115055000">
  <ele>279.400000</ele>
  <time>2009-12-02T13:46:07Z</time>
</trkpt>
<trkpt lat="30.581199000" lon="35.115240000">
  <ele>278.440000</ele>
  <time>2009-12-02T13:46:10Z</time>
</trkpt>
<trkpt lat="30.581280000" lon="35.115601000">
  <ele>277.480000</ele>
  <time>2009-12-02T13:46:15Z</time>
</trkpt>
<trkpt lat="30.581298000" lon="35.115854000">
  <ele>275.560000</ele>
  <time>2009-12-02T13:46:18Z</time>
</trkpt>
<trkpt lat="30.581303000" lon="35.116300000">
  <ele>275.560000</ele>
  <time>2009-12-02T13:46:24Z</time>
</trkpt>
<trkpt lat="30.581268000" lon="35.116481000">
  <ele>275.070000</ele>
  <time>2009-12-02T13:46:27Z</time>
</trkpt>
<trkpt lat="30.581218000" lon="35.116629000">
  <ele>274.590000</ele>
  <time>2009-12-02T13:46:30Z</time>
</trkpt>
<trkpt lat="30.581102000" lon="35.116793000">
  <ele>272.670000</ele>
  <time>2009-12-02T13:46:34Z</time>
</trkpt>
<trkpt lat="30.581024000" lon="35.116897000">
  <ele>270.270000</ele>
  <time>2009-12-02T13:46:38Z</time>
</trkpt>
<trkpt lat="30.580983000" lon="35.117036000">
  <ele>266.900000</ele>
  <time>2009-12-02T13:46:41Z</time>
</trkpt>
<trkpt lat="30.580975000" lon="35.117096000">
  <ele>266.420000</ele>
  <time>2009-12-02T13:46:42Z</time>
</trkpt>
<trkpt lat="30.581025000" lon="35.117574000">
  <ele>265.940000</ele>
  <time>2009-12-02T13:46:49Z</time>
</trkpt>
<trkpt lat="30.581055000" lon="35.117845000">
  <ele>265.940000</ele>
  <time>2009-12-02T13:46:54Z</time>
</trkpt>
<trkpt lat="30.581058000" lon="35.118028000">
  <ele>265.460000</ele>
  <time>2009-12-02T13:46:57Z</time>
</trkpt>
<trkpt lat="30.580990000" lon="35.118259000">
  <ele>265.460000</ele>
  <time>2009-12-02T13:47:01Z</time>
</trkpt>
<trkpt lat="30.580823000" lon="35.118549000">
  <ele>267.380000</ele>
  <time>2009-12-02T13:47:08Z</time>
</trkpt>
<trkpt lat="30.580793000" lon="35.118717000">
  <ele>266.900000</ele>
  <time>2009-12-02T13:47:12Z</time>
</trkpt>
<trkpt lat="30.580686000" lon="35.119008000">
  <ele>265.460000</ele>
  <time>2009-12-02T13:47:17Z</time>
</trkpt>
<trkpt lat="30.580253000" lon="35.119605000">
  <ele>266.420000</ele>
  <time>2009-12-02T13:47:29Z</time>
</trkpt>
<trkpt lat="30.579993000" lon="35.120210000">
  <ele>267.860000</ele>
  <time>2009-12-02T13:47:42Z</time>
</trkpt>
<trkpt lat="30.579985000" lon="35.120249000">
  <ele>267.380000</ele>
  <time>2009-12-02T13:47:43Z</time>
</trkpt>
<trkpt lat="30.579988000" lon="35.120404000">
  <ele>265.460000</ele>
  <time>2009-12-02T13:47:46Z</time>
</trkpt>
<trkpt lat="30.579970000" lon="35.120529000">
  <ele>264.500000</ele>
  <time>2009-12-02T13:47:48Z</time>
</trkpt>
<trkpt lat="30.579835000" lon="35.120771000">
  <ele>263.540000</ele>
  <time>2009-12-02T13:47:56Z</time>
</trkpt>
<trkpt lat="30.579743000" lon="35.120813000">
  <ele>264.020000</ele>
  <time>2009-12-02T13:48:07Z</time>
</trkpt>
<trkpt lat="30.579722000" lon="35.120832000">
  <ele>264.020000</ele>
  <time>2009-12-02T13:48:17Z</time>
</trkpt>
<trkpt lat="30.579650000" lon="35.121047000">
  <ele>264.500000</ele>
  <time>2009-12-02T13:48:26Z</time>
</trkpt>
<trkpt lat="30.579632000" lon="35.121081000">
  <ele>264.020000</ele>
  <time>2009-12-02T13:48:44Z</time>
</trkpt>
<trkpt lat="30.579631000" lon="35.121077000">
  <ele>264.020000</ele>
  <time>2009-12-02T13:49:23Z</time>
</trkpt>
<trkpt lat="30.579634000" lon="35.121074000">
  <ele>263.060000</ele>
  <time>2009-12-02T13:52:04Z</time>
</trkpt>
<trkpt lat="30.579632000" lon="35.121073000">
  <ele>262.580000</ele>
  <time>2009-12-02T13:54:15Z</time>
</trkpt>
<trkpt lat="30.579632000" lon="35.121073000">
  <ele>261.620000</ele>
  <time>2009-12-02T13:54:55Z</time>
</trkpt>
<trkpt lat="30.579548000" lon="35.121224000">
  <ele>260.650000</ele>
  <time>2009-12-02T13:55:25Z</time>
</trkpt>
<trkpt lat="30.579492000" lon="35.121312000">
  <ele>259.690000</ele>
  <time>2009-12-02T13:55:27Z</time>
</trkpt>
<trkpt lat="30.579461000" lon="35.121359000">
  <ele>258.730000</ele>
  <time>2009-12-02T13:55:28Z</time>
</trkpt>
<trkpt lat="30.579398000" lon="35.121431000">
  <ele>257.290000</ele>
  <time>2009-12-02T13:55:30Z</time>
</trkpt>
<trkpt lat="30.579335000" lon="35.121484000">
  <ele>255.370000</ele>
  <time>2009-12-02T13:55:32Z</time>
</trkpt>
<trkpt lat="30.579270000" lon="35.121512000">
  <ele>253.930000</ele>
  <time>2009-12-02T13:55:34Z</time>
</trkpt>
<trkpt lat="30.579183000" lon="35.121513000">
  <ele>252.480000</ele>
  <time>2009-12-02T13:55:36Z</time>
</trkpt>
<trkpt lat="30.579114000" lon="35.121514000">
  <ele>252.480000</ele>
  <time>2009-12-02T13:55:38Z</time>
</trkpt>
<trkpt lat="30.578866000" lon="35.121682000">
  <ele>250.080000</ele>
  <time>2009-12-02T13:55:46Z</time>
</trkpt>
<trkpt lat="30.578687000" lon="35.121871000">
  <ele>246.720000</ele>
  <time>2009-12-02T13:55:53Z</time>
</trkpt>
<trkpt lat="30.578660000" lon="35.121892000">
  <ele>246.720000</ele>
  <time>2009-12-02T13:55:54Z</time>
</trkpt>
<trkpt lat="30.578604000" lon="35.121970000">
  <ele>245.270000</ele>
  <time>2009-12-02T13:55:56Z</time>
</trkpt>
<trkpt lat="30.578489000" lon="35.122208000">
  <ele>242.870000</ele>
  <time>2009-12-02T13:56:00Z</time>
</trkpt>
<trkpt lat="30.578278000" lon="35.122451000">
  <ele>240.470000</ele>
  <time>2009-12-02T13:56:04Z</time>
</trkpt>
<trkpt lat="30.578216000" lon="35.122511000">
  <ele>239.990000</ele>
  <time>2009-12-02T13:56:05Z</time>
</trkpt>
<trkpt lat="30.578016000" lon="35.122643000">
  <ele>238.540000</ele>
  <time>2009-12-02T13:56:08Z</time>
</trkpt>
<trkpt lat="30.577823000" lon="35.122749000">
  <ele>237.580000</ele>
  <time>2009-12-02T13:56:11Z</time>
</trkpt>
<trkpt lat="30.577589000" lon="35.123023000">
  <ele>233.740000</ele>
  <time>2009-12-02T13:56:19Z</time>
</trkpt>
<trkpt lat="30.577494000" lon="35.123194000">
  <ele>230.370000</ele>
  <time>2009-12-02T13:56:24Z</time>
</trkpt>
<trkpt lat="30.577470000" lon="35.123246000">
  <ele>229.410000</ele>
  <time>2009-12-02T13:56:25Z</time>
</trkpt>
<trkpt lat="30.577439000" lon="35.123371000">
  <ele>228.450000</ele>
  <time>2009-12-02T13:56:27Z</time>
</trkpt>
<trkpt lat="30.577405000" lon="35.123484000">
  <ele>226.530000</ele>
  <time>2009-12-02T13:56:29Z</time>
</trkpt>
<trkpt lat="30.577337000" lon="35.123625000">
  <ele>225.090000</ele>
  <time>2009-12-02T13:56:32Z</time>
</trkpt>
<trkpt lat="30.577255000" lon="35.123901000">
  <ele>219.320000</ele>
  <time>2009-12-02T13:56:37Z</time>
</trkpt>
<trkpt lat="30.577207000" lon="35.124025000">
  <ele>215.950000</ele>
  <time>2009-12-02T13:56:40Z</time>
</trkpt>
<trkpt lat="30.577155000" lon="35.124149000">
  <ele>212.590000</ele>
  <time>2009-12-02T13:56:44Z</time>
</trkpt>
<trkpt lat="30.577122000" lon="35.124288000">
  <ele>209.220000</ele>
  <time>2009-12-02T13:56:50Z</time>
</trkpt>
<trkpt lat="30.577072000" lon="35.124437000">
  <ele>204.900000</ele>
  <time>2009-12-02T13:56:54Z</time>
</trkpt>
<trkpt lat="30.577059000" lon="35.124477000">
  <ele>203.940000</ele>
  <time>2009-12-02T13:56:55Z</time>
</trkpt>
<trkpt lat="30.576913000" lon="35.124751000">
  <ele>199.610000</ele>
  <time>2009-12-02T13:57:01Z</time>
</trkpt>
<trkpt lat="30.576808000" lon="35.124883000">
  <ele>195.770000</ele>
  <time>2009-12-02T13:57:06Z</time>
</trkpt>
<trkpt lat="30.576746000" lon="35.125013000">
  <ele>192.400000</ele>
  <time>2009-12-02T13:57:10Z</time>
</trkpt>
<trkpt lat="30.576738000" lon="35.125152000">
  <ele>190.000000</ele>
  <time>2009-12-02T13:57:13Z</time>
</trkpt>
<trkpt lat="30.576667000" lon="35.125330000">
  <ele>186.150000</ele>
  <time>2009-12-02T13:57:17Z</time>
</trkpt>
<trkpt lat="30.576647000" lon="35.125397000">
  <ele>185.670000</ele>
  <time>2009-12-02T13:57:19Z</time>
</trkpt>
<trkpt lat="30.576439000" lon="35.125691000">
  <ele>181.350000</ele>
  <time>2009-12-02T13:57:24Z</time>
</trkpt>
<trkpt lat="30.576319000" lon="35.125813000">
  <ele>180.870000</ele>
  <time>2009-12-02T13:57:26Z</time>
</trkpt>
<trkpt lat="30.576184000" lon="35.125907000">
  <ele>179.420000</ele>
  <time>2009-12-02T13:57:28Z</time>
</trkpt>
<trkpt lat="30.575926000" lon="35.126113000">
  <ele>177.020000</ele>
  <time>2009-12-02T13:57:32Z</time>
</trkpt>
<trkpt lat="30.575593000" lon="35.126328000">
  <ele>172.690000</ele>
  <time>2009-12-02T13:57:38Z</time>
</trkpt>
<trkpt lat="30.575429000" lon="35.126375000">
  <ele>168.850000</ele>
  <time>2009-12-02T13:57:43Z</time>
</trkpt>
<trkpt lat="30.575261000" lon="35.126598000">
  <ele>165.480000</ele>
  <time>2009-12-02T13:57:52Z</time>
</trkpt>
<trkpt lat="30.575255000" lon="35.126615000">
  <ele>165.000000</ele>
  <time>2009-12-02T13:58:04Z</time>
</trkpt>
<trkpt lat="30.575205000" lon="35.126572000">
  <ele>164.040000</ele>
  <time>2009-12-02T13:58:16Z</time>
</trkpt>
<trkpt lat="30.575138000" lon="35.126503000">
  <ele>162.120000</ele>
  <time>2009-12-02T13:58:31Z</time>
</trkpt>
<trkpt lat="30.575136000" lon="35.126502000">
  <ele>162.120000</ele>
  <time>2009-12-02T13:58:33Z</time>
</trkpt>
<trkpt lat="30.575122000" lon="35.126484000">
  <ele>162.600000</ele>
  <time>2009-12-02T13:58:35Z</time>
</trkpt>
<trkpt lat="30.575070000" lon="35.126504000">
  <ele>161.640000</ele>
  <time>2009-12-02T13:58:39Z</time>
</trkpt>
<trkpt lat="30.575003000" lon="35.126535000">
  <ele>161.160000</ele>
  <time>2009-12-02T13:58:43Z</time>
</trkpt>
<trkpt lat="30.574901000" lon="35.126595000">
  <ele>160.200000</ele>
  <time>2009-12-02T13:58:49Z</time>
</trkpt>
<trkpt lat="30.574730000" lon="35.126621000">
  <ele>159.720000</ele>
  <time>2009-12-02T13:59:01Z</time>
</trkpt>
<trkpt lat="30.574651000" lon="35.126669000">
  <ele>158.270000</ele>
  <time>2009-12-02T13:59:13Z</time>
</trkpt>
<trkpt lat="30.574632000" lon="35.126687000">
  <ele>157.790000</ele>
  <time>2009-12-02T13:59:19Z</time>
</trkpt>
<trkpt lat="30.574552000" lon="35.126693000">
  <ele>155.870000</ele>
  <time>2009-12-02T13:59:23Z</time>
</trkpt>
<trkpt lat="30.574496000" lon="35.126752000">
  <ele>154.910000</ele>
  <time>2009-12-02T13:59:28Z</time>
</trkpt>
<trkpt lat="30.574436000" lon="35.126777000">
  <ele>153.950000</ele>
  <time>2009-12-02T13:59:31Z</time>
</trkpt>
<trkpt lat="30.574344000" lon="35.126896000">
  <ele>151.060000</ele>
  <time>2009-12-02T13:59:35Z</time>
</trkpt>
<trkpt lat="30.574251000" lon="35.127096000">
  <ele>146.260000</ele>
  <time>2009-12-02T13:59:40Z</time>
</trkpt>
<trkpt lat="30.574232000" lon="35.127134000">
  <ele>146.260000</ele>
  <time>2009-12-02T13:59:41Z</time>
</trkpt>
<trkpt lat="30.574180000" lon="35.127281000">
  <ele>142.890000</ele>
  <time>2009-12-02T13:59:44Z</time>
</trkpt>
<trkpt lat="30.574170000" lon="35.127377000">
  <ele>141.930000</ele>
  <time>2009-12-02T13:59:46Z</time>
</trkpt>
<trkpt lat="30.574172000" lon="35.127421000">
  <ele>142.410000</ele>
  <time>2009-12-02T13:59:47Z</time>
</trkpt>
<trkpt lat="30.574205000" lon="35.127454000">
  <ele>141.450000</ele>
  <time>2009-12-02T13:59:51Z</time>
</trkpt>
<trkpt lat="30.574237000" lon="35.127483000">
  <ele>140.490000</ele>
  <time>2009-12-02T13:59:55Z</time>
</trkpt>
<trkpt lat="30.574271000" lon="35.127776000">
  <ele>138.570000</ele>
  <time>2009-12-02T14:00:03Z</time>
</trkpt>
<trkpt lat="30.574264000" lon="35.128193000">
  <ele>136.160000</ele>
  <time>2009-12-02T14:00:18Z</time>
</trkpt>
<trkpt lat="30.574266000" lon="35.128371000">
  <ele>135.680000</ele>
  <time>2009-12-02T14:00:25Z</time>
</trkpt>
<trkpt lat="30.574084000" lon="35.128416000">
  <ele>136.640000</ele>
  <time>2009-12-02T14:00:38Z</time>
</trkpt>
<trkpt lat="30.574056000" lon="35.128442000">
  <ele>137.610000</ele>
  <time>2009-12-02T14:00:54Z</time>
</trkpt>
<trkpt lat="30.574041000" lon="35.128454000">
  <ele>137.130000</ele>
  <time>2009-12-02T14:01:24Z</time>
</trkpt>
<trkpt lat="30.574065000" lon="35.128485000">
  <ele>137.610000</ele>
  <time>2009-12-02T14:01:51Z</time>
</trkpt>
<trkpt lat="30.574099000" lon="35.128538000">
  <ele>138.090000</ele>
  <time>2009-12-02T14:02:05Z</time>
</trkpt>
<trkpt lat="30.574098000" lon="35.128540000">
  <ele>138.090000</ele>
  <time>2009-12-02T14:02:19Z</time>
</trkpt>
<trkpt lat="30.574039000" lon="35.128596000">
  <ele>139.050000</ele>
  <time>2009-12-02T14:02:23Z</time>
</trkpt>
<trkpt lat="30.573919000" lon="35.128770000">
  <ele>140.970000</ele>
  <time>2009-12-02T14:02:38Z</time>
</trkpt>
<trkpt lat="30.573915000" lon="35.128770000">
  <ele>140.010000</ele>
  <time>2009-12-02T14:04:15Z</time>
</trkpt>
<trkpt lat="30.573912000" lon="35.128773000">
  <ele>140.010000</ele>
  <time>2009-12-02T14:04:29Z</time>
</trkpt>
<trkpt lat="30.573696000" lon="35.129041000">
  <ele>140.010000</ele>
  <time>2009-12-02T14:04:42Z</time>
</trkpt>
<trkpt lat="30.573494000" lon="35.129425000">
  <ele>140.970000</ele>
  <time>2009-12-02T14:04:53Z</time>
</trkpt>
<trkpt lat="30.573217000" lon="35.129780000">
  <ele>139.530000</ele>
  <time>2009-12-02T14:05:05Z</time>
</trkpt>
<trkpt lat="30.573030000" lon="35.130186000">
  <ele>141.930000</ele>
  <time>2009-12-02T14:05:18Z</time>
</trkpt>
<trkpt lat="30.572729000" lon="35.130455000">
  <ele>143.370000</ele>
  <time>2009-12-02T14:05:31Z</time>
</trkpt>
<trkpt lat="30.572474000" lon="35.130539000">
  <ele>144.820000</ele>
  <time>2009-12-02T14:05:41Z</time>
</trkpt>
<trkpt lat="30.572356000" lon="35.130762000">
  <ele>146.260000</ele>
  <time>2009-12-02T14:05:51Z</time>
</trkpt>
<trkpt lat="30.572199000" lon="35.130963000">
  <ele>146.260000</ele>
  <time>2009-12-02T14:06:01Z</time>
</trkpt>
<trkpt lat="30.572163000" lon="35.131011000">
  <ele>145.300000</ele>
  <time>2009-12-02T14:06:03Z</time>
</trkpt>
<trkpt lat="30.572089000" lon="35.131207000">
  <ele>144.340000</ele>
  <time>2009-12-02T14:06:08Z</time>
</trkpt>
<trkpt lat="30.572017000" lon="35.131325000">
  <ele>143.850000</ele>
  <time>2009-12-02T14:06:11Z</time>
</trkpt>
<trkpt lat="30.571922000" lon="35.131589000">
  <ele>141.930000</ele>
  <time>2009-12-02T14:06:16Z</time>
</trkpt>
<trkpt lat="30.571847000" lon="35.131655000">
  <ele>140.970000</ele>
  <time>2009-12-02T14:06:18Z</time>
</trkpt>
<trkpt lat="30.571806000" lon="35.131681000">
  <ele>140.970000</ele>
  <time>2009-12-02T14:06:19Z</time>
</trkpt>
<trkpt lat="30.571679000" lon="35.131841000">
  <ele>139.530000</ele>
  <time>2009-12-02T14:06:23Z</time>
</trkpt>
<trkpt lat="30.571673000" lon="35.132146000">
  <ele>139.050000</ele>
  <time>2009-12-02T14:06:29Z</time>
</trkpt>
<trkpt lat="30.571552000" lon="35.132488000">
  <ele>138.090000</ele>
  <time>2009-12-02T14:06:37Z</time>
</trkpt>
<trkpt lat="30.571466000" lon="35.132680000">
  <ele>137.610000</ele>
  <time>2009-12-02T14:06:41Z</time>
</trkpt>
<trkpt lat="30.571407000" lon="35.132783000">
  <ele>137.130000</ele>
  <time>2009-12-02T14:06:43Z</time>
</trkpt>
<trkpt lat="30.571242000" lon="35.133044000">
  <ele>135.680000</ele>
  <time>2009-12-02T14:06:48Z</time>
</trkpt>
<trkpt lat="30.570922000" lon="35.133568000">
  <ele>133.280000</ele>
  <time>2009-12-02T14:06:58Z</time>
</trkpt>
<trkpt lat="30.570723000" lon="35.133793000">
  <ele>132.320000</ele>
  <time>2009-12-02T14:07:03Z</time>
</trkpt>
<trkpt lat="30.570634000" lon="35.134000000">
  <ele>131.360000</ele>
  <time>2009-12-02T14:07:07Z</time>
</trkpt>
<trkpt lat="30.570597000" lon="35.134101000">
  <ele>130.880000</ele>
  <time>2009-12-02T14:07:09Z</time>
</trkpt>
<trkpt lat="30.570433000" lon="35.134267000">
  <ele>131.840000</ele>
  <time>2009-12-02T14:07:14Z</time>
</trkpt>
<trkpt lat="30.570101000" lon="35.134476000">
  <ele>130.880000</ele>
  <time>2009-12-02T14:07:21Z</time>
</trkpt>
<trkpt lat="30.569951000" lon="35.134553000">
  <ele>129.430000</ele>
  <time>2009-12-02T14:07:24Z</time>
</trkpt>
<trkpt lat="30.569518000" lon="35.134728000">
  <ele>127.990000</ele>
  <time>2009-12-02T14:07:32Z</time>
</trkpt>
<trkpt lat="30.569072000" lon="35.135116000">
  <ele>125.110000</ele>
  <time>2009-12-02T14:07:44Z</time>
</trkpt>
<trkpt lat="30.569057000" lon="35.135154000">
  <ele>125.110000</ele>
  <time>2009-12-02T14:07:45Z</time>
</trkpt>
<trkpt lat="30.568905000" lon="35.135336000">
  <ele>125.110000</ele>
  <time>2009-12-02T14:07:50Z</time>
</trkpt>
<trkpt lat="30.568808000" lon="35.135550000">
  <ele>124.150000</ele>
  <time>2009-12-02T14:07:55Z</time>
</trkpt>
<trkpt lat="30.568777000" lon="35.135640000">
  <ele>123.190000</ele>
  <time>2009-12-02T14:07:57Z</time>
</trkpt>
<trkpt lat="30.568515000" lon="35.136004000">
  <ele>122.220000</ele>
  <time>2009-12-02T14:08:11Z</time>
</trkpt>
<trkpt lat="30.568500000" lon="35.136451000">
  <ele>122.220000</ele>
  <time>2009-12-02T14:08:22Z</time>
</trkpt>
<trkpt lat="30.568521000" lon="35.136799000">
  <ele>120.300000</ele>
  <time>2009-12-02T14:08:33Z</time>
</trkpt>
<trkpt lat="30.568498000" lon="35.137351000">
  <ele>118.860000</ele>
  <time>2009-12-02T14:08:49Z</time>
</trkpt>
<trkpt lat="30.568243000" lon="35.137863000">
  <ele>117.900000</ele>
  <time>2009-12-02T14:09:03Z</time>
</trkpt>
<trkpt lat="30.567801000" lon="35.138134000">
  <ele>116.460000</ele>
  <time>2009-12-02T14:09:17Z</time>
</trkpt>
<trkpt lat="30.567436000" lon="35.138354000">
  <ele>115.010000</ele>
  <time>2009-12-02T14:09:29Z</time>
</trkpt>
<trkpt lat="30.567409000" lon="35.138371000">
  <ele>115.010000</ele>
  <time>2009-12-02T14:09:30Z</time>
</trkpt>
<trkpt lat="30.567207000" lon="35.138611000">
  <ele>114.050000</ele>
  <time>2009-12-02T14:09:38Z</time>
</trkpt>
<trkpt lat="30.567134000" lon="35.138725000">
  <ele>113.570000</ele>
  <time>2009-12-02T14:09:41Z</time>
</trkpt>
<trkpt lat="30.566942000" lon="35.138991000">
  <ele>112.610000</ele>
  <time>2009-12-02T14:09:49Z</time>
</trkpt>
<trkpt lat="30.566990000" lon="35.139267000">
  <ele>112.130000</ele>
  <time>2009-12-02T14:10:00Z</time>
</trkpt>
<trkpt lat="30.566942000" lon="35.139403000">
  <ele>111.650000</ele>
  <time>2009-12-02T14:10:04Z</time>
</trkpt>
<trkpt lat="30.566856000" lon="35.139965000">
  <ele>109.730000</ele>
  <time>2009-12-02T14:10:13Z</time>
</trkpt>
<trkpt lat="30.566846000" lon="35.140220000">
  <ele>109.730000</ele>
  <time>2009-12-02T14:10:17Z</time>
</trkpt>
<trkpt lat="30.566885000" lon="35.140701000">
  <ele>107.320000</ele>
  <time>2009-12-02T14:10:24Z</time>
</trkpt>
<trkpt lat="30.567002000" lon="35.141094000">
  <ele>106.360000</ele>
  <time>2009-12-02T14:10:30Z</time>
</trkpt>
<trkpt lat="30.567160000" lon="35.141507000">
  <ele>104.920000</ele>
  <time>2009-12-02T14:10:40Z</time>
</trkpt>
<trkpt lat="30.567457000" lon="35.141910000">
  <ele>102.520000</ele>
  <time>2009-12-02T14:10:51Z</time>
</trkpt>
<trkpt lat="30.567485000" lon="35.142291000">
  <ele>101.560000</ele>
  <time>2009-12-02T14:11:00Z</time>
</trkpt>
<trkpt lat="30.567587000" lon="35.142621000">
  <ele>100.600000</ele>
  <time>2009-12-02T14:11:08Z</time>
</trkpt>
<trkpt lat="30.567601000" lon="35.142767000">
  <ele>99.630000</ele>
  <time>2009-12-02T14:11:11Z</time>
</trkpt>
<trkpt lat="30.567655000" lon="35.143128000">
  <ele>99.150000</ele>
  <time>2009-12-02T14:11:19Z</time>
</trkpt>
<trkpt lat="30.567914000" lon="35.143554000">
  <ele>97.230000</ele>
  <time>2009-12-02T14:11:30Z</time>
</trkpt>
<trkpt lat="30.568153000" lon="35.143879000">
  <ele>96.270000</ele>
  <time>2009-12-02T14:11:39Z</time>
</trkpt>
<trkpt lat="30.568320000" lon="35.144300000">
  <ele>94.830000</ele>
  <time>2009-12-02T14:11:48Z</time>
</trkpt>
<trkpt lat="30.568469000" lon="35.144413000">
  <ele>94.350000</ele>
  <time>2009-12-02T14:11:52Z</time>
</trkpt>
<trkpt lat="30.568785000" lon="35.144799000">
  <ele>92.900000</ele>
  <time>2009-12-02T14:12:02Z</time>
</trkpt>
<trkpt lat="30.568847000" lon="35.144921000">
  <ele>92.420000</ele>
  <time>2009-12-02T14:12:05Z</time>
</trkpt>
<trkpt lat="30.568864000" lon="35.145179000">
  <ele>91.940000</ele>
  <time>2009-12-02T14:12:10Z</time>
</trkpt>
<trkpt lat="30.568901000" lon="35.145659000">
  <ele>90.500000</ele>
  <time>2009-12-02T14:12:19Z</time>
</trkpt>
<trkpt lat="30.568796000" lon="35.146053000">
  <ele>89.060000</ele>
  <time>2009-12-02T14:12:28Z</time>
</trkpt>
<trkpt lat="30.568748000" lon="35.146316000">
  <ele>88.100000</ele>
  <time>2009-12-02T14:12:34Z</time>
</trkpt>
<trkpt lat="30.568752000" lon="35.146492000">
  <ele>87.140000</ele>
  <time>2009-12-02T14:12:38Z</time>
</trkpt>
<trkpt lat="30.568782000" lon="35.146581000">
  <ele>87.140000</ele>
  <time>2009-12-02T14:12:40Z</time>
</trkpt>
<trkpt lat="30.568796000" lon="35.146784000">
  <ele>86.660000</ele>
  <time>2009-12-02T14:12:44Z</time>
</trkpt>
<trkpt lat="30.568809000" lon="35.146882000">
  <ele>86.180000</ele>
  <time>2009-12-02T14:12:46Z</time>
</trkpt>
<trkpt lat="30.568732000" lon="35.147217000">
  <ele>84.730000</ele>
  <time>2009-12-02T14:12:53Z</time>
</trkpt>
<trkpt lat="30.568784000" lon="35.147517000">
  <ele>84.250000</ele>
  <time>2009-12-02T14:12:59Z</time>
</trkpt>
<trkpt lat="30.568808000" lon="35.147668000">
  <ele>83.770000</ele>
  <time>2009-12-02T14:13:02Z</time>
</trkpt>
<trkpt lat="30.568930000" lon="35.147795000">
  <ele>82.810000</ele>
  <time>2009-12-02T14:13:07Z</time>
</trkpt>
<trkpt lat="30.569212000" lon="35.147955000">
  <ele>82.330000</ele>
  <time>2009-12-02T14:13:15Z</time>
</trkpt>
<trkpt lat="30.569447000" lon="35.148100000">
  <ele>81.370000</ele>
  <time>2009-12-02T14:13:21Z</time>
</trkpt>
<trkpt lat="30.569533000" lon="35.148214000">
  <ele>80.890000</ele>
  <time>2009-12-02T14:13:24Z</time>
</trkpt>
<trkpt lat="30.569894000" lon="35.148511000">
  <ele>79.450000</ele>
  <time>2009-12-02T14:13:36Z</time>
</trkpt>
<trkpt lat="30.569923000" lon="35.148544000">
  <ele>78.970000</ele>
  <time>2009-12-02T14:13:37Z</time>
</trkpt>
<trkpt lat="30.570111000" lon="35.148703000">
  <ele>78.480000</ele>
  <time>2009-12-02T14:13:43Z</time>
</trkpt>
<trkpt lat="30.570414000" lon="35.149149000">
  <ele>76.560000</ele>
  <time>2009-12-02T14:13:56Z</time>
</trkpt>
<trkpt lat="30.570479000" lon="35.149434000">
  <ele>75.600000</ele>
  <time>2009-12-02T14:14:03Z</time>
</trkpt>
<trkpt lat="30.570573000" lon="35.149511000">
  <ele>76.080000</ele>
  <time>2009-12-02T14:14:07Z</time>
</trkpt>
<trkpt lat="30.570637000" lon="35.149549000">
  <ele>75.600000</ele>
  <time>2009-12-02T14:14:09Z</time>
</trkpt>
<trkpt lat="30.571002000" lon="35.150043000">
  <ele>73.680000</ele>
  <time>2009-12-02T14:14:24Z</time>
</trkpt>
<trkpt lat="30.571019000" lon="35.150087000">
  <ele>72.240000</ele>
  <time>2009-12-02T14:14:25Z</time>
</trkpt>
<trkpt lat="30.571138000" lon="35.150423000">
  <ele>72.240000</ele>
  <time>2009-12-02T14:14:32Z</time>
</trkpt>
<trkpt lat="30.571234000" lon="35.150701000">
  <ele>71.270000</ele>
  <time>2009-12-02T14:14:38Z</time>
</trkpt>
<trkpt lat="30.571406000" lon="35.151192000">
  <ele>69.830000</ele>
  <time>2009-12-02T14:14:50Z</time>
</trkpt>
<trkpt lat="30.571459000" lon="35.151576000">
  <ele>68.870000</ele>
  <time>2009-12-02T14:14:58Z</time>
</trkpt>
<trkpt lat="30.571374000" lon="35.151776000">
  <ele>67.430000</ele>
  <time>2009-12-02T14:15:03Z</time>
</trkpt>
<trkpt lat="30.571274000" lon="35.152152000">
  <ele>66.470000</ele>
  <time>2009-12-02T14:15:12Z</time>
</trkpt>
<trkpt lat="30.571334000" lon="35.152378000">
  <ele>65.510000</ele>
  <time>2009-12-02T14:15:17Z</time>
</trkpt>
<trkpt lat="30.571350000" lon="35.152478000">
  <ele>65.510000</ele>
  <time>2009-12-02T14:15:19Z</time>
</trkpt>
<trkpt lat="30.571360000" lon="35.152727000">
  <ele>64.550000</ele>
  <time>2009-12-02T14:15:24Z</time>
</trkpt>
<trkpt lat="30.571297000" lon="35.152951000">
  <ele>64.070000</ele>
  <time>2009-12-02T14:15:29Z</time>
</trkpt>
<trkpt lat="30.571267000" lon="35.153160000">
  <ele>63.100000</ele>
  <time>2009-12-02T14:15:33Z</time>
</trkpt>
<trkpt lat="30.571235000" lon="35.153266000">
  <ele>63.100000</ele>
  <time>2009-12-02T14:15:35Z</time>
</trkpt>
<trkpt lat="30.571183000" lon="35.153490000">
  <ele>61.660000</ele>
  <time>2009-12-02T14:15:39Z</time>
</trkpt>
<trkpt lat="30.571152000" lon="35.153710000">
  <ele>61.660000</ele>
  <time>2009-12-02T14:15:43Z</time>
</trkpt>
<trkpt lat="30.571103000" lon="35.153907000">
  <ele>60.220000</ele>
  <time>2009-12-02T14:15:47Z</time>
</trkpt>
<trkpt lat="30.571089000" lon="35.154123000">
  <ele>60.220000</ele>
  <time>2009-12-02T14:15:51Z</time>
</trkpt>
<trkpt lat="30.571001000" lon="35.154393000">
  <ele>58.780000</ele>
  <time>2009-12-02T14:15:56Z</time>
</trkpt>
<trkpt lat="30.570939000" lon="35.154625000">
  <ele>58.300000</ele>
  <time>2009-12-02T14:16:00Z</time>
</trkpt>
<trkpt lat="30.570897000" lon="35.155143000">
  <ele>56.370000</ele>
  <time>2009-12-02T14:16:12Z</time>
</trkpt>
<trkpt lat="30.570899000" lon="35.155311000">
  <ele>55.410000</ele>
  <time>2009-12-02T14:16:25Z</time>
</trkpt>
<trkpt lat="30.570970000" lon="35.155559000">
  <ele>54.930000</ele>
  <time>2009-12-02T14:17:01Z</time>
</trkpt>
<trkpt lat="30.571016000" lon="35.155678000">
  <ele>54.450000</ele>
  <time>2009-12-02T14:17:05Z</time>
</trkpt>
<trkpt lat="30.570972000" lon="35.155729000">
  <ele>54.450000</ele>
  <time>2009-12-02T14:17:09Z</time>
</trkpt>
<trkpt lat="30.570863000" lon="35.155790000">
  <ele>53.970000</ele>
  <time>2009-12-02T14:17:14Z</time>
</trkpt>
<trkpt lat="30.570737000" lon="35.155904000">
  <ele>53.490000</ele>
  <time>2009-12-02T14:17:18Z</time>
</trkpt>
<trkpt lat="30.570650000" lon="35.156099000">
  <ele>53.010000</ele>
  <time>2009-12-02T14:17:23Z</time>
</trkpt>
<trkpt lat="30.570413000" lon="35.156603000">
  <ele>53.010000</ele>
  <time>2009-12-02T14:17:36Z</time>
</trkpt>
<trkpt lat="30.570359000" lon="35.156668000">
  <ele>52.530000</ele>
  <time>2009-12-02T14:17:38Z</time>
</trkpt>
<trkpt lat="30.570323000" lon="35.156696000">
  <ele>53.010000</ele>
  <time>2009-12-02T14:17:39Z</time>
</trkpt>
<trkpt lat="30.570119000" lon="35.156829000">
  <ele>53.010000</ele>
  <time>2009-12-02T14:17:44Z</time>
</trkpt>
<trkpt lat="30.570087000" lon="35.156865000">
  <ele>53.010000</ele>
  <time>2009-12-02T14:17:45Z</time>
</trkpt>
<trkpt lat="30.570058000" lon="35.156900000">
  <ele>53.010000</ele>
  <time>2009-12-02T14:17:46Z</time>
</trkpt>
<trkpt lat="30.570017000" lon="35.156989000">
  <ele>53.010000</ele>
  <time>2009-12-02T14:17:48Z</time>
</trkpt>
<trkpt lat="30.569945000" lon="35.157172000">
  <ele>53.490000</ele>
  <time>2009-12-02T14:17:52Z</time>
</trkpt>
<trkpt lat="30.569916000" lon="35.157206000">
  <ele>53.490000</ele>
  <time>2009-12-02T14:17:53Z</time>
</trkpt>
<trkpt lat="30.569882000" lon="35.157239000">
  <ele>53.490000</ele>
  <time>2009-12-02T14:17:54Z</time>
</trkpt>
<trkpt lat="30.569850000" lon="35.157265000">
  <ele>53.970000</ele>
  <time>2009-12-02T14:17:55Z</time>
</trkpt>
<trkpt lat="30.569815000" lon="35.157288000">
  <ele>53.970000</ele>
  <time>2009-12-02T14:17:56Z</time>
</trkpt>
<trkpt lat="30.569779000" lon="35.157310000">
  <ele>53.490000</ele>
  <time>2009-12-02T14:17:57Z</time>
</trkpt>
<trkpt lat="30.569581000" lon="35.157450000">
  <ele>54.450000</ele>
  <time>2009-12-02T14:18:02Z</time>
</trkpt>
<trkpt lat="30.569150000" lon="35.157972000">
  <ele>54.450000</ele>
  <time>2009-12-02T14:18:19Z</time>
</trkpt>
<trkpt lat="30.569127000" lon="35.158009000">
  <ele>53.970000</ele>
  <time>2009-12-02T14:18:20Z</time>
</trkpt>
<trkpt lat="30.569094000" lon="35.158047000">
  <ele>53.970000</ele>
  <time>2009-12-02T14:18:21Z</time>
</trkpt>
<trkpt lat="30.568984000" lon="35.158174000">
  <ele>53.490000</ele>
  <time>2009-12-02T14:18:24Z</time>
</trkpt>
<trkpt lat="30.568954000" lon="35.158220000">
  <ele>53.490000</ele>
  <time>2009-12-02T14:18:25Z</time>
</trkpt>
<trkpt lat="30.568628000" lon="35.159025000">
  <ele>50.610000</ele>
  <time>2009-12-02T14:18:38Z</time>
</trkpt>
<trkpt lat="30.568421000" lon="35.159663000">
  <ele>48.680000</ele>
  <time>2009-12-02T14:18:47Z</time>
</trkpt>
<trkpt lat="30.568371000" lon="35.159960000">
  <ele>48.200000</ele>
  <time>2009-12-02T14:18:51Z</time>
</trkpt>
<trkpt lat="30.568296000" lon="35.160169000">
  <ele>48.200000</ele>
  <time>2009-12-02T14:18:54Z</time>
</trkpt>
<trkpt lat="30.568214000" lon="35.160346000">
  <ele>47.240000</ele>
  <time>2009-12-02T14:18:57Z</time>
</trkpt>
<trkpt lat="30.568150000" lon="35.161085000">
  <ele>45.800000</ele>
  <time>2009-12-02T14:19:08Z</time>
</trkpt>
<trkpt lat="30.568305000" lon="35.161480000">
  <ele>44.360000</ele>
  <time>2009-12-02T14:19:17Z</time>
</trkpt>
<trkpt lat="30.568246000" lon="35.161543000">
  <ele>44.360000</ele>
  <time>2009-12-02T14:19:21Z</time>
</trkpt>
<trkpt lat="30.567846000" lon="35.161914000">
  <ele>42.920000</ele>
  <time>2009-12-02T14:19:34Z</time>
</trkpt>
<trkpt lat="30.567206000" lon="35.162496000">
  <ele>42.920000</ele>
  <time>2009-12-02T14:19:52Z</time>
</trkpt>
<trkpt lat="30.566725000" lon="35.162912000">
  <ele>42.440000</ele>
  <time>2009-12-02T14:20:05Z</time>
</trkpt>
<trkpt lat="30.566626000" lon="35.163110000">
  <ele>42.920000</ele>
  <time>2009-12-02T14:20:10Z</time>
</trkpt>
<trkpt lat="30.566499000" lon="35.163655000">
  <ele>42.440000</ele>
  <time>2009-12-02T14:20:22Z</time>
</trkpt>
<trkpt lat="30.566435000" lon="35.164050000">
  <ele>41.950000</ele>
  <time>2009-12-02T14:20:33Z</time>
</trkpt>
<trkpt lat="30.566513000" lon="35.164466000">
  <ele>40.510000</ele>
  <time>2009-12-02T14:20:47Z</time>
</trkpt>
<trkpt lat="30.566532000" lon="35.164627000">
  <ele>39.550000</ele>
  <time>2009-12-02T14:20:53Z</time>
</trkpt>
<trkpt lat="30.566628000" lon="35.164898000">
  <ele>38.110000</ele>
  <time>2009-12-02T14:21:00Z</time>
</trkpt>
<trkpt lat="30.566549000" lon="35.165060000">
  <ele>37.150000</ele>
  <time>2009-12-02T14:21:08Z</time>
</trkpt>
<trkpt lat="30.566522000" lon="35.165074000">
  <ele>37.150000</ele>
  <time>2009-12-02T14:21:29Z</time>
</trkpt>
<trkpt lat="30.566385000" lon="35.165197000">
  <ele>36.190000</ele>
  <time>2009-12-02T14:22:27Z</time>
</trkpt>
<trkpt lat="30.566219000" lon="35.165338000">
  <ele>34.740000</ele>
  <time>2009-12-02T14:22:40Z</time>
</trkpt>
<trkpt lat="30.566218000" lon="35.165335000">
  <ele>35.230000</ele>
  <time>2009-12-02T14:24:58Z</time>
</trkpt>
<trkpt lat="30.566137000" lon="35.165411000">
  <ele>33.780000</ele>
  <time>2009-12-02T14:25:16Z</time>
</trkpt>
<trkpt lat="30.565753000" lon="35.165598000">
  <ele>32.820000</ele>
  <time>2009-12-02T14:25:29Z</time>
</trkpt>
<trkpt lat="30.565233000" lon="35.165814000">
  <ele>29.460000</ele>
  <time>2009-12-02T14:25:38Z</time>
</trkpt>
<trkpt lat="30.565099000" lon="35.165870000">
  <ele>28.980000</ele>
  <time>2009-12-02T14:25:40Z</time>
</trkpt>
<trkpt lat="30.564377000" lon="35.166162000">
  <ele>28.980000</ele>
  <time>2009-12-02T14:25:53Z</time>
</trkpt>
<trkpt lat="30.563422000" lon="35.166523000">
  <ele>27.530000</ele>
  <time>2009-12-02T14:26:11Z</time>
</trkpt>
<trkpt lat="30.563180000" lon="35.166594000">
  <ele>27.050000</ele>
  <time>2009-12-02T14:26:16Z</time>
</trkpt>
<trkpt lat="30.562533000" lon="35.166911000">
  <ele>26.090000</ele>
  <time>2009-12-02T14:26:29Z</time>
</trkpt>
<trkpt lat="30.561741000" lon="35.167558000">
  <ele>27.050000</ele>
  <time>2009-12-02T14:26:46Z</time>
</trkpt>
<trkpt lat="30.561532000" lon="35.167752000">
  <ele>27.050000</ele>
  <time>2009-12-02T14:26:51Z</time>
</trkpt>
<trkpt lat="30.560883000" lon="35.168739000">
  <ele>25.610000</ele>
  <time>2009-12-02T14:27:09Z</time>
</trkpt>
<trkpt lat="30.560811000" lon="35.168969000">
  <ele>23.690000</ele>
  <time>2009-12-02T14:27:12Z</time>
</trkpt>
<trkpt lat="30.560789000" lon="35.169265000">
  <ele>23.690000</ele>
  <time>2009-12-02T14:27:16Z</time>
</trkpt>
<trkpt lat="30.560691000" lon="35.169524000">
  <ele>22.730000</ele>
  <time>2009-12-02T14:27:20Z</time>
</trkpt>
<trkpt lat="30.560630000" lon="35.169642000">
  <ele>23.210000</ele>
  <time>2009-12-02T14:27:22Z</time>
</trkpt>
<trkpt lat="30.560518000" lon="35.170867000">
  <ele>20.320000</ele>
  <time>2009-12-02T14:27:38Z</time>
</trkpt>
<trkpt lat="30.560733000" lon="35.172246000">
  <ele>17.440000</ele>
  <time>2009-12-02T14:27:56Z</time>
</trkpt>
<trkpt lat="30.560897000" lon="35.173177000">
  <ele>14.080000</ele>
  <time>2009-12-02T14:28:08Z</time>
</trkpt>
<trkpt lat="30.560967000" lon="35.174096000">
  <ele>12.150000</ele>
  <time>2009-12-02T14:28:22Z</time>
</trkpt>
<trkpt lat="30.560963000" lon="35.174152000">
  <ele>11.190000</ele>
  <time>2009-12-02T14:28:23Z</time>
</trkpt>
<trkpt lat="30.560914000" lon="35.174349000">
  <ele>9.750000</ele>
  <time>2009-12-02T14:28:27Z</time>
</trkpt>
<trkpt lat="30.560982000" lon="35.174552000">
  <ele>9.270000</ele>
  <time>2009-12-02T14:28:32Z</time>
</trkpt>
<trkpt lat="30.560992000" lon="35.175374000">
  <ele>8.310000</ele>
  <time>2009-12-02T14:28:47Z</time>
</trkpt>
<trkpt lat="30.560976000" lon="35.176894000">
  <ele>6.870000</ele>
  <time>2009-12-02T14:29:07Z</time>
</trkpt>
<trkpt lat="30.560971000" lon="35.178114000">
  <ele>3.500000</ele>
  <time>2009-12-02T14:29:24Z</time>
</trkpt>
<trkpt lat="30.560988000" lon="35.179546000">
  <ele>2.540000</ele>
  <time>2009-12-02T14:29:43Z</time>
</trkpt>
<trkpt lat="30.560978000" lon="35.180640000">
  <ele>0.140000</ele>
  <time>2009-12-02T14:29:57Z</time>
</trkpt>
<trkpt lat="30.561231000" lon="35.180854000">
  <ele>-0.820000</ele>
  <time>2009-12-02T14:30:04Z</time>
</trkpt>
<trkpt lat="30.562576000" lon="35.180837000">
  <ele>-1.790000</ele>
  <time>2009-12-02T14:30:26Z</time>
</trkpt>
<trkpt lat="30.563097000" lon="35.180827000">
  <ele>-2.270000</ele>
  <time>2009-12-02T14:30:35Z</time>
</trkpt>
<trkpt lat="30.563225000" lon="35.181032000">
  <ele>-4.670000</ele>
  <time>2009-12-02T14:30:40Z</time>
</trkpt>
<trkpt lat="30.563241000" lon="35.181162000">
  <ele>-3.710000</ele>
  <time>2009-12-02T14:30:42Z</time>
</trkpt>
<trkpt lat="30.563376000" lon="35.181777000">
  <ele>-5.150000</ele>
  <time>2009-12-02T14:30:54Z</time>
</trkpt>
<trkpt lat="30.563437000" lon="35.181761000">
  <ele>-5.630000</ele>
  <time>2009-12-02T14:31:05Z</time>
</trkpt>
<trkpt lat="30.563437000" lon="35.181758000">
  <ele>-5.630000</ele>
  <time>2009-12-02T14:33:09Z</time>
</trkpt>
</trkseg>
</trk></gpx>
